[[{"header":{"parameterUnit":"m.s-1","parameterCategory":1,"la1":30.6,"la2":29.2853,"lo1":-89.7004,"lo2":-87.6739,"dy":0.0162,"dx":0.0183,"nx":112,"ny":82,"refTime":"2025-03-10T06:00:00:Z","depth":0,"parameterNumber":2,"parameterNumberName":"U-component_of_WINDS"},"data":[0.0,0.0,0.0,0.0,0.0,0.0,0.0,0.0,0.0,0.0,0.0,0.0,0.0,0.0,0.0,0.0,0.0,0.0,0.0,0.0,0.0,0.0,0.0,0.0,0.0,0.0,0.0,0.0,0.0,0.0,0.0,0.0,0.0,0.0,0.0,0.0,0.0,0.0,0.0,0.0,0.0,0.0,0.0,0.0,0.0,0.0,0.0,0.0,0.0,0.0,0.0,0.0,0.0,0.0,0.0,0.0,0.0,0.0,0.0,0.0,0.0,0.0,0.0,0.0,0.0,0.0,0.0,0.0,0.0,0.0,0.0,0.0,0.0,0.0,0.0,0.0,0.0,0.0,0.0,0.0,0.0,0.0,0.0,0.0,0.0,0.0,0.0,0.0,0.0,0.0,-4.4153,-4.5509,-4.7608,-4.8909,-4.8909,-4.8054,-4.6513,-4.4153,0.0,0.0,0.0,0.0,0.0,0.0,0.0,0.0,0.0,0.0,0.0,0.0,0.0,0.0,0.0,0.0,0.0,0.0,0.0,0.0,0.0,0.0,0.0,0.0,0.0,0.0,0.0,0.0,0.0,0.0,0.0,0.0,0.0,0.0,0.0,0.0,0.0,0.0,0.0,0.0,0.0,0.0,0.0,0.0,0.0,0.0,0.0,0.0,0.0,0.0,0.0,0.0,0.0,0.0,0.0,0.0,0.0,0.0,0.0,0.0,0.0,0.0,0.0,0.0,0.0,0.0,0.0,0.0,0.0,0.0,0.0,0.0,0.0,0.0,0.0,0.0,0.0,0.0,0.0,0.0,0.0,0.0,0.0,0.0,0.0,0.0,0.0,0.0,0.0,0.0,0.0,0.0,0.0,0.0,0.0,0.0,0.0,0.0,0.0,0.0,0.0,0.0,0.0,0.0,-4.3336,-4.694,-4.8277,-4.8909,-4.8909,-4.7534,-4.59,-4.4116,0.0,0.0,0.0,0.0,0.0,0.0,0.0,0.0,0.0,0.0,0.0,0.0,0.0,0.0,0.0,0.0,0.0,0.0,0.0,0.0,0.0,0.0,0.0,0.0,0.0,0.0,0.0,0.0,0.0,0.0,0.0,0.0,0.0,0.0,0.0,0.0,0.0,0.0,0.0,0.0,0.0,0.0,0.0,0.0,0.0,0.0,0.0,0.0,0.0,0.0,0.0,0.0,0.0,0.0,0.0,0.0,0.0,0.0,0.0,0.0,0.0,0.0,0.0,0.0,0.0,0.0,0.0,0.0,0.0,0.0,0.0,0.0,0.0,0.0,0.0,0.0,0.0,0.0,0.0,0.0,0.0,0.0,0.0,0.0,0.0,0.0,0.0,0.0,0.0,0.0,0.0,0.0,0.0,0.0,0.0,0.0,0.0,0.0,0.0,0.0,0.0,0.0,0.0,-4.3373,-4.4822,-4.8017,-4.8686,-4.8909,-4.8909,-4.7423,-4.5769,-4.4116,-4.2835,0.0,0.0,0.0,0.0,0.0,0.0,0.0,0.0,0.0,0.0,0.0,0.0,0.0,0.0,0.0,0.0,0.0,0.0,0.0,0.0,0.0,0.0,0.0,0.0,0.0,0.0,0.0,0.0,0.0,0.0,0.0,0.0,0.0,0.0,0.0,0.0,0.0,0.0,0.0,0.0,0.0,0.0,0.0,0.0,0.0,0.0,0.0,0.0,0.0,0.0,0.0,0.0,0.0,0.0,0.0,0.0,0.0,0.0,0.0,0.0,0.0,0.0,0.0,0.0,0.0,0.0,0.0,0.0,0.0,0.0,0.0,0.0,0.0,0.0,0.0,0.0,0.0,0.0,0.0,0.0,0.0,0.0,0.0,0.0,0.0,0.0,0.0,0.0,0.0,0.0,0.0,0.0,0.0,0.0,0.0,0.0,0.0,0.0,0.0,0.0,0.0,0.0,-4.5101,-4.642,-4.8667,-4.8909,-4.8909,-4.8909,-4.7256,-4.5584,-4.4098,-4.211,0.0,0.0,0.0,0.0,0.0,0.0,0.0,0.0,0.0,0.0,0.0,0.0,0.0,0.0,0.0,0.0,0.0,0.0,0.0,0.0,0.0,0.0,0.0,0.0,0.0,0.0,0.0,0.0,0.0,0.0,0.0,0.0,0.0,0.0,0.0,0.0,0.0,0.0,0.0,0.0,0.0,0.0,0.0,0.0,0.0,0.0,0.0,0.0,0.0,0.0,0.0,0.0,0.0,0.0,0.0,0.0,0.0,0.0,0.0,0.0,0.0,0.0,0.0,0.0,0.0,0.0,0.0,0.0,0.0,0.0,0.0,0.0,0.0,0.0,0.0,0.0,0.0,0.0,0.0,0.0,0.0,0.0,0.0,0.0,0.0,0.0,0.0,0.0,0.0,0.0,0.0,0.0,0.0,0.0,0.0,0.0,0.0,0.0,0.0,0.0,0.0,0.0,-4.4525,-4.7051,-4.8723,-4.8909,-4.8909,-4.8909,-4.6735,-4.4989,-4.4061,-4.1033,0.0,0.0,0.0,0.0,0.0,0.0,0.0,0.0,0.0,0.0,0.0,0.0,0.0,0.0,0.0,0.0,0.0,0.0,0.0,0.0,0.0,0.0,0.0,0.0,0.0,0.0,0.0,0.0,0.0,0.0,0.0,0.0,0.0,0.0,0.0,0.0,0.0,0.0,0.0,0.0,0.0,0.0,0.0,0.0,0.0,0.0,0.0,0.0,0.0,0.0,0.0,0.0,0.0,0.0,0.0,0.0,0.0,0.0,0.0,0.0,0.0,0.0,0.0,0.0,0.0,0.0,0.0,0.0,0.0,0.0,0.0,0.0,0.0,0.0,0.0,0.0,0.0,0.0,0.0,0.0,0.0,0.0,0.0,0.0,0.0,0.0,0.0,0.0,0.0,0.0,0.0,0.0,0.0,0.0,0.0,0.0,0.0,0.0,0.0,0.0,0.0,0.0,-4.4339,-4.655,0.0,-4.8909,-4.8704,-4.8184,-4.6865,-4.5026,-4.2649,0.0,0.0,0.0,0.0,0.0,0.0,0.0,0.0,0.0,0.0,0.0,0.0,0.0,0.0,0.0,0.0,0.0,0.0,0.0,0.0,0.0,0.0,0.0,0.0,0.0,0.0,0.0,0.0,0.0,0.0,0.0,0.0,0.0,0.0,0.0,0.0,0.0,0.0,0.0,0.0,0.0,0.0,0.0,0.0,0.0,0.0,0.0,0.0,0.0,0.0,0.0,0.0,0.0,0.0,0.0,0.0,0.0,0.0,0.0,0.0,0.0,0.0,0.0,0.0,0.0,0.0,0.0,0.0,0.0,0.0,0.0,0.0,0.0,0.0,0.0,0.0,0.0,0.0,0.0,0.0,0.0,0.0,0.0,0.0,0.0,0.0,0.0,0.0,0.0,0.0,0.0,0.0,0.0,0.0,0.0,0.0,0.0,0.0,0.0,0.0,0.0,0.0,-4.2054,-4.4321,-4.6513,0.0,-4.8909,-4.8574,-4.7776,-4.6735,-4.4822,-4.1776,0.0,0.0,0.0,0.0,0.0,0.0,0.0,0.0,0.0,0.0,0.0,0.0,0.0,0.0,0.0,0.0,0.0,0.0,0.0,0.0,0.0,0.0,0.0,0.0,0.0,0.0,0.0,0.0,0.0,0.0,0.0,0.0,0.0,0.0,0.0,0.0,0.0,0.0,0.0,0.0,0.0,0.0,0.0,0.0,0.0,0.0,0.0,0.0,0.0,0.0,0.0,0.0,0.0,0.0,0.0,0.0,0.0,0.0,0.0,0.0,0.0,0.0,0.0,0.0,0.0,0.0,0.0,0.0,0.0,0.0,0.0,0.0,0.0,0.0,0.0,0.0,0.0,0.0,0.0,0.0,0.0,0.0,0.0,0.0,0.0,0.0,0.0,0.0,0.0,0.0,0.0,0.0,0.0,0.0,0.0,0.0,0.0,0.0,0.0,0.0,0.0,0.0,-4.1367,-4.4469,-4.7125,-4.8723,-4.8909,-4.8574,-4.7757,-4.6234,-4.4228,0.0,0.0,0.0,0.0,0.0,0.0,0.0,0.0,0.0,0.0,0.0,0.0,0.0,0.0,0.0,0.0,0.0,0.0,0.0,0.0,0.0,0.0,0.0,0.0,0.0,0.0,0.0,0.0,0.0,0.0,0.0,0.0,0.0,0.0,0.0,0.0,0.0,0.0,0.0,0.0,0.0,0.0,0.0,0.0,0.0,0.0,0.0,0.0,0.0,0.0,0.0,0.0,0.0,0.0,0.0,0.0,0.0,0.0,0.0,0.0,0.0,0.0,0.0,0.0,0.0,0.0,0.0,0.0,0.0,0.0,0.0,0.0,0.0,0.0,0.0,0.0,0.0,0.0,0.0,0.0,0.0,0.0,0.0,0.0,0.0,0.0,0.0,0.0,0.0,0.0,0.0,0.0,0.0,0.0,0.0,0.0,0.0,0.0,0.0,0.0,0.0,0.0,0.0,-4.1311,-4.4469,-4.7125,-4.8723,-4.8909,-4.8333,-4.6977,-4.642,-4.4339,-4.0104,0.0,0.0,0.0,0.0,0.0,0.0,0.0,0.0,0.0,0.0,0.0,0.0,0.0,0.0,0.0,0.0,0.0,0.0,0.0,0.0,0.0,0.0,0.0,0.0,0.0,0.0,0.0,0.0,0.0,0.0,0.0,0.0,0.0,0.0,0.0,0.0,0.0,0.0,0.0,0.0,0.0,0.0,0.0,0.0,0.0,0.0,0.0,0.0,0.0,0.0,0.0,0.0,0.0,0.0,0.0,0.0,0.0,0.0,0.0,0.0,0.0,0.0,0.0,0.0,0.0,0.0,0.0,0.0,0.0,0.0,0.0,0.0,0.0,0.0,0.0,0.0,0.0,0.0,0.0,0.0,0.0,0.0,0.0,0.0,0.0,0.0,0.0,0.0,0.0,0.0,0.0,0.0,0.0,0.0,0.0,0.0,0.0,0.0,0.0,0.0,0.0,0.0,-4.1274,-4.4469,-4.7125,-4.8723,-4.8909,-4.8259,-4.6643,-4.6494,-4.4376,-3.9417,0.0,0.0,0.0,0.0,0.0,0.0,0.0,0.0,0.0,0.0,0.0,0.0,0.0,0.0,0.0,0.0,0.0,0.0,0.0,0.0,0.0,0.0,0.0,0.0,0.0,0.0,0.0,0.0,0.0,0.0,0.0,0.0,0.0,0.0,0.0,0.0,0.0,0.0,0.0,0.0,0.0,0.0,0.0,0.0,0.0,0.0,0.0,0.0,0.0,0.0,0.0,0.0,0.0,0.0,0.0,0.0,0.0,0.0,0.0,0.0,0.0,0.0,0.0,0.0,0.0,0.0,0.0,0.0,0.0,0.0,0.0,0.0,0.0,0.0,0.0,0.0,0.0,0.0,0.0,0.0,0.0,0.0,0.0,0.0,0.0,0.0,0.0,0.0,0.0,0.0,0.0,0.0,0.0,0.0,0.0,0.0,0.0,0.0,0.0,0.0,0.0,0.0,-4.1256,-4.4469,-4.7125,-4.8723,-4.8909,-4.8259,-4.6643,-4.6494,-4.4413,-3.9528,0.0,0.0,0.0,0.0,0.0,0.0,0.0,0.0,0.0,0.0,0.0,0.0,0.0,0.0,0.0,0.0,0.0,0.0,0.0,0.0,0.0,0.0,0.0,0.0,0.0,0.0,0.0,0.0,0.0,0.0,0.0,0.0,0.0,0.0,0.0,0.0,0.0,0.0,0.0,0.0,0.0,0.0,0.0,0.0,0.0,0.0,0.0,0.0,0.0,0.0,0.0,0.0,0.0,0.0,0.0,0.0,0.0,0.0,0.0,0.0,-4.1516,0.0,0.0,0.0,0.0,0.0,0.0,0.0,0.0,0.0,0.0,0.0,0.0,0.0,0.0,0.0,0.0,0.0,0.0,0.0,0.0,0.0,0.0,0.0,0.0,0.0,0.0,0.0,0.0,0.0,0.0,0.0,0.0,0.0,0.0,0.0,0.0,0.0,0.0,0.0,0.0,0.0,-4.12,-4.4469,-4.7125,-4.8723,-4.8909,-4.8259,-4.6643,-4.6494,-4.4674,-4.0383,-3.8711,0.0,0.0,0.0,0.0,0.0,0.0,0.0,0.0,0.0,0.0,0.0,0.0,0.0,0.0,0.0,0.0,0.0,0.0,0.0,0.0,0.0,0.0,0.0,0.0,0.0,0.0,0.0,0.0,0.0,0.0,0.0,0.0,0.0,0.0,0.0,0.0,0.0,0.0,0.0,0.0,0.0,0.0,0.0,0.0,0.0,0.0,0.0,0.0,0.0,0.0,0.0,0.0,0.0,0.0,0.0,0.0,0.0,0.0,0.0,0.0,-4.2983,0.0,0.0,0.0,0.0,0.0,0.0,0.0,0.0,0.0,0.0,0.0,0.0,0.0,0.0,0.0,0.0,0.0,0.0,0.0,0.0,0.0,0.0,0.0,0.0,0.0,0.0,0.0,0.0,0.0,0.0,0.0,0.0,0.0,0.0,0.0,0.0,0.0,0.0,0.0,0.0,-4.1181,-4.4469,-4.7125,-4.8723,-4.8909,-4.8259,-4.6643,-4.6494,-4.4915,-4.12,-3.9398,0.0,0.0,0.0,0.0,0.0,0.0,0.0,0.0,0.0,0.0,0.0,0.0,0.0,0.0,0.0,0.0,0.0,0.0,0.0,0.0,0.0,0.0,0.0,0.0,0.0,0.0,0.0,0.0,0.0,0.0,0.0,0.0,0.0,0.0,0.0,0.0,0.0,0.0,0.0,0.0,0.0,0.0,0.0,0.0,0.0,0.0,0.0,0.0,0.0,0.0,0.0,0.0,0.0,-4.655,-4.7014,-4.6382,-4.7051,-4.772,-4.8277,-4.694,-4.6122,-4.5639,-4.4636,0.0,0.0,0.0,0.0,0.0,0.0,0.0,0.0,0.0,0.0,0.0,0.0,0.0,0.0,0.0,0.0,0.0,0.0,0.0,0.0,0.0,0.0,0.0,0.0,-4.2779,-4.3299,0.0,0.0,0.0,0.0,0.0,0.0,0.0,0.0,0.0,0.0,0.0,0.0,-4.1386,-4.4544,-4.7125,-4.8723,-4.8779,-4.8091,-4.6624,-4.6364,-4.5008,-4.1999,-4.0383,-3.8135,0.0,0.0,0.0,0.0,0.0,0.0,0.0,0.0,0.0,0.0,0.0,0.0,0.0,0.0,0.0,0.0,0.0,0.0,0.0,0.0,0.0,0.0,0.0,0.0,0.0,0.0,0.0,0.0,0.0,0.0,0.0,0.0,-3.9574,-4.0834,0.0,0.0,0.0,0.0,0.0,0.0,0.0,0.0,0.0,0.0,0.0,0.0,0.0,-4.5252,-4.5119,-4.7501,-4.8533,-4.8277,-4.9949,-5.0692,-5.0599,-5.0711,-5.0803,-5.0896,-5.0692,0.0,-4.7274,-4.5751,0.0,0.0,0.0,0.0,0.0,0.0,0.0,0.0,0.0,0.0,0.0,0.0,0.0,0.0,0.0,0.0,0.0,0.0,0.0,0.0,0.0,0.0,-4.6513,-4.5008,-4.4896,-4.4971,0.0,-4.1479,-3.8432,-3.6705,-3.5293,0.0,0.0,0.0,0.0,0.0,0.0,0.0,-4.2222,-4.4896,-4.7125,-4.8723,-4.8277,-4.7497,-4.6587,-4.5862,-4.4636,-4.276,-4.1776,-4.0104,-3.7522,-3.5126,0.0,0.0,0.0,0.0,0.0,0.0,0.0,0.0,0.0,0.0,0.0,0.0,0.0,0.0,0.0,0.0,0.0,0.0,0.0,0.0,0.0,0.0,0.0,0.0,0.0,0.0,0.0,0.0,0.0,-3.8989,-4.0467,-4.1206,-4.1538,-4.1425,0.0,0.0,0.0,0.0,0.0,0.0,0.0,0.0,0.0,-4.6768,-4.7613,-4.8352,-4.8945,-5.0175,-5.064,-5.032,-5.1509,-5.2067,-5.2067,-5.2067,-5.2327,-5.2698,-5.1788,-5.1045,-5.0302,-4.8184,-4.6568,-4.5324,0.0,0.0,0.0,0.0,-4.3578,-4.367,-4.5064,-4.5249,0.0,-4.4339,0.0,0.0,0.0,0.0,0.0,0.0,0.0,0.0,0.0,0.0,-4.6958,-4.6717,-4.6995,-4.72,-4.6754,-4.4859,-4.25,0.0,-3.8488,-3.6983,-3.4785,0.0,0.0,0.0,0.0,-3.9751,-4.3058,-4.5249,-4.694,-4.8091,-4.7906,-4.7181,-4.5918,-4.5491,-4.4785,-4.3559,-4.2723,-4.1571,-4.003,-3.7596,-3.5349,0.0,0.0,0.0,0.0,0.0,0.0,0.0,0.0,0.0,0.0,0.0,0.0,0.0,0.0,0.0,0.0,0.0,0.0,0.0,0.0,0.0,0.0,0.0,0.0,0.0,0.0,0.0,0.0,-4.0466,-4.1422,-4.1852,-4.2848,-4.2992,0.0,0.0,0.0,0.0,0.0,0.0,-4.5921,-4.7177,-4.8452,-4.9632,-5.0501,-5.1366,-5.2244,-5.2507,-5.2461,-5.2138,-5.2661,-5.2921,-5.2921,-5.2921,-5.3237,-5.3738,-5.2531,-5.2345,-5.2717,-5.0228,-4.85,-4.7348,-4.6531,-4.5695,-4.5045,-4.59,-4.5807,-4.5547,-4.7608,-4.7794,-4.7051,-4.6661,0.0,-4.4042,-4.2365,0.0,0.0,0.0,0.0,-4.4712,-4.5595,-4.6463,-4.724,-4.7834,-4.8446,-4.8742,-4.8147,-4.7367,-4.5955,0.0,-4.152,-3.9918,-3.744,0.0,0.0,0.0,0.0,-4.107,-4.3968,-4.5602,-4.681,-4.7608,-4.733,-4.6605,-4.5398,-4.5101,-4.4692,-4.4042,-4.3448,-4.2742,-4.1943,-3.9937,-3.7968,-3.616,0.0,0.0,0.0,0.0,0.0,0.0,0.0,0.0,0.0,0.0,0.0,0.0,0.0,0.0,0.0,0.0,0.0,0.0,0.0,0.0,0.0,0.0,0.0,0.0,0.0,0.0,0.0,0.0,0.0,-4.3735,-4.4636,0.0,0.0,0.0,0.0,-4.4735,-4.7224,-4.8742,-4.878,-5.1128,-5.2511,-5.2587,-5.3371,-5.3689,-5.3518,-5.4265,-5.4494,-5.4149,-5.387,-5.3738,-5.3738,-5.3738,-5.3775,-5.3813,-5.372,-5.3701,-5.3553,-5.1063,-4.9986,-4.9837,-4.9039,-4.824,-4.7608,-4.8426,-4.8686,-4.8779,-4.967,-4.9447,-4.8909,-4.9633,-4.7757,-4.5342,-4.5992,-4.4517,0.0,0.0,-4.548,-4.6261,-4.709,-4.7993,-4.8693,-4.8749,-4.882,-4.889,-4.8853,-4.8203,-4.7092,0.0,-4.3089,-4.1464,-4.1152,0.0,-3.9194,-4.0044,-4.1553,-4.3243,-4.5008,-4.5974,-4.681,-4.7608,-4.6327,-4.5379,-4.5305,-4.4544,-4.4042,-4.4005,-4.3968,-4.3578,-4.276,-4.1887,-4.0271,-3.7819,-3.533,0.0,0.0,0.0,0.0,0.0,0.0,0.0,0.0,0.0,0.0,0.0,0.0,0.0,0.0,0.0,0.0,0.0,0.0,0.0,0.0,0.0,0.0,0.0,0.0,0.0,0.0,0.0,0.0,-4.6127,-4.7107,0.0,-4.6932,-4.7509,-4.8035,-4.8354,-4.9931,-5.1111,-5.1668,-5.3097,-5.3884,-5.3884,-5.4671,-5.4977,-5.4699,-5.4757,-5.4639,-5.4298,-5.3963,-5.3813,-5.3813,-5.3813,-5.3813,-5.3813,-5.3813,-5.3813,-5.3738,-5.2847,-5.2178,-5.1639,-5.0822,-5.0339,-5.0116,-5.0395,-5.0506,-5.0543,-5.0841,-5.0376,-4.9559,-4.8797,-4.7776,-4.6791,-4.6568,-4.6236,-4.6036,-4.6611,-4.7338,-4.7989,-4.8233,-4.8547,-4.8787,-4.8697,-4.8696,-4.8714,-4.8714,-4.8473,-4.8068,-4.7425,-4.5492,-4.3801,-4.3178,-4.2634,-4.2352,-4.2667,-4.367,-4.4989,-4.6624,-4.6643,-4.6605,-4.6903,-4.5955,-4.5064,-4.4506,-4.4143,-4.3945,-4.3945,-4.3899,-4.3529,-4.2777,-4.1961,-4.0622,-3.8711,-3.6745,-3.4272,0.0,0.0,0.0,0.0,0.0,0.0,0.0,0.0,0.0,0.0,0.0,0.0,0.0,0.0,0.0,0.0,0.0,0.0,0.0,0.0,0.0,0.0,0.0,0.0,0.0,0.0,-4.5314,-4.7462,-4.8749,-4.941,-4.92,-5.0177,-5.0945,-5.1245,-5.2218,-5.3029,-5.3606,-5.4434,-5.4895,-5.4895,-5.5393,-5.5585,-5.5401,-5.4981,-5.4654,-5.443,-5.3999,-5.3813,-5.3813,-5.3813,-5.3813,-5.3813,-5.3793,-5.3774,-5.3774,-5.3716,-5.3363,-5.2863,-5.2382,-5.2048,-5.1844,-5.2104,-5.2048,-5.1769,-5.1491,-5.0804,-4.984,-4.8504,-4.8041,-4.7913,-4.7375,-4.7563,-4.7972,-4.7972,-4.8307,-4.8678,-4.8642,-4.8661,-4.8679,-4.8587,-4.8569,-4.8605,-4.8605,-4.8605,-4.8587,-4.8532,-4.7162,-4.5819,-4.523,-4.4913,-4.4744,-4.4744,-4.5449,-4.6392,-4.7468,-4.6911,-4.6411,-4.6411,-4.5447,-4.4557,-4.4013,-4.3672,-4.3474,-4.3521,-4.3185,-4.2654,-4.1915,-4.1359,-4.03,-3.866,-3.7012,-3.4936,-3.247,0.0,0.0,0.0,0.0,0.0,0.0,0.0,0.0,0.0,0.0,0.0,0.0,0.0,0.0,0.0,0.0,0.0,0.0,0.0,0.0,0.0,0.0,0.0,-4.2138,-4.4774,-4.6828,-4.7701,-4.9487,-5.079,-5.1187,-5.2222,-5.2981,-5.3259,-5.4068,-5.453,-5.453,-5.5261,-5.5703,-5.5703,-5.5629,-5.5596,-5.5585,-5.4976,-5.4685,-5.467,-5.4072,-5.3793,-5.3793,-5.3793,-5.3793,-5.3793,-5.3734,-5.3675,-5.3675,-5.3539,-5.3499,-5.3519,-5.3698,-5.3311,-5.2716,-5.3496,-5.3274,-5.2475,-5.1658,-5.0768,-4.9861,-4.9065,-4.8715,-4.8605,-4.8605,-4.855,-4.8494,-4.8494,-4.8401,-4.8306,-4.8306,-4.8401,-4.8513,-4.8476,-4.855,-4.8587,-4.8587,-4.8587,-4.8587,-4.8587,-4.7959,-4.7406,-4.7334,-4.6744,-4.6262,-4.6262,-4.6943,0.0,-4.7424,-4.674,-4.6223,-4.6205,-4.4783,-4.3855,-4.3899,-4.3111,-4.2628,-4.2745,-4.1866,-4.1024,-4.0281,-4.0193,-3.939,-3.7775,-3.6159,-3.4895,-3.4033,0.0,0.0,0.0,0.0,0.0,0.0,0.0,0.0,0.0,0.0,0.0,0.0,0.0,0.0,0.0,0.0,0.0,0.0,0.0,0.0,0.0,-4.1107,-4.3287,-4.4707,-4.5828,-4.746,-5.0079,-5.1039,-5.209,-5.3621,-5.4291,-5.4724,-5.5,-5.5222,-5.5376,-5.5376,-5.5536,-5.564,-5.5703,-5.5585,-5.543,-5.5244,-5.4779,-5.4441,-5.4192,-5.3776,-5.358,-5.358,-5.358,-5.358,-5.3579,-5.3559,-5.3539,-5.3539,-5.3519,-5.3499,-5.3519,-5.3559,-5.3451,-5.3284,-5.3487,-5.3081,-5.2285,-5.1452,-5.0638,-4.9788,-4.8937,-4.8642,-4.8605,-4.8605,-4.8605,-4.8569,-4.8569,-4.855,-4.8513,-4.8457,-4.8457,-4.8494,-4.8382,-4.8363,-4.8382,-4.8382,-4.8382,-4.8382,-4.8382,-4.8198,-4.8089,-4.8218,-4.807,-4.7941,-4.7941,-4.8125,0.0,-4.8273,-4.7571,-4.6851,-4.626,-4.5281,-4.4432,-4.3874,-4.2996,-4.2226,-4.1667,-4.0796,-3.9989,-3.9235,-3.9198,-3.8962,-3.8505,-3.6924,-3.563,0.0,0.0,0.0,0.0,0.0,0.0,0.0,0.0,0.0,0.0,0.0,0.0,0.0,0.0,0.0,0.0,0.0,0.0,0.0,0.0,0.0,0.0,-4.3176,-4.5201,-4.6927,-4.7358,-4.8463,-5.1082,-5.1771,-5.2738,-5.4606,-5.5198,-5.552,-5.5692,-5.5703,-5.5703,-5.5703,-5.5649,-5.5618,-5.5671,-5.5382,-5.5185,-5.5012,-5.4503,-5.4157,-5.3944,-5.364,-5.3499,-5.3499,-5.3499,-5.3499,0.0,-5.344,-5.342,-5.34,-5.3378,-5.3357,0.0,0.0,0.0,0.0,0.0,-5.2484,-5.1671,-5.0877,-5.0027,-4.9233,-4.8716,-4.8513,-4.8458,-4.8458,-4.8458,-4.8458,-4.8458,-4.8458,-4.8476,-4.842,-4.8419,-4.84,-4.8306,-4.8306,-4.8306,-4.8306,-4.8306,-4.8306,-4.8306,-4.8306,0.0,-4.8439,-4.8458,-4.8458,-4.8458,-4.8458,-4.8458,-4.8458,-4.7758,-4.7095,-4.6634,-4.5566,-4.4699,-4.4254,-4.3082,0.0,0.0,0.0,-3.9415,-3.8332,-3.7934,0.0,0.0,0.0,0.0,0.0,0.0,0.0,0.0,-3.5345,-3.506,0.0,0.0,0.0,0.0,0.0,0.0,0.0,0.0,0.0,0.0,0.0,0.0,0.0,0.0,0.0,0.0,-4.4898,-4.628,-4.8692,-4.9039,-4.9615,-5.1212,-5.2024,-5.3058,-5.4655,-5.5357,-5.5703,-5.5692,-5.5703,-5.5684,-5.5692,0.0,0.0,0.0,0.0,-5.4861,-5.4769,-5.4174,-5.387,-5.3814,-5.358,-5.3459,-5.3459,-5.3459,-5.3459,-5.3459,-5.3339,-5.3297,-5.3277,-5.3209,-5.3185,-5.3206,-5.3396,-5.3459,-5.3367,-5.2555,-5.1761,-5.0949,-5.0138,0.0,0.0,-4.8494,-4.84,-4.8306,-4.8306,-4.8306,-4.8306,-4.8306,-4.8306,-4.8306,-4.8306,-4.8306,-4.8306,-4.8306,-4.8306,-4.8306,-4.8306,-4.8306,-4.8306,-4.8306,-4.8306,-4.8306,-4.8306,-4.8306,-4.8306,-4.8306,-4.8306,-4.8306,-4.8306,-4.7681,-4.7204,-4.7113,0.0,0.0,-4.4925,-4.3385,-4.2132,-4.1464,-4.0473,-3.9289,-3.7912,-3.721,-3.7195,-3.7985,-3.8646,-3.9331,-4.0029,-4.0763,-4.115,-4.1132,-3.6688,-3.6193,0.0,0.0,0.0,0.0,0.0,0.0,0.0,0.0,0.0,0.0,0.0,0.0,0.0,0.0,0.0,-4.4616,-4.5693,-4.7082,-4.9582,-4.9893,-5.0246,-5.1286,-5.2551,-5.3741,-5.4712,-5.5357,-5.5682,-5.5618,-5.5662,-5.564,-5.5539,-5.5527,-5.5413,-5.5107,-5.4919,-5.4554,-5.4013,-5.3833,-5.3602,-5.3334,0.0,0.0,-5.3269,-5.3269,-5.3269,-5.3269,-5.3227,-5.3227,-5.3227,-5.3206,-5.3185,-5.3206,-5.3248,-5.3269,-5.3159,-5.2351,-5.1542,-5.0734,-4.9945,-4.908,-4.8343,-4.8343,-4.8306,-4.8306,-4.8306,-4.8306,0.0,-4.8306,-4.8306,-4.8306,-4.8306,-4.8306,-4.8306,-4.8306,-4.8306,-4.8306,-4.8306,-4.8306,-4.8306,-4.8306,-4.8306,-4.8306,-4.8306,-4.8306,-4.8306,-4.8306,-4.8306,-4.8306,-4.8306,-4.8159,-4.781,-4.7168,-4.6819,-4.6379,-4.5736,-4.4194,-4.2927,-4.2152,-4.0705,-3.9769,-3.9473,-3.9918,-4.0249,-4.043,-4.0561,-4.071,-4.0873,-4.1022,-4.1425,-4.2029,-4.0432,-4.0031,0.0,0.0,0.0,0.0,0.0,0.0,0.0,0.0,0.0,0.0,0.0,-3.9956,-4.1858,0.0,-4.3843,-4.6099,-4.7308,-4.8467,-4.9952,-5.0841,-5.1509,-5.1955,-5.2801,-5.3732,-5.4701,-5.5185,-5.5485,-5.5585,-5.5596,-5.5497,-5.5263,-5.5211,-5.5045,-5.4724,-5.4409,-5.4086,-5.3739,-5.3545,-5.3378,-5.3185,-5.3185,-5.3185,-5.3185,-5.3185,-5.3185,-5.3185,-5.3185,-5.3185,-5.3185,-5.3185,-5.3185,-5.3185,-5.3185,-5.3185,-5.3059,-5.1848,-5.1151,-5.0618,-4.937,-4.8655,-4.8306,-4.8306,-4.8306,-4.8306,-4.8306,-4.8306,-4.8306,-4.8306,-4.8306,-4.8306,-4.8306,-4.8306,-4.8306,-4.8306,-4.8306,-4.8306,-4.8306,-4.8306,-4.8306,-4.8306,-4.8306,-4.8306,-4.8306,-4.8306,-4.8306,-4.8306,-4.8306,-4.8306,-4.8306,-4.8306,-4.8159,-4.7736,-4.7333,-4.6929,-4.6544,-4.5039,-4.3938,-4.3534,-4.2359,-4.1715,-4.1715,-4.2084,-4.2304,-4.2304,-4.2691,-4.2893,-4.2893,-4.3314,-4.3718,-4.4085,-4.3699,-4.3296,0.0,0.0,0.0,0.0,0.0,0.0,0.0,0.0,-3.6861,-3.9446,-4.0552,-4.1719,-4.3939,-4.4627,-4.5525,-4.7509,-4.8682,-4.9649,-5.0471,-5.1751,-5.2642,-5.2791,-5.3118,-5.3715,-5.4689,-5.5028,-5.5288,-5.5539,-5.5527,-5.5345,-5.4971,-5.4933,-5.4693,-5.4294,-5.3907,-5.3662,-5.3603,-5.3336,-5.3185,-5.3185,-5.3185,-5.3185,-5.3185,-5.3185,-5.3185,-5.3185,-5.3185,-5.3185,-5.3185,-5.3185,-5.3185,-5.3185,-5.3185,-5.3093,-5.2803,-5.1353,-5.0802,-5.0563,-4.8893,-4.8306,-4.8306,-4.8306,-4.8306,-4.8306,-4.8306,-4.8306,-4.8306,-4.8306,-4.8306,-4.8306,-4.8306,-4.8306,-4.8306,-4.8306,-4.8306,-4.8306,-4.8306,-4.8306,-4.8306,-4.8306,-4.8306,-4.8306,-4.8306,-4.8306,-4.8306,-4.8306,-4.8306,-4.8306,-4.8306,-4.8306,-4.8306,-4.8306,-4.7718,-4.7278,-4.7113,-4.5902,-4.5095,-4.4947,-4.4323,-4.3974,-4.3974,-4.3974,-4.3974,-4.3974,-4.4599,-4.4947,-4.4947,-4.5571,-4.5902,-4.5902,-4.6067,-4.57,-3.1965,-3.1719,-3.2071,-3.4368,-3.5161,-3.6153,0.0,0.0,-4.1475,-4.3749,-4.4534,-4.5026,-4.5782,-4.5884,-4.6453,-4.8349,-4.8799,-4.9677,-5.2011,-5.2475,-5.2846,-5.3492,-5.3941,-5.4303,-5.4685,-5.5,-5.5249,-5.542,-5.5468,-5.5295,-5.4851,-5.4861,-5.4569,-5.3796,-5.3739,-5.3563,-5.3251,-5.3227,-5.3185,-5.3185,-5.3185,-5.3185,-5.3185,-5.3185,-5.3185,-5.3185,-5.3185,-5.3185,-5.3185,-5.3185,-5.3185,-5.3185,-5.3185,-5.2766,-5.2032,-5.1132,-5.0802,-5.0563,-4.8893,-4.8306,-4.8306,-4.8306,-4.8306,-4.8306,-4.8306,-4.8306,-4.8306,-4.8306,-4.8306,-4.8306,-4.8306,-4.8306,-4.8306,-4.8306,-4.8306,-4.8306,-4.8306,-4.8306,-4.8306,-4.8306,-4.8306,-4.8306,-4.8306,-4.8306,-4.8306,-4.8306,-4.8306,-4.8306,-4.8306,-4.8306,-4.8306,-4.8306,-4.8233,-4.7865,-4.7168,-4.6947,-4.6526,-4.581,-4.5681,-4.5626,-4.5626,-4.5626,-4.5626,-4.5626,-4.5718,-4.5773,-4.5773,-4.5865,-4.5902,-4.592,-4.6617,-4.6526,-3.4165,-3.4424,-3.4889,0.0,-3.6999,-3.7814,-3.9539,-4.0521,-4.1654,-4.3776,-4.4739,-4.5407,-4.5972,-4.6259,-4.6903,0.0,-4.9237,-5.0323,-5.2173,-5.2842,-5.3248,-5.3561,-5.3718,-5.4034,-5.4522,-5.4884,-5.5176,-5.5383,-5.5204,-5.4924,-5.4528,-5.4309,-5.3961,-5.344,-5.342,-5.3336,-5.3206,-5.3185,-5.3185,-5.3185,-5.3185,-5.3185,-5.3185,-5.3185,-5.3185,-5.3185,-5.3185,-5.3185,-5.3185,-5.3185,-5.3185,-5.3185,-5.3185,-5.2711,-5.1885,-5.1096,-5.0508,-4.9921,-4.8728,-4.8306,-4.8306,-4.8306,-4.8306,-4.8306,-4.8306,-4.8306,-4.8306,-4.8306,-4.8306,-4.8306,-4.8306,-4.8306,-4.8306,-4.8306,-4.8306,-4.8306,-4.8306,-4.8306,-4.8306,-4.8306,-4.8306,-4.8306,-4.8306,-4.8306,-4.8306,-4.8306,-4.8306,-4.8306,-4.8306,-4.8306,-4.8306,-4.8306,-4.8306,-4.8159,-4.7828,-4.7791,-4.7664,-4.7315,-4.7297,-4.7297,-4.7297,-4.7297,-4.7297,-4.7297,-4.7297,-4.7297,-4.7297,-4.7297,-4.7297,-4.7297,-4.7626,-4.7627,-3.5369,0.0,0.0,-3.7457,-3.8286,-3.8996,-3.9754,-4.0537,-4.1621,-4.3456,-4.4333,-4.5028,-4.5803,-4.6186,-4.6903,-4.8424,-4.9499,-5.0654,-5.2187,-5.3031,-5.3499,-5.344,-5.3541,-5.3776,-5.424,-5.4544,-5.481,-5.5083,-5.4836,-5.4511,-5.4158,-5.387,-5.3563,-5.3206,-5.3185,-5.3185,-5.3185,-5.3185,-5.3185,-5.3185,-5.3185,-5.3185,-5.3185,-5.3185,-5.3185,-5.3185,-5.3185,-5.3185,-5.3185,-5.3185,-5.3185,-5.3167,-5.2968,-5.238,-5.1555,-5.0765,-5.0086,-4.9482,-4.86,-4.8306,-4.8306,-4.8306,-4.8306,-4.8306,-4.8306,-4.8306,-4.8306,-4.8306,-4.8306,-4.8306,-4.8306,-4.8306,-4.8306,-4.8306,-4.8306,-4.8306,-4.8306,-4.8306,-4.8306,-4.8306,-4.8306,-4.8306,-4.8306,-4.8306,-4.8306,-4.8306,-4.8306,-4.8306,-4.8306,-4.8306,-4.8306,-4.8306,-4.8306,-4.8306,-4.8306,-4.8306,-4.8306,-4.8306,-4.8306,-4.8306,-4.8306,-4.8306,-4.8306,-4.8306,-4.8306,-4.8306,-4.8306,-4.8306,-4.8306,-4.8306,-4.8306,-4.8306,0.0,0.0,-3.4803,-3.7743,-3.8981,-3.9755,-4.0799,-4.1581,-4.2474,-4.3893,-4.41,-4.4384,-4.5572,-4.5718,-4.6342,-4.8523,-4.937,-5.0412,-5.2419,-5.3159,-5.344,-5.3318,-5.3641,-5.3833,0.0,-5.3851,-5.4035,-5.4313,-5.4313,-5.4141,-5.3739,-5.372,-5.3563,-5.3206,-5.3185,-5.3185,-5.3185,-5.3185,-5.3185,-5.3185,-5.3185,-5.3185,-5.3185,-5.3185,-5.3185,-5.3185,-5.3185,-5.3185,-5.3185,-5.3185,-5.3185,-5.3112,-5.2344,-5.1536,-5.0747,-4.9941,-4.9629,-4.9482,-4.86,-4.8306,-4.8306,-4.8306,-4.8306,-4.8306,-4.8306,-4.8306,-4.8306,-4.8306,-4.8306,-4.8306,-4.8306,-4.8306,-4.8306,-4.8306,-4.8306,-4.8306,-4.8306,-4.8306,-4.8306,-4.8306,-4.8306,-4.8306,-4.8306,-4.8306,-4.8306,-4.8306,-4.8306,-4.8306,-4.8306,-4.8306,-4.8306,-4.8306,-4.8306,-4.8306,-4.8306,-4.8306,-4.8306,-4.8306,-4.8306,-4.8306,-4.8306,-4.8306,-4.8306,-4.8306,-4.8306,-4.8306,-4.8306,-4.8306,-4.8306,-4.8306,-4.8306,-4.8306,-3.6051,0.0,-3.8122,-4.0071,-4.0719,-4.0989,-4.1356,-4.1611,-4.2029,-4.2956,-4.3482,-4.4066,-4.491,-4.5363,-4.6282,-4.8426,-4.8848,-4.975,-5.2177,-5.2662,-5.2897,-5.3209,-5.3357,0.0,0.0,0.0,0.0,-5.4279,-5.4052,-5.3851,-5.372,-5.3502,-5.3316,-5.3206,-5.3185,-5.3185,-5.3185,-5.3185,-5.3185,-5.3185,-5.3185,-5.3185,-5.3185,-5.3185,-5.3185,-5.3185,-5.3185,-5.3185,-5.3185,-5.3185,-5.2894,-5.238,-5.2105,-5.1169,-4.9978,-4.9702,-4.9224,-4.8691,-4.8398,-4.8306,-4.8306,-4.8306,-4.8306,-4.8306,-4.8306,-4.8306,-4.8306,-4.8306,-4.8306,-4.8306,-4.8306,-4.8306,-4.8306,-4.8306,-4.8306,-4.8306,-4.8306,-4.8306,-4.8306,-4.8306,-4.8306,-4.8306,-4.8306,-4.8306,-4.8306,-4.8306,-4.8306,-4.8306,-4.8306,-4.8306,-4.8306,-4.8306,-4.8306,-4.8306,-4.8306,-4.8306,-4.8306,-4.8306,-4.8306,-4.8306,-4.8306,-4.8306,-4.8306,-4.8306,-4.8306,-4.8306,-4.8306,-4.8306,-4.8306,-4.8306,-4.8306,-4.8306,-3.7208,-3.8509,-3.966,-4.1208,-4.1588,-4.1588,-4.1588,-4.1588,-4.1802,-4.2459,-4.3152,-4.3818,-4.4496,-4.5123,-4.6144,-4.805,-4.8434,-4.9346,-5.1754,-5.2291,-5.2608,-5.3143,-5.3185,-5.3185,0.0,0.0,0.0,-5.3926,-5.368,-5.3524,-5.3524,-5.3316,-5.3185,-5.3185,-5.3185,-5.3185,-5.3185,-5.3185,-5.3185,-5.3185,-5.3185,-5.3185,-5.3185,-5.3185,-5.3185,-5.3185,-5.3185,-5.3041,-5.2766,-5.2766,-5.2307,-5.1536,-5.1242,-5.051,-4.9555,-4.9262,-4.8783,-4.8306,-4.8306,-4.8306,-4.8306,-4.8306,-4.8306,-4.8306,-4.8306,-4.8306,-4.8306,-4.8306,-4.8306,-4.8306,-4.8306,-4.8306,-4.8306,-4.8306,-4.8306,-4.8306,-4.8306,-4.8306,-4.8306,-4.8306,-4.8306,-4.8306,-4.8306,-4.8306,-4.8306,-4.8306,-4.8306,-4.8306,-4.8306,-4.8306,-4.8306,-4.8306,-4.8306,-4.8306,-4.8306,-4.8306,-4.8306,-4.8306,-4.8306,-4.8306,-4.8306,-4.8306,-4.8306,-4.8306,-4.8306,-4.8306,-4.8306,-4.8306,-4.8306,-4.8306,-4.8306,-4.8306,-3.8114,-3.896,-3.9448,-4.1158,-4.1588,-4.1588,-4.1588,-4.1588,-4.1769,-4.238,-4.2982,-4.3639,0.0,0.0,-4.5845,-4.7379,-4.8092,-4.9193,-5.1312,-5.2036,-5.2563,0.0,0.0,0.0,0.0,0.0,0.0,-5.3185,0.0,-5.3185,-5.3185,-5.3185,-5.3185,-5.3185,-5.3185,-5.3185,-5.3185,-5.3185,-5.3185,-5.3185,-5.3185,-5.3185,-5.3185,-5.3185,-5.3185,-5.3185,-5.317,-5.2711,-5.1995,-5.1958,-5.1463,-5.0655,-4.9904,-4.9574,-4.9445,-4.86,-4.8306,-4.8306,-4.8306,-4.8306,-4.8306,-4.8306,-4.8306,-4.8306,-4.8306,-4.8306,-4.8306,-4.8306,-4.8306,-4.8306,-4.8306,-4.8306,-4.8306,-4.8306,-4.8306,-4.8306,-4.8306,-4.8306,-4.8287,-4.8267,-4.823,-4.823,-4.8287,-4.8287,-4.8267,-4.8287,-4.8306,-4.8306,-4.8306,-4.8306,-4.8306,-4.8306,-4.8306,-4.8306,-4.8306,-4.8306,-4.8306,-4.8306,-4.8306,-4.8306,-4.8306,-4.8306,-4.8306,-4.8306,-4.8306,-4.8306,-4.8306,-4.8306,-4.8306,-4.8306,-4.8306,-4.8306,-3.8549,-3.9874,-4.1015,-4.1494,-4.1588,-4.1588,-4.1588,-4.1588,-4.1512,-4.1167,-4.1945,-4.2564,0.0,0.0,0.0,-4.6631,-4.7447,0.0,-5.1261,-5.1719,0.0,-5.3082,0.0,-5.3185,-5.3185,-5.3185,0.0,0.0,-5.3185,-5.3185,-5.3185,-5.3185,-5.3185,-5.3185,-5.3185,-5.3185,-5.3185,-5.3185,-5.3185,-5.3185,-5.3185,-5.3185,-5.3185,-5.3185,-5.3185,-5.3167,-5.2564,-5.2179,-5.194,-5.1353,-5.0618,-4.9904,-4.9684,-4.9187,-4.86,-4.8379,-4.8306,-4.8306,-4.8306,-4.8306,-4.8306,-4.8306,-4.8306,-4.8306,-4.8306,-4.8306,-4.8306,-4.8306,-4.8306,-4.8306,-4.8306,-4.8306,-4.8306,-4.8306,-4.8306,-4.8306,-4.8306,-4.8306,-4.8191,-4.7836,-4.7503,-4.7482,-4.8172,-4.8015,-4.7897,-4.8248,-4.8306,-4.8306,-4.8306,-4.8306,-4.8306,-4.8306,-4.8306,-4.8306,-4.8306,-4.8306,-4.8306,-4.8306,-4.8306,-4.8306,-4.8306,-4.8306,-4.8306,-4.8306,-4.8306,-4.8306,-4.8306,-4.8306,-4.8306,-4.8306,-4.8306,-4.8306,-3.9793,-4.0841,-4.1588,-4.1588,-4.1588,-4.1588,-4.1588,-4.1367,-4.1051,-4.0672,-4.1288,0.0,-4.1375,-4.2935,0.0,0.0,0.0,0.0,-5.0902,-5.1449,-5.1915,0.0,-5.306,0.0,-5.3185,-5.3185,-5.3185,0.0,-5.3185,-5.3185,-5.3185,-5.3185,-5.3185,-5.3185,-5.3185,-5.3185,-5.3185,-5.3185,-5.3185,-5.3185,-5.3185,-5.3082,-5.2846,-5.2846,-5.2717,-5.2463,0.0,-5.1444,-5.1061,-5.0501,-4.9656,-4.8747,-4.8945,-4.8593,-4.8015,-4.821,-4.8306,-4.8306,-4.8306,-4.8306,-4.8306,-4.8306,-4.8306,-4.8306,-4.8306,-4.8306,-4.8306,-4.8306,-4.8306,-4.8306,-4.8306,-4.8306,-4.8248,-4.8035,-4.7995,-4.7935,-4.7733,-4.7692,-4.7609,-4.7335,-4.7071,-4.7066,-4.7588,-4.7482,-4.7378,-4.765,-4.7692,-4.7754,-4.7975,-4.8172,-4.8306,-4.8306,-4.8306,-4.8306,-4.8306,-4.8306,-4.8306,-4.8306,-4.8306,-4.8306,-4.8306,-4.8306,-4.8191,-4.7995,-4.8191,-4.8191,-4.7995,-4.8191,-4.8306,-4.8306,-4.8306,-4.8306,-4.1125,-4.1588,-4.1588,-4.1588,-4.1588,-4.1573,-4.1478,-4.102,-4.0546,-4.0356,0.0,-4.1127,-4.1044,-4.2732,-4.4673,-4.6199,0.0,-4.8429,-5.0511,-5.1262,-5.1817,-5.2338,-5.2868,-5.3185,-5.3185,-5.3185,-5.3185,-5.3185,-5.3185,-5.3185,-5.3185,-5.3185,-5.3185,-5.3185,-5.3185,-5.3185,-5.3185,-5.3185,-5.3164,-5.3082,-5.3082,-5.2806,-5.2291,-5.2291,-5.2036,-5.159,-5.1112,0.0,-4.9963,-4.9515,-4.8652,-4.7632,-4.8035,-4.7917,-4.7569,-4.8035,-4.821,-4.8229,-4.8287,-4.8306,-4.8306,-4.8306,-4.8306,-4.8306,-4.8306,-4.8306,-4.8306,-4.8306,-4.8306,-4.8306,-4.8306,-4.8306,-4.8191,-4.7795,-4.7653,-4.7485,-4.7071,-4.6908,-4.6817,-4.6886,-4.6794,-4.6747,-4.6886,-4.684,-4.684,-4.6886,-4.6908,-4.7066,-4.7464,-4.7935,-4.823,-4.8287,-4.8306,-4.8306,-4.8306,-4.823,-4.823,-4.8287,-4.823,-4.821,-4.821,-4.821,-4.7995,-4.7527,-4.7915,-4.7937,-4.7611,-4.8015,-4.8248,-4.8306,-4.8306,-4.8306,-4.1245,-4.1588,-4.1588,-4.1588,-4.1588,-4.1446,-4.0893,-4.0688,0.0,0.0,-3.9667,-4.0222,-3.9669,-4.1672,-4.3897,-4.5363,-4.6776,-4.8429,0.0,0.0,-5.1817,0.0,0.0,0.0,0.0,0.0,0.0,0.0,0.0,-5.3185,-5.3185,-5.3185,-5.3185,-5.3185,-5.3185,-5.3185,-5.3185,-5.3185,-5.2995,-5.254,-5.254,-5.2268,-5.1743,-5.1743,-5.1694,-5.153,-5.0145,0.0,-4.9886,-4.8508,-4.7801,-4.7611,-4.7674,-4.7442,-4.7071,-4.7548,-4.7715,-4.7775,-4.8172,-4.8306,-4.8306,-4.8306,-4.8306,-4.8306,-4.8306,-4.8306,-4.8306,-4.8306,-4.8306,-4.8306,-4.8306,-4.8306,-4.8287,-4.8191,-4.7877,-4.7591,-4.7506,-4.6868,-4.6435,-4.6817,-4.6242,-4.5938,-4.6747,-4.6578,-4.6459,-4.684,-4.6908,-4.6931,-4.7004,-4.7421,-4.7877,-4.8267,-4.8306,-4.8306,-4.8306,-4.7937,-4.7877,-4.8287,-4.7955,-4.7715,-4.7715,-4.7715,-4.7506,-4.7026,-4.7093,-4.7291,-4.7611,-4.7674,-4.7917,-4.8306,-4.8306,-4.8306,-4.144,-4.1588,-4.1588,-4.1588,-4.1588,-4.1509,-4.1193,0.0,0.0,0.0,-3.9127,-3.933,-3.9681,-4.1073,0.0,-4.5061,-4.6017,-4.7264,0.0,0.0,0.0,0.0,0.0,0.0,0.0,0.0,0.0,0.0,0.0,-5.3185,-5.3185,-5.3185,-5.3185,-5.3185,-5.3185,-5.3185,-5.3185,-5.2912,-5.2654,-5.2384,-5.2108,-5.1701,-5.1184,-5.1184,-5.0955,-5.0562,-4.9652,0.0,-4.8988,-4.8077,-4.7384,-4.689,-4.7138,-4.6936,-4.6584,-4.7071,-4.7399,-4.7591,-4.7588,-4.7733,-4.7915,-4.765,-4.7895,-4.8306,-4.8306,-4.8306,-4.8306,-4.8306,-4.8306,-4.823,-4.7995,-4.8132,-4.8172,-4.7692,-4.7204,-4.6868,-4.6868,-4.6297,-4.5854,-4.607,-4.5727,-4.5563,-4.602,-4.5938,-4.5854,-4.6094,-4.6119,-4.6217,-4.6507,-4.6747,-4.7049,-4.7524,-4.7567,-4.7567,-4.7567,-4.7356,-4.7335,-4.7567,-4.7356,-4.7248,-4.7248,-4.7248,-4.7004,-4.6537,-4.6771,-4.6886,-4.6868,-4.7115,-4.7464,-4.7955,-4.7955,-4.8055,-4.1555,-4.1699,-4.1778,-4.1636,-4.1715,-4.1699,-4.1241,-4.0293,0.0,0.0,-3.8769,-3.882,-3.988,0.0,-4.2211,0.0,-4.5294,0.0,0.0,0.0,0.0,0.0,0.0,0.0,0.0,0.0,0.0,0.0,0.0,0.0,-5.3185,-5.3185,-5.3103,-5.2959,-5.2955,-5.2872,-5.2765,-5.2325,-5.2066,-5.197,-5.1533,-5.1035,-5.053,-5.053,-5.0211,-4.9644,-4.9266,0.0,0.0,-4.7844,-4.7128,-4.6379,-4.6613,-4.6394,-4.6038,-4.6472,-4.6895,-4.719,-4.6959,-4.7115,-4.7399,-4.7022,-4.7417,-4.7995,-4.7995,-4.7995,-4.7995,-4.7995,-4.7995,-4.7915,-4.7548,-4.7733,-4.7775,-4.6954,-4.6459,-4.6161,-4.6038,-4.5693,-4.5397,-4.5397,-4.5397,-4.5397,-4.5397,-4.5397,-4.5397,-4.5397,-4.5397,-4.5537,-4.5963,-4.6013,-4.6186,-4.6537,-4.6771,-4.6908,-4.6908,-4.6817,-4.6794,-4.6886,-4.6794,-4.6747,-4.6747,-4.6747,-4.6513,-4.6038,-4.6387,-4.6489,-4.6339,-4.6724,-4.7138,-4.7611,-4.7695,-4.7897,-4.1456,-4.2078,-4.2426,-4.1762,-4.2094,-4.2078,-4.0135,0.0,0.0,-3.7923,-3.8452,-3.9169,-3.9288,-4.0731,0.0,0.0,0.0,0.0,0.0,0.0,0.0,0.0,0.0,0.0,0.0,0.0,0.0,0.0,0.0,0.0,-5.3164,-5.3082,-5.2769,-5.2224,-5.2143,-5.1855,-5.131,-5.1241,-5.0973,-5.0497,-5.0442,-5.0159,-4.9619,-4.9619,-4.959,-4.9466,-4.8773,0.0,0.0,-4.7596,-4.7009,-4.6862,-4.623,-4.5708,-4.5319,-4.5683,-4.59,-4.6123,-4.6548,-4.684,-4.6954,-4.6908,-4.6954,-4.7044,-4.7044,-4.7044,-4.7044,-4.7044,-4.7044,-4.7022,-4.6976,-4.6999,-4.6908,-4.6387,-4.6235,-4.6062,-4.5589,-4.5423,-4.5397,-4.5397,-4.5397,-4.5397,-4.5397,-4.5397,-4.5397,-4.5397,-4.5397,-4.5423,-4.5476,-4.5459,-4.5502,-4.5537,-4.6363,-4.6908,-4.6908,-4.6507,-4.6435,-4.6863,-4.6507,-4.6242,-4.6242,-4.6242,-4.6013,-4.5485,-4.5528,-4.5963,-4.684,-4.6886,-4.7138,-4.7611,-4.8035,-4.8035,-4.2092,-4.2774,-4.3248,-4.2947,-4.2774,-4.2347,-4.1051,0.0,-3.9234,-3.8302,-3.8147,-3.8529,-3.9643,-4.012,-4.1197,0.0,-4.4173,-4.4872,-4.7165,0.0,0.0,0.0,0.0,0.0,0.0,0.0,0.0,0.0,0.0,0.0,-5.1916,-5.1892,-5.1752,-5.1494,-5.1462,-5.1335,-5.1086,-5.0787,-5.0507,-5.0293,-4.9959,-4.972,-4.9518,-4.9518,-4.9411,-4.9303,-4.9014,0.0,0.0,-4.7402,-4.678,-4.6379,-4.5648,-4.5239,-4.5113,-4.5239,-4.5477,-4.5767,-4.57,-4.591,-4.6123,-4.5935,-4.5877,-4.6003,-4.6683,-4.6908,-4.6908,-4.6908,-4.6908,-4.684,-4.6554,-4.6483,-4.6507,-4.6602,-4.6411,-4.6137,-4.593,-4.5641,-4.5397,-4.5397,-4.5397,-4.5397,-4.5397,-4.5397,-4.5397,-4.5397,-4.5397,-4.5397,-4.5397,-4.5397,-4.5397,-4.5397,-4.5778,-4.6013,-4.6013,-4.5829,-4.5803,-4.5988,-4.5829,-4.5701,-4.5701,-4.5701,-4.5615,-4.5397,-4.5718,-4.6087,-4.6483,-4.6771,-4.7138,-4.7611,-4.7795,-4.7935,-4.2442,-4.32,-4.3687,-4.3687,-4.3358,-4.2679,0.0,-4.0372,-3.925,-3.8381,-3.7945,-3.8203,-3.9688,-3.9698,-4.0421,0.0,-4.3509,-4.3975,-4.6161,-4.6498,0.0,0.0,0.0,0.0,0.0,0.0,0.0,0.0,0.0,0.0,-5.0734,-5.0572,-5.0572,-5.077,-5.0761,-5.0653,-5.049,-5.0107,-4.9913,-4.9913,-4.9543,-4.9367,-4.9367,-4.9367,-4.926,-4.9138,-4.9138,0.0,0.0,-4.7296,-4.6618,-4.597,-4.5231,-4.4923,-4.494,-4.4913,-4.5106,-4.539,-4.5042,-4.5186,-4.5451,-4.523,-4.514,-4.531,-4.6133,-4.6424,-4.6465,-4.6465,-4.6465,-4.637,-4.6038,-4.5963,-4.6038,-4.6387,-4.6193,-4.5963,-4.5963,-4.5667,-4.5397,-4.5397,-4.5397,-4.5397,-4.5397,-4.5397,-4.5397,-4.5397,-4.5397,-4.5397,-4.5397,-4.5397,-4.5397,-4.5397,-4.5397,-4.5397,-4.5397,-4.5397,-4.5397,-4.5397,-4.5397,-4.5397,-4.5397,-4.5397,-4.5397,-4.5397,-4.593,-4.6284,-4.6411,-4.6886,-4.727,-4.7611,-4.7736,-4.7995,-4.2315,-4.32,-4.3687,-4.3687,-4.369,-4.3171,-4.1083,-4.004,-3.9123,-3.7794,-3.7915,-3.849,-3.9098,-3.9636,-4.062,-4.262,-4.3072,-4.3881,-4.5819,-4.621,0.0,0.0,0.0,0.0,0.0,0.0,0.0,0.0,0.0,0.0,-4.9919,-4.9364,-4.9346,-5.0004,-4.9942,-4.9644,-4.9032,-4.9001,-4.9001,-4.9001,-4.9001,-4.9001,-4.9001,-4.9001,-4.9001,0.0,0.0,0.0,0.0,-4.7267,-4.6578,-4.5847,-4.5082,-4.4803,-4.4793,-4.4654,-4.4682,-4.4803,-4.4803,-4.4886,-4.5005,-4.5005,-4.5005,-4.5032,-4.5177,-4.53,-4.5423,-4.5423,-4.5423,-4.5423,-4.5397,-4.5397,-4.5397,-4.5423,-4.5423,-4.5397,-4.5397,-4.5397,-4.5397,-4.5397,-4.5397,-4.5397,-4.5397,-4.5397,-4.5397,-4.5397,-4.5397,-4.5397,-4.5397,-4.5397,-4.5397,-4.5397,-4.5397,-4.5397,-4.5397,-4.5397,-4.5397,-4.5397,-4.5397,-4.5397,-4.5397,-4.5397,-4.5397,-4.5397,-4.593,-4.6435,-4.6886,-4.7356,-4.7591,-4.7611,-4.8093,-4.8287,-4.1081,-4.201,-4.2714,-4.2361,-4.2252,-4.1825,-4.0214,-3.9677,-3.9108,-3.7794,-3.7522,-3.7883,-3.9001,-3.9146,-4.0097,-4.3159,0.0,0.0,0.0,0.0,0.0,0.0,0.0,0.0,0.0,0.0,0.0,0.0,0.0,0.0,-4.929,-4.9107,-4.9107,-4.9316,-4.9303,-4.9199,-4.9001,-4.9001,-4.9001,-4.9001,-4.9001,-4.9001,-4.9001,-4.9001,-4.9001,0.0,0.0,0.0,0.0,-4.7149,-4.6421,-4.5676,-4.4959,-4.4654,-4.4654,-4.4615,-4.4643,-4.4654,-4.4654,-4.4682,-4.4737,-4.4831,-4.4858,-4.4886,-4.5032,-4.5167,-4.5274,-4.5371,-4.5397,-4.5397,-4.5397,-4.5397,-4.5397,-4.5397,-4.5397,-4.5397,-4.5397,-4.5397,-4.5397,-4.5397,-4.5397,-4.5397,-4.5397,-4.5397,-4.5397,-4.5397,-4.5397,-4.5397,-4.5397,-4.5397,-4.5397,-4.5397,-4.5397,-4.5397,-4.5397,-4.5397,-4.5397,-4.5397,-4.5397,-4.5397,-4.5397,-4.5397,-4.5397,-4.5397,-4.6242,-4.6747,-4.6908,-4.7692,-4.8093,-4.8075,-4.823,-4.8306,0.0,-4.0995,-4.1592,-4.1519,-4.13,-4.0796,-3.9661,-3.9219,-3.8731,-3.7551,-3.7389,-3.7783,-3.881,-3.9038,-3.9917,-4.2602,-4.3262,0.0,0.0,0.0,0.0,0.0,0.0,0.0,0.0,0.0,0.0,0.0,0.0,0.0,-4.9001,-4.9001,-4.9001,-4.9001,-4.9001,-4.9001,-4.9001,-4.9001,-4.9001,-4.9001,-4.9001,-4.9001,-4.9001,-4.9001,-4.9001,0.0,0.0,0.0,0.0,-4.6989,-4.6194,-4.5229,-4.4784,-4.4615,-4.4615,-4.4615,-4.4615,-4.4615,-4.4615,-4.4615,-4.4598,-4.4709,-4.4748,-4.4803,-4.4913,-4.5059,-4.522,-4.53,-4.5371,-4.5397,-4.5397,-4.5397,-4.5397,-4.5397,-4.5397,-4.5397,-4.5397,-4.5397,-4.5397,-4.5397,-4.5397,-4.5397,-4.5397,-4.5397,-4.5397,-4.5397,-4.5397,-4.5397,-4.5397,-4.5397,-4.5397,-4.5397,-4.5397,-4.5397,-4.5397,-4.5397,-4.5397,-4.5397,-4.5397,-4.5397,-4.5397,-4.5397,-4.5397,-4.5397,-4.6217,-4.6724,-4.6908,-4.7854,-4.8306,-4.8324,-4.8636,-4.8783,0.0,-3.9984,-4.0254,-4.0931,-4.0617,-3.9973,-3.9266,-3.8686,0.0,-3.7186,-3.7462,-3.8042,-3.8667,-3.9206,-4.0025,-4.1342,0.0,0.0,0.0,0.0,0.0,0.0,0.0,0.0,0.0,0.0,0.0,0.0,0.0,0.0,-4.9001,-4.9001,-4.9001,-4.9001,-4.9001,-4.9001,-4.9001,-4.9001,-4.9001,-4.9001,-4.9001,-4.9001,-4.9001,-4.9001,-4.9001,0.0,0.0,0.0,0.0,-4.6735,-4.5872,-4.4615,-4.4615,-4.4615,-4.4615,-4.4615,-4.4615,-4.4615,-4.4615,-4.4615,-4.4615,-4.4615,-4.4682,-4.4793,-4.4793,-4.4978,-4.5194,-4.5194,-4.5274,-4.5397,-4.5397,-4.5397,-4.5397,-4.5397,-4.5397,-4.5397,-4.5397,-4.5397,-4.5397,-4.5397,-4.5397,-4.5397,-4.5397,-4.5397,-4.5397,-4.5397,-4.5397,-4.5397,-4.5397,-4.5397,-4.5397,-4.5397,-4.5397,-4.5397,-4.5397,-4.5397,-4.5397,-4.5397,-4.5397,-4.5397,-4.5397,-4.5397,-4.5397,-4.5397,-4.5955,-4.6483,-4.6954,-4.7875,-4.8343,-4.8416,-4.9225,-4.9629,-3.7265,0.0,-3.8261,-3.8091,-3.8279,-3.8341,0.0,-3.781,-3.7872,0.0,0.0,0.0,-3.9315,-3.9418,0.0,0.0,0.0,0.0,0.0,0.0,0.0,0.0,0.0,0.0,0.0,0.0,0.0,0.0,0.0,-4.9593,-4.9035,-4.9001,-4.9001,-4.9001,-4.9001,-4.9001,-4.9001,-4.9001,-4.9001,-4.9001,-4.9001,-4.9001,-4.9001,-4.9001,-4.9001,0.0,0.0,0.0,-4.6752,-4.6194,-4.5415,-4.4615,-4.4615,-4.4615,-4.4615,-4.4615,-4.4615,-4.4615,-4.4615,-4.4615,-4.4615,-4.4615,-4.4626,-4.4654,-4.4654,-4.4831,-4.5059,-4.5059,-4.514,-4.5247,-4.5247,-4.53,-4.5397,-4.5397,-4.5397,-4.5397,-4.5397,-4.5397,-4.5397,-4.5397,-4.5397,-4.5397,-4.5397,-4.5397,-4.5397,-4.5397,-4.5397,-4.5397,-4.5397,-4.5397,-4.5397,-4.5397,-4.5397,-4.5397,-4.5397,-4.5397,-4.5397,-4.5397,-4.5397,-4.5397,-4.5397,-4.5397,-4.5397,-4.5397,-4.6291,-4.6959,-4.7442,-4.8015,-4.8636,-4.9317,-4.95,-4.9941,-3.6523,-3.7094,-3.7653,-3.739,-3.7592,-3.7763,-3.7406,0.0,0.0,0.0,0.0,0.0,0.0,0.0,0.0,0.0,0.0,0.0,0.0,0.0,0.0,0.0,0.0,0.0,0.0,0.0,0.0,0.0,0.0,-4.9779,-4.9035,-4.9001,-4.9001,-4.9001,-4.9001,-4.9001,-4.9001,-4.9001,-4.9001,-4.9001,-4.9001,-4.9001,-4.9001,-4.9001,-4.9001,0.0,0.0,0.0,-4.6735,-4.6007,-4.5263,-4.4615,-4.4615,-4.4615,-4.4615,-4.4615,-4.4615,-4.4615,-4.4615,-4.4615,-4.4615,-4.4615,-4.4615,-4.4615,-4.4615,-4.4709,-4.4831,-4.4886,-4.5005,-4.5113,-4.5113,-4.522,-4.53,-4.53,-4.5371,-4.5397,-4.5397,-4.5397,-4.5397,-4.5397,-4.5397,-4.5397,-4.5397,-4.5397,-4.5397,-4.5397,-4.5397,-4.5397,-4.5397,-4.5397,-4.5397,-4.5397,-4.5397,-4.5397,-4.5397,-4.5397,-4.5397,-4.5397,-4.5397,-4.5397,-4.5397,-4.5397,-4.5397,-4.5397,-4.6168,-4.6701,-4.6959,-4.7632,-4.8415,-4.9255,-4.986,-5.0582,-3.6615,-3.7233,-3.7776,-3.7575,-3.759,-3.7636,-3.7544,0.0,0.0,0.0,0.0,0.0,0.0,0.0,0.0,0.0,0.0,0.0,0.0,0.0,0.0,0.0,0.0,0.0,0.0,0.0,0.0,0.0,0.0,-4.9898,-4.9052,-4.9001,-4.9001,-4.9001,-4.9001,-4.9001,-4.9001,-4.9001,-4.9001,-4.9001,-4.9001,-4.9001,-4.9001,-4.9001,-4.8951,-4.8798,0.0,0.0,-4.6566,-4.5838,-4.5162,-4.4615,-4.4615,-4.4615,-4.4615,-4.4615,-4.4615,-4.4615,-4.4615,-4.4615,-4.4615,-4.4615,-4.4615,-4.4615,-4.4615,-4.4615,-4.4626,-4.4737,-4.4858,-4.4951,-4.4951,-4.5059,-4.5177,-4.5194,-4.5274,-4.5371,-4.5397,-4.5397,-4.5397,-4.5397,-4.5397,-4.5397,-4.5397,-4.5397,-4.5397,-4.5397,-4.5397,-4.5397,-4.5397,-4.5397,-4.5397,-4.5397,-4.5397,-4.5397,-4.5397,-4.5397,-4.5397,-4.5397,-4.5397,-4.5397,-4.5397,-4.5397,-4.5397,-4.5397,-4.593,-4.6211,-4.6211,-4.7178,-4.8063,-4.8898,-5.0237,-5.1287,-3.7184,-3.7846,-3.8109,-3.6954,-3.7108,-3.7385,-3.68,0.0,0.0,0.0,0.0,0.0,0.0,0.0,0.0,0.0,0.0,0.0,0.0,0.0,0.0,0.0,0.0,0.0,0.0,0.0,0.0,0.0,0.0,-5.0456,-4.9069,-4.9001,-4.9001,-4.9001,-4.9001,-4.9001,-4.9001,-4.9001,-4.9001,-4.9001,-4.9001,-4.9001,-4.9001,-4.9001,-4.8663,-4.8024,0.0,-4.6549,-4.5821,-4.506,-4.4699,-4.4615,-4.4615,-4.4615,-4.4615,-4.4615,-4.4615,-4.4615,-4.4615,-4.4615,-4.4615,-4.4615,-4.4615,-4.4615,-4.4615,-4.4615,-4.4598,-4.4626,-4.4737,-4.4831,-4.4831,-4.494,-4.5059,-4.5177,-4.522,-4.5274,-4.5371,-4.5397,-4.5397,-4.5397,-4.5397,-4.5397,-4.5397,-4.5397,-4.5397,-4.5397,-4.5397,-4.5397,-4.5397,-4.5397,-4.5397,-4.5397,-4.5397,-4.5397,-4.5397,-4.5397,-4.5397,-4.5397,-4.5397,-4.5397,-4.5397,-4.5397,-4.5397,-4.5397,-4.593,-4.6211,-4.6211,-4.7364,-4.8358,-4.915,-5.052,-5.1578,-3.6876,-3.7446,-3.7815,-3.7184,-3.8092,-3.897,-3.8277,0.0,0.0,0.0,0.0,0.0,0.0,0.0,0.0,0.0,0.0,0.0,0.0,0.0,0.0,0.0,0.0,0.0,0.0,0.0,0.0,0.0,0.0,0.0,-4.9086,-4.9001,-4.9001,-4.9001,-4.9001,-4.9001,-4.9001,-4.9001,-4.9001,-4.9001,-4.9001,-4.9001,-4.9001,-4.9001,-4.8612,-4.7838,0.0,-4.638,-4.5652,-4.4919,-4.4615,-4.4615,-4.4615,-4.4615,-4.4615,-4.4615,-4.4615,-4.4615,-4.4615,-4.4615,-4.4615,-4.4615,-4.4615,-4.4615,-4.4615,-4.4615,-4.4615,-4.4615,-4.4654,-4.4682,-4.4682,-4.4776,-4.4913,-4.4951,-4.5032,-4.514,-4.5274,-4.53,-4.53,-4.5397,-4.5397,-4.5397,-4.5397,-4.5397,-4.5397,-4.5397,-4.5397,-4.5397,-4.5397,-4.5397,-4.5397,-4.5397,-4.5397,-4.5397,-4.5397,-4.5397,-4.5397,-4.5397,-4.5397,-4.5397,-4.5397,-4.5397,-4.5397,-4.5397,-4.5641,-4.5978,-4.6421,-4.7226,-4.8387,-4.9877,-5.0785,-5.1782,-3.6923,-3.723,-3.7538,-3.7692,0.0,-3.9782,-3.9736,0.0,0.0,0.0,0.0,0.0,0.0,0.0,0.0,0.0,0.0,0.0,0.0,0.0,0.0,0.0,0.0,0.0,0.0,0.0,0.0,0.0,0.0,0.0,-4.9069,-4.9001,-4.9001,-4.9001,-4.9001,-4.9001,-4.9001,-4.9001,-4.9001,-4.9001,-4.9001,-4.9001,-4.9001,-4.9001,-4.8511,-4.7631,-4.7056,-4.6278,-4.5399,-4.4852,-4.4615,-4.4615,-4.4615,-4.4615,-4.4615,-4.4615,-4.4615,-4.4615,-4.4615,-4.4615,-4.4615,-4.4615,-4.4615,-4.4615,-4.4615,-4.4615,-4.4615,-4.4615,-4.4615,-4.4615,-4.4615,-4.4682,-4.4748,-4.4776,-4.4886,-4.4978,-4.5123,-4.5177,-4.523,-4.5327,-4.5371,-4.5397,-4.5397,-4.5397,-4.5397,-4.5397,-4.5397,-4.5397,-4.5397,-4.5397,-4.5397,-4.5397,-4.5397,-4.5397,-4.5397,-4.5397,-4.5397,-4.5397,-4.5397,-4.5397,-4.5397,-4.5397,-4.5397,-4.5397,-4.5587,-4.5966,-4.6613,-4.7431,-4.8587,-5.0057,-5.0892,-5.1833,-3.82,-3.7938,-3.7646,-3.8277,-3.8077,0.0,-3.9997,-3.9493,0.0,0.0,0.0,0.0,0.0,0.0,0.0,0.0,0.0,0.0,0.0,0.0,0.0,0.0,0.0,0.0,0.0,0.0,0.0,0.0,0.0,0.0,-4.9035,-4.9001,-4.9001,-4.9001,-4.9001,-4.9001,-4.9001,-4.9001,-4.9001,-4.9001,-4.9001,-4.9001,-4.9001,-4.9001,-4.8223,-4.687,-4.6802,-4.5974,-4.4682,-4.4632,-4.4615,-4.4615,-4.4615,-4.4615,-4.4615,-4.4615,-4.4615,-4.4615,-4.4615,-4.4615,-4.4615,-4.4615,-4.4615,-4.4615,-4.4615,-4.4615,-4.4615,-4.4615,-4.4615,-4.4615,-4.4615,-4.4615,-4.4654,-4.4776,-4.4803,-4.4858,-4.4978,-4.5113,-4.5203,-4.5203,-4.53,-4.5397,-4.5397,-4.5397,-4.5397,-4.5397,-4.5397,-4.5397,-4.5397,-4.5397,-4.5397,-4.5397,-4.5397,-4.5397,-4.5397,-4.5397,-4.5397,-4.5397,-4.5397,-4.5397,-4.5397,-4.5397,-4.5397,-4.5397,-4.6121,-4.6544,-4.6613,-4.8522,-4.9255,-4.8962,-5.0741,-5.1622,-3.7815,-3.7692,-3.7661,-3.8338,0.0,0.0,0.0,0.0,0.0,0.0,0.0,0.0,0.0,0.0,0.0,0.0,0.0,0.0,0.0,0.0,0.0,0.0,0.0,0.0,0.0,0.0,0.0,0.0,0.0,0.0,-4.9004,-4.8576,-4.8306,-4.8306,-4.8306,-4.8113,-4.7638,-4.7638,-4.7869,-4.8306,-4.8798,-4.9001,-4.8984,-4.8545,-4.7767,-4.6769,-4.6312,-4.5534,-4.4615,-4.4615,-4.4615,-4.4649,-4.5094,-4.4993,-4.4666,-4.5111,-4.4976,-4.4615,-4.4615,-4.4615,-4.4615,-4.4615,-4.4615,-4.4615,-4.4615,-4.4615,-4.4615,-4.4615,-4.4615,-4.4615,-4.4615,-4.4615,-4.4598,-4.4654,-4.4682,-4.4709,-4.4858,-4.4978,-4.5113,-4.5177,-4.5696,-4.6165,-4.6165,-4.6517,-4.68,-4.6718,-4.6288,-4.6106,-4.6477,-4.6199,-4.6151,-4.6667,-4.6773,-4.6828,-4.6828,-4.6828,-4.6621,-4.6173,-4.5673,-4.5397,-4.5397,-4.5397,-4.5638,-4.6121,-4.6458,-4.7034,-4.7965,-4.8734,-4.942,-5.0056,-5.077,-5.1467,-3.7507,-3.7353,-3.7353,0.0,0.0,0.0,0.0,0.0,0.0,0.0,0.0,0.0,0.0,0.0,0.0,0.0,0.0,0.0,0.0,0.0,0.0,0.0,0.0,0.0,0.0,0.0,0.0,0.0,0.0,0.0,0.0,-4.7836,-4.7556,-4.7556,-4.7556,-4.7322,-4.6811,-4.6811,-4.7051,-4.7556,-4.7848,-4.8327,-4.8984,-4.8009,-4.7268,-4.6752,-4.6024,-4.528,-4.4615,-4.4615,-4.4615,-4.4649,-4.5145,-4.5179,-4.4993,-4.5517,-4.5382,-4.4942,-4.4942,-4.4801,-4.4615,-4.4615,-4.4615,-4.4615,-4.4615,-4.4615,-4.4615,-4.4615,-4.4615,-4.4615,-4.4615,-4.4615,-4.4615,-4.4615,-4.4784,-4.4953,-4.5066,-4.5375,-4.5668,-4.5733,-4.6128,-4.6529,-4.6742,-4.7055,-4.7286,-4.7386,-4.6985,-4.6803,-4.7147,-4.6895,-4.6921,-4.7498,-4.7634,-4.7689,-4.7689,-4.7689,-4.7465,-4.6993,-4.6414,-4.6017,-4.5776,-4.6,-4.6379,-4.6941,-4.7182,-4.7775,-4.8792,-4.9214,-4.982,-5.0564,-5.0712,-5.1184,-3.7507,-3.7015,0.0,0.0,0.0,0.0,0.0,0.0,0.0,0.0,0.0,0.0,0.0,0.0,0.0,0.0,0.0,0.0,0.0,0.0,0.0,0.0,0.0,0.0,0.0,0.0,0.0,0.0,0.0,0.0,0.0,-4.6777,-4.6777,-4.6777,-4.6777,-4.6777,-4.6777,-4.6777,-4.6777,-4.6761,-4.6083,-4.6897,-4.8937,-4.7443,-4.6772,-4.6735,-4.5978,-4.5263,-4.4598,-4.4615,-4.4615,-4.4615,-4.4615,-4.5043,-4.5703,-4.572,-4.5703,-4.5703,-4.5703,-4.5213,-4.4615,-4.4615,-4.4615,-4.4615,-4.4615,-4.4615,-4.4615,-4.4615,-4.4632,-4.4632,-4.4632,-4.4632,-4.4632,-4.4615,-4.5162,-4.5703,-4.572,-4.6394,-4.7003,-4.7003,-4.6522,-4.6351,-4.7085,-4.6713,-4.6512,-4.7113,-4.7381,-4.7437,-4.7233,-4.7381,-4.7584,-4.7707,-4.7707,-4.7707,-4.7707,-4.7707,-4.7707,-4.7707,-4.7707,-4.7407,-4.6648,-4.7293,-4.7689,-4.7707,-4.843,-4.8792,-4.881,-5.0135,-5.0509,-4.9993,-5.0564,-5.0803,-3.7631,-3.7707,0.0,0.0,0.0,0.0,0.0,0.0,0.0,0.0,0.0,0.0,0.0,0.0,0.0,0.0,0.0,0.0,0.0,0.0,0.0,0.0,0.0,0.0,0.0,0.0,0.0,0.0,0.0,0.0,0.0,-4.6288,-4.602,-4.602,-4.602,-4.5769,-4.5237,-4.4768,-4.4807,-4.5308,-4.413,-4.4655,-4.6701,-4.526,-4.4621,-4.458,-4.3793,-4.3578,-4.3869,-4.4384,-4.4615,-4.4649,-4.5162,-4.5179,-4.5043,-4.6092,-4.5805,-4.4993,-4.5517,-4.5213,-4.4615,-4.4615,-4.4615,-4.4615,-4.4615,-4.4942,-4.5365,-4.5365,-4.5737,-4.6172,-4.6172,-4.6172,-4.6007,-4.55,-4.5551,-4.5838,-4.6363,-4.675,-4.7003,-4.7003,-4.7374,-4.7779,-4.8001,-4.835,-4.8607,-4.877,-4.8302,-4.7885,-4.7856,-4.845,-4.8968,-4.9068,-4.9217,-4.9321,-4.9321,-4.9321,-4.9097,-4.8499,-4.8982,-4.8734,-4.7441,-4.7485,-4.7864,-4.8448,-4.8604,-4.8982,-4.9648,-5.0045,-5.0166,-4.9993,-5.0564,-5.0803,-3.7861,0.0,0.0,0.0,0.0,0.0,0.0,0.0,0.0,0.0,0.0,0.0,0.0,0.0,0.0,0.0,0.0,0.0,0.0,0.0,0.0,0.0,0.0,0.0,0.0,0.0,0.0,0.0,0.0,0.0,0.0,-4.5478,-4.5237,-4.5237,-4.5237,-4.4943,-4.4225,-4.3809,-4.3675,-4.385,-4.2726,-4.2871,-4.4093,-4.3535,-4.3428,-4.3653,-4.2828,-4.2892,-4.3542,-4.3972,-4.4338,-4.4649,-4.5077,-4.5162,-4.5128,-4.6041,-4.5788,-4.5094,-4.5551,-4.5213,-4.4615,-4.4615,-4.4615,-4.4615,-4.4615,-4.5111,-4.5703,-4.5703,-4.6227,-4.6786,-4.6786,-4.6786,-4.6684,-4.6244,-4.6363,-4.6701,-4.7141,-4.7522,-4.7768,-4.7768,-4.7993,-4.8303,-4.8592,-4.8822,-4.904,-4.9256,-4.8825,-4.8489,-4.8549,-4.9031,-4.9441,-4.959,-4.9725,-4.983,-4.986,-4.9889,-4.97,-4.9292,-4.9735,-4.9551,-4.8535,-4.8415,-4.865,-4.9258,-4.9114,-4.9337,-5.0011,-5.0011,-5.0011,-4.9993,-5.0564,-5.0803,0.0,0.0,0.0,0.0,0.0,0.0,0.0,0.0,0.0,0.0,0.0,0.0,0.0,0.0,0.0,0.0,0.0,0.0,0.0,0.0,0.0,0.0,0.0,0.0,0.0,0.0,0.0,0.0,0.0,0.0,0.0,-4.461,-4.461,-4.461,-4.4548,-4.4225,-4.3608,-4.3485,-4.3094,-4.2509,-4.1817,-4.1509,-4.1529,-4.2144,-4.2773,-4.338,-4.2686,-4.2769,-4.3317,-4.3376,-4.3839,-4.4514,-4.4514,-4.4964,-4.5618,-4.5686,-4.5669,-4.5618,-4.5686,-4.5213,-4.4615,-4.4615,-4.4615,-4.4615,-4.4682,-4.5213,-4.5821,-4.5889,-4.643,-4.6989,-4.6989,-4.6989,-4.6989,-4.6989,-4.7462,-4.7906,-4.7973,-4.8545,-4.9001,-4.9001,-4.8477,-4.8193,-4.8883,-4.8548,-4.8388,-4.8931,-4.9001,-4.9063,-4.9168,-4.9199,-4.926,-4.9458,-4.9488,-4.953,-4.9679,-4.9708,-4.9784,-4.9982,-5.0011,-4.9906,-4.9708,-4.9679,-4.9784,-4.9964,-4.9784,-4.9784,-5.0011,-5.0011,-5.0011,-4.9993,-5.0602,-5.0857,0.0,0.0,0.0,0.0,0.0,0.0,0.0,0.0,0.0,0.0,0.0,0.0,0.0,0.0,0.0,0.0,0.0,0.0,0.0,0.0,0.0,0.0,0.0,0.0,0.0,0.0,0.0,0.0,0.0,0.0,-4.461,-4.461,-4.461,-4.461,-4.4101,-4.3762,-4.3608,-4.254,-4.1955,0.0,-4.1093,-4.072,-4.0755,-4.0878,-4.1034,-4.1224,-4.1555,-4.1804,-4.1981,-4.252,-4.3106,-4.3752,-4.3752,-4.4176,-4.4891,-4.5483,-4.5331,-4.4936,-4.55,-4.5213,-4.4615,-4.4615,-4.4615,-4.4716,-4.528,-4.5974,-4.6684,-4.7246,-4.797,-4.8528,-4.8528,-4.8528,-4.8528,-4.8528,-4.8223,-4.8041,-4.8646,-4.89,-4.9001,-4.9001,-4.8883,-4.8815,-4.8984,-4.8897,-4.8846,-4.8984,-4.9094,-4.9138,-4.9063,-4.9138,-4.9229,-4.926,-4.9428,-4.953,-4.9679,-4.9708,-4.9784,-4.9982,-5.0011,-4.9906,-4.9708,-4.959,-4.9607,-4.9755,-4.9637,-4.9696,-5.0011,-5.0011,-5.0011,-5.0022,-5.0991,-5.121,0.0,0.0,0.0,0.0,0.0,0.0,0.0,0.0,0.0,0.0,0.0,0.0,0.0,0.0,0.0,0.0,0.0,0.0,0.0,0.0,0.0,0.0,0.0,0.0,0.0,0.0,0.0,0.0,0.0,-4.461,-4.461,-4.4317,-4.4132,-4.4132,-4.3448,-4.2956,-4.2669,-4.194,-4.1397,-4.0988,-4.0639,-4.0489,-4.0489,-4.0489,-4.0489,-4.0524,-4.087,-4.1209,-4.1525,-4.1901,-4.2614,-4.3512,-4.3512,-4.3943,-4.4649,-4.501,-4.4925,-4.4649,-4.5026,-4.4936,-4.4615,-4.4615,-4.4852,-4.5196,-4.5585,-4.6464,-4.7411,-4.777,-4.8443,-4.9001,-4.9001,-4.9001,-4.9001,-4.9001,-4.8714,-4.8545,-4.8917,-4.9001,-4.9001,-4.9001,-4.9001,-4.9001,-4.9001,-4.9001,-4.9001,-4.9001,-4.9063,-4.9094,-4.9001,-4.9063,-4.9107,-4.9107,-4.9216,-4.9367,-4.959,-4.959,-4.9725,-4.9982,-4.9906,-4.9784,-4.9619,-4.9441,-4.9441,-4.959,-4.9441,-4.9488,-4.9772,-4.983,-4.986,-4.9872,-5.1079,-5.1467,0.0,0.0,0.0,0.0,0.0,0.0,0.0,0.0,0.0,0.0,0.0,0.0,0.0,0.0,0.0,0.0,0.0,0.0,0.0,0.0,0.0,0.0,0.0,0.0,0.0,0.0,0.0,0.0,0.0,-4.4394,-4.4249,-4.3747,-4.3439,-4.3439,-4.2771,-4.2119,-4.1566,-4.1443,-4.0984,-4.0242,-4.0401,-4.047,-4.047,-4.0489,-4.0489,-4.0489,-4.0489,-4.0802,-4.1343,-4.1343,-4.2109,-4.3317,-4.3317,-4.3856,-4.4615,-4.4615,-4.4682,-4.4801,-4.4801,-4.4886,-4.4987,-4.4987,-4.5382,-4.5923,-4.6041,-4.6908,-4.7922,-4.8041,-4.8545,-4.9001,-4.9001,-4.9001,-4.9001,-4.9001,-4.9001,-4.9001,-4.9001,-4.9001,-4.9001,-4.9001,-4.9001,-4.9001,-4.9001,-4.9001,-4.9001,-4.9001,-4.9001,-4.9001,-4.9001,-4.9001,-4.9001,-4.9001,-4.9001,-4.9124,-4.9411,-4.9458,-4.9577,-4.9906,-4.9755,-4.959,-4.9441,-4.929,-4.926,-4.9428,-4.926,-4.929,-4.9518,-4.9619,-4.9679,-4.9737,-5.0964,-5.1576,0.0,0.0,0.0,0.0,0.0,0.0,0.0,0.0,0.0,0.0,0.0,0.0,0.0,0.0,0.0,0.0,0.0,0.0,0.0,0.0,0.0,0.0,0.0,0.0,0.0,0.0,0.0,0.0,-4.3747,-4.3501,-4.2894,-4.2786,-4.274,-4.274,-4.2078,-4.1607,-4.1357,-4.0775,-4.0333,-4.0031,-4.0226,-4.0347,-4.0331,-4.047,-4.0489,-4.0489,-4.0489,-4.0558,-4.0612,-4.0612,-4.1426,-4.2645,-4.2645,-4.3439,-4.4615,-4.4615,-4.4993,-4.5551,-4.5551,-4.5974,-4.6498,-4.6498,-4.6566,-4.6769,-4.7428,-4.7736,-4.8024,-4.868,-4.8934,-4.9001,-4.9001,-4.9001,-4.9001,-4.9001,-4.9001,-4.9001,-4.9001,-4.9001,-4.9001,-4.9001,-4.9001,-4.9001,-4.9001,-4.9001,-4.9001,-4.9001,-4.9001,-4.9001,-4.9001,-4.9001,-4.9001,-4.9001,-4.9001,-4.9063,-4.9229,-4.9229,-4.932,-4.9547,-4.9547,-4.9441,-4.926,-4.9199,-4.9168,-4.9063,-4.9138,-4.929,-4.9518,-4.9518,-4.9607,-4.9737,-5.0822,-5.1421,0.0,0.0,0.0,0.0,0.0,0.0,0.0,0.0,0.0,0.0,0.0,0.0,0.0,0.0,0.0,0.0,0.0,0.0,0.0,0.0,0.0,0.0,0.0,0.0,0.0,0.0,0.0,0.0,-4.3144,-4.2732,-4.2456,-4.1979,-4.1693,-4.1693,-4.1051,-4.0664,-4.0578,-4.0289,-4.0101,-4.0011,-3.998,-4.0016,-4.0137,-4.0296,-4.0436,-4.0489,-4.0489,-4.0489,-4.0489,-4.0489,-4.1057,-4.1933,-4.1933,-4.2785,-4.4023,-4.4474,-4.511,-4.5771,-4.6177,-4.6532,-4.6786,-4.6786,-4.7073,-4.7479,-4.7787,-4.8176,-4.8595,-4.8917,-4.9001,-4.9001,-4.9001,-4.9001,-4.9001,-4.9001,-4.9001,-4.9001,-4.9001,-4.9001,-4.9001,-4.9001,-4.9001,-4.9001,-4.9001,-4.9001,-4.9001,-4.9001,-4.9001,-4.9001,-4.9001,-4.9001,-4.9001,-4.9001,-4.9001,-4.9063,-4.9199,-4.9199,-4.929,-4.9488,-4.9381,-4.929,-4.9199,-4.9138,-4.9063,-4.9001,-4.9063,-4.9124,-4.9216,-4.9307,-4.9411,-4.9619,-5.046,-5.1113,0.0,0.0,0.0,0.0,0.0,0.0,0.0,0.0,0.0,0.0,0.0,0.0,0.0,0.0,0.0,0.0,0.0,0.0,0.0,0.0,0.0,0.0,0.0,0.0,0.0,0.0,0.0,0.0,-4.2493,-4.2031,-4.1811,-4.1193,-4.0775,-4.0739,-4.0269,-3.996,-3.9925,-3.9854,-3.9854,-3.9854,-3.9732,-3.9768,-3.9925,-4.0172,-4.0331,-4.0455,-4.0489,-4.0489,-4.0489,-4.0489,-4.0904,-4.1492,-4.1492,-4.2445,-4.3876,-4.4473,-4.536,-4.6346,-4.6887,-4.7192,-4.7361,-4.7361,-4.7733,-4.8189,-4.8189,-4.8578,-4.9001,-4.9001,-4.9001,-4.9001,-4.9001,-4.9001,-4.9001,-4.9001,-4.9001,-4.9001,-4.9001,-4.9001,-4.9001,-4.9001,-4.9001,-4.9001,-4.9001,-4.9001,-4.9001,-4.9001,-4.9001,-4.9001,-4.9001,-4.9001,-4.9001,-4.9001,-4.9001,-4.9032,-4.9138,-4.9138,-4.9199,-4.935,-4.9229,-4.9138,-4.9138,-4.9063,-4.9001,-4.9001,-4.9001,-4.9001,-4.9001,-4.9077,-4.926,-4.9518,-5.0142,-5.0786,0.0,0.0,0.0,0.0,0.0,0.0,0.0,0.0,0.0,0.0,0.0,0.0,0.0,0.0,0.0,0.0,0.0,0.0,0.0,0.0,0.0,0.0,0.0,0.0,0.0,0.0,0.0,0.0,-4.1663,-4.1284,-4.0449,-4.0338,-4.0252,-4.0056,-4.0026,-3.9925,-3.9732,-3.9532,-3.9424,-3.9424,-3.9625,-3.9717,-3.9732,-4.0121,-4.0296,-4.0312,-4.042,-4.0489,-4.0489,-4.0489,-4.0904,-4.1492,-4.1492,-4.2783,-4.4622,-4.4671,-4.6012,-4.7787,-4.7821,-4.8308,-4.8883,-4.8883,-4.8917,-4.8951,-4.8951,-4.8968,-4.9001,-4.9001,-4.9001,-4.9001,-4.9001,-4.9001,-4.9001,-4.9001,-4.9001,-4.9001,-4.9001,-4.9001,-4.9001,-4.9001,-4.9001,-4.9001,-4.9001,-4.9001,-4.9001,-4.9001,-4.9001,-4.9001,-4.9001,-4.9001,-4.9001,-4.9001,-4.9001,-4.9001,-4.9001,-4.9001,-4.9001,-4.9032,-4.9001,-4.9001,-4.9001,-4.9001,-4.9001,-4.9001,-4.9001,-4.9001,-4.9001,-4.9001,-4.9185,-4.95,-5.0074,-5.0505,0.0,0.0,0.0,0.0,0.0,0.0,0.0,0.0,0.0,0.0,0.0,0.0,0.0,0.0,0.0,0.0,0.0,0.0,0.0,0.0,0.0,0.0,0.0,0.0,0.0,0.0,0.0,0.0,0.0,-4.0395,-3.996,-3.9803,-3.9711,-3.9604,-3.9604,-3.9604,-3.9517,-3.946,-3.9388,-3.9388,-3.9481,-3.9517,-3.9517,-3.9925,-4.0101,-4.0101,-4.0401,-4.0489,-4.0489,-4.0489,-4.0646,-4.087,-4.087,-4.215,-4.4068,-4.4058,-4.5696,-4.7896,-4.7897,-4.8375,-4.9001,-4.9001,-4.9001,-4.9001,-4.9001,-4.9001,-4.9001,-4.9001,-4.9001,-4.9001,-4.9001,-4.9001,-4.9001,-4.9001,-4.9001,-4.9001,-4.9001,-4.9001,-4.9001,-4.9001,-4.9001,-4.9001,-4.9001,-4.9001,-4.9001,-4.9001,-4.9001,-4.9001,-4.9001,-4.9001,-4.9001,-4.9001,-4.9001,-4.9001,-4.9001,-4.9001,-4.9001,-4.9001,-4.9001,-4.9001,-4.9001,-4.9001,-4.9001,-4.9001,-4.9001,-4.9001,-4.9001,-4.9001,-4.9185,-4.9518,-4.9691,-5.0148,-3.3443,0.0,0.0,0.0,0.0,0.0,0.0,0.0,0.0,0.0,0.0,0.0,0.0,0.0,0.0,0.0,0.0,0.0,0.0,0.0,0.0,0.0,0.0,0.0,0.0,0.0,0.0,0.0,0.0,0.0,-3.9717,-3.9589,-3.9445,-3.9388,-3.9388,-3.9388,-3.9388,-3.9388,-3.9388,-3.9388,-3.9388,-3.946,-3.9517,-3.9854,-4.0046,-4.0101,-4.0385,-4.0489,-4.0489,-4.0489,-4.0489,-4.0489,-4.0489,-4.1823,-4.3716,-4.3693,-4.5323,-4.7545,-4.7523,-4.7869,-4.8306,-4.8545,-4.8625,-4.8688,-4.8923,-4.9001,-4.9001,-4.9001,-4.9001,-4.894,-4.8688,-4.8625,-4.8688,-4.894,-4.9001,-4.9001,-4.9001,-4.9001,-4.9001,-4.9001,-4.9001,-4.9001,-4.9001,-4.9001,-4.9001,-4.9001,-4.9001,-4.9001,-4.9001,-4.9001,-4.9001,-4.9001,-4.9001,-4.9001,-4.9001,-4.9001,-4.9001,-4.9001,-4.9001,-4.9001,-4.9001,-4.9001,-4.9001,-4.9001,-4.9001,-4.9032,-4.9063,-4.9032,-4.9185,-4.9518,-4.9518,-4.9953,0.0,0.0,0.0,0.0,0.0,0.0,0.0,0.0,0.0,0.0,0.0,0.0,0.0,0.0,0.0,0.0,0.0,0.0,0.0,0.0,0.0,0.0,0.0,0.0,0.0,0.0,0.0,0.0,-4.0226,-4.0086,-3.9696,-3.9646,-3.9589,-3.9424,-3.9388,-3.9388,-3.9388,-3.9388,-3.9388,-3.9388,-3.9388,-3.9517,-3.9717,-3.9925,-4.0101,-4.0312,-4.0436,-4.0489,-4.0489,-4.0489,-4.0489,-4.0489,-4.0489,-4.1813,-4.3696,-4.3661,-4.4984,-4.6811,-4.6793,-4.6777,-4.6914,-4.7622,-4.7852,-4.7999,-4.875,-4.897,-4.897,-4.9001,-4.897,-4.8798,-4.8096,-4.7917,-4.8129,-4.8829,-4.9001,-4.9001,-4.9001,-4.9001,-4.9001,-4.9001,-4.9001,-4.9001,-4.9001,-4.9001,-4.9001,-4.9001,-4.9001,-4.9001,-4.9001,-4.9001,-4.9001,-4.9001,-4.9001,-4.9001,-4.9001,-4.9001,-4.9001,-4.9001,-4.9001,-4.9001,-4.9001,-4.9001,-4.9001,-4.9001,-4.9001,-4.9063,-4.9199,-4.9063,-4.9185,-4.9518,-4.9518,-4.9982,-3.0427,0.0,0.0,0.0,0.0,0.0,0.0,0.0,0.0,0.0,0.0,0.0,0.0,0.0,0.0,0.0,0.0,0.0,0.0,0.0,0.0,0.0,0.0,0.0,0.0,0.0,0.0,0.0,-3.8921,-3.8826,-3.8649,-3.8612,-3.8848,-3.9388,-3.8848,-3.8811,-3.9388,-3.9388,-3.9388,-3.9388,-3.9388,-3.9517,-3.9717,-3.9925,-4.0101,-4.0312,-4.0436,-4.0489,-4.0489,-4.0489,-4.0489,-4.0489,-4.0489,-4.1813,-4.3643,-4.3094,-4.4563,-4.6708,-4.6182,-4.6359,-4.6846,-4.7051,-4.7119,-4.7254,-4.7967,-4.8193,-4.8306,-4.8861,-4.8625,-4.8161,-4.795,-4.8306,-4.8767,-4.894,-4.9001,-4.9001,-4.9001,-4.9001,-4.9001,-4.9001,-4.9001,-4.9001,-4.9001,-4.9001,-4.9001,-4.9001,-4.9001,-4.9001,-4.9001,-4.9001,-4.9001,-4.9001,-4.9001,-4.9001,-4.9001,-4.9001,-4.9001,-4.9001,-4.9001,-4.9001,-4.9001,-4.9001,-4.9001,-4.9001,-4.9001,-4.9063,-4.9199,-4.9168,-4.932,-4.9649,-4.9801,-5.0189,-2.9697,0.0,0.0,0.0,0.0,0.0,0.0,0.0,0.0,0.0,0.0,0.0,0.0,0.0,0.0,0.0,0.0,0.0,0.0,0.0,0.0,0.0,0.0,0.0,0.0,-3.8774,-3.813,-3.7913,-3.7875,-3.7829,-3.7668,-3.8,-3.8389,-3.8885,-3.8427,-3.859,-3.9388,-3.9388,-3.9388,-3.9388,-3.9388,-3.9517,-3.9717,-3.9925,-4.0101,-4.0312,-4.0436,-4.0489,-4.0489,-4.0489,-4.0489,-4.0489,-4.0489,-4.162,-4.3185,-4.2767,-4.3987,-4.5841,-4.5384,-4.5531,-4.5933,-4.6253,-4.6324,-4.6464,-4.7221,-4.7655,-4.7934,-4.8048,-4.7556,-4.7137,-4.7754,-4.7999,-4.8258,-4.8861,-4.9001,-4.9001,-4.9001,-4.9001,-4.9001,-4.9001,-4.9001,-4.9001,-4.9001,-4.9001,-4.9001,-4.9001,-4.9001,-4.9001,-4.9001,-4.9001,-4.9001,-4.9001,-4.9001,-4.9001,-4.9001,-4.9001,-4.9001,-4.9001,-4.9001,-4.9001,-4.9001,-4.9001,-4.9001,-4.9001,-4.9001,-4.9124,-4.932,-4.9229,-4.9381,-4.9708,-4.9906,-5.0178,-2.8843,-2.8957,0.0,0.0,0.0,0.0,-3.164,-3.2457,0.0,0.0,0.0,0.0,0.0,0.0,0.0,0.0,0.0,0.0,0.0,0.0,0.0,0.0,0.0,0.0,-3.8465,-3.7776,-3.7242,-3.7049,-3.7049,-3.6996,-3.688,-3.7553,-3.7962,-3.8037,-3.8075,-3.8464,-3.9265,-3.9352,-3.9388,-3.9388,-3.9388,-3.9517,-3.9717,-3.9889,-4.0101,-4.0312,-4.0436,-4.0489,-4.0489,-4.0489,-4.0489,-4.0489,-4.0489,-4.1351,-4.2602,-4.2602,-4.3448,-4.461,-4.461,-4.461,-4.4723,-4.5348,-4.5604,-4.5697,-4.6464,-4.7153,-4.7522,-4.688,-4.6253,-4.6111,-4.7339,-4.7288,-4.7254,-4.8562,-4.894,-4.9001,-4.9001,-4.9001,-4.9001,-4.9001,-4.9001,-4.9001,-4.9001,-4.9001,-4.9001,-4.9001,-4.9001,-4.9001,-4.9001,-4.9001,-4.9001,-4.9001,-4.9001,-4.9001,-4.9001,-4.9001,-4.9001,-4.9001,-4.9001,-4.9001,-4.9001,-4.9001,-4.9001,-4.9001,-4.9001,-4.9185,-4.9518,-4.932,-4.9411,-4.9737,-4.9935,-5.0011,-2.9732,0.0,0.0,0.0,0.0,0.0,-2.9209,-2.9294,0.0,0.0,0.0,0.0,0.0,0.0,0.0,0.0,0.0,0.0,0.0,0.0,0.0,0.0,0.0,0.0,-3.7472,-3.6621,-3.6016,-3.6016,-3.5976,-3.6241,-3.6894,-3.6439,-3.6478,-3.7127,-3.7127,-3.7577,-3.8427,-3.9083,-3.9388,-3.9388,-3.9388,-3.9517,-3.9681,-3.9732,-3.9945,-4.0312,-4.0347,-4.0401,-4.0489,-4.0489,-4.0489,-4.0489,-4.0489,-4.1351,-4.2602,-4.2602,-4.3448,-4.461,-4.461,-4.461,-4.461,-4.4761,-4.4821,-4.4971,-4.5697,-4.6005,-4.6111,-4.5949,-4.6218,-4.6499,-4.6218,-4.6898,-4.7754,-4.8064,-4.8576,-4.9001,-4.9001,-4.9001,-4.9001,-4.9001,-4.9001,-4.9001,-4.9001,-4.9001,-4.9001,-4.9001,-4.9001,-4.9001,-4.9001,-4.9001,-4.9001,-4.9001,-4.9001,-4.9001,-4.9001,-4.9001,-4.9001,-4.9001,-4.9001,-4.9001,-4.9001,-4.9001,-4.9001,-4.9001,-4.9124,-4.926,-4.9518,-4.956,-4.9725,-4.9935,-4.9964,-5.0011,0.0,0.0,0.0,-2.9706,0.0,0.0,0.0,-2.8629,-2.8712,0.0,0.0,0.0,0.0,0.0,0.0,0.0,0.0,0.0,0.0,0.0,0.0,0.0,0.0,0.0,-3.6399,-3.5615,-3.5032,-3.5032,-3.5467,-3.5696,-3.5642,-3.5696,-3.5896,-3.6281,-3.632,-3.6908,-3.8202,-3.859,-3.8995,-3.9388,-3.9388,-3.9445,-3.9553,-3.9768,-3.996,-4.0172,-4.0331,-4.0436,-4.0489,-4.0489,-4.0489,-4.0489,-4.0489,-4.117,-4.2109,-4.2109,-4.294,-4.4117,-4.4117,-4.4332,-4.461,-4.461,-4.461,-4.4685,-4.503,-4.5142,-4.5253,-4.5588,-4.5697,-4.5697,-4.5697,-4.6518,-4.7439,-4.7819,-4.8161,-4.8545,-4.894,-4.8719,-4.8545,-4.894,-4.9001,-4.9001,-4.9001,-4.9001,-4.9001,-4.9001,-4.9001,-4.9001,-4.9001,-4.9001,-4.9001,-4.9001,-4.9001,-4.9001,-4.9001,-4.9001,-4.9001,-4.9001,-4.9001,-4.9001,-4.9001,-4.9001,-4.9001,-4.9001,-4.9138,-4.929,-4.9518,-4.9619,-4.9813,-5.0011,-5.0011,-5.0011,0.0,0.0,0.0,0.0,0.0,-2.893,0.0,0.0,0.0,-2.9422,0.0,0.0,0.0,0.0,0.0,0.0,0.0,0.0,0.0,0.0,0.0,0.0,0.0,0.0,0.0,-3.4534,-3.4071,-3.4071,-3.4633,-3.4754,-3.4269,-3.4913,-3.5359,-3.5467,-3.5629,-3.6413,-3.791,-3.8127,-3.8612,-3.9388,-3.9388,-3.9388,-3.9424,-3.9747,-3.994,-4.0011,-4.0296,-4.042,-4.0489,-4.0489,-4.0489,-4.0489,-4.0489,-4.0935,-4.1601,-4.1601,-4.2432,-4.3608,-4.3608,-4.4055,-4.461,-4.461,-4.461,-4.461,-4.461,-4.461,-4.4723,-4.5311,-4.5067,-4.4761,-4.5348,-4.6056,-4.6742,-4.7339,-4.7671,-4.8064,-4.8656,-4.845,-4.8274,-4.8892,-4.9001,-4.9001,-4.9001,-4.9001,-4.9001,-4.9001,-4.9001,-4.9001,-4.9001,-4.9001,-4.9001,-4.9001,-4.9001,-4.9001,-4.9001,-4.9001,-4.9001,-4.9001,-4.9001,-4.9001,-4.9001,-4.9001,-4.9001,-4.9001,-4.9138,-4.929,-4.9518,-4.9619,-4.9813,-5.0011,-5.0011,-5.0011,0.0,0.0,0.0,0.0,-3.0032,0.0,0.0,0.0,-2.8268,-2.7868,0.0,0.0,0.0,0.0,0.0,0.0,0.0,0.0,0.0,0.0,0.0,0.0,0.0,0.0,0.0,-3.3275,-3.2881,-3.2881,-3.2489,-3.266,-3.3626,-3.3801,-3.4065,-3.4538,-3.5305,-3.6122,-3.7049,-3.7834,-3.8612,-3.9388,-3.9388,-3.9388,-3.9388,-3.946,-3.9676,-4.0011,-4.0031,-4.0226,-4.0489,-4.0489,-4.0489,-4.0489,-4.0489,-4.0935,-4.1601,-4.1601,-4.2432,-4.3608,-4.3608,-4.4055,-4.461,-4.461,-4.461,-4.461,-4.461,-4.461,-4.461,-4.4685,-4.4648,-4.461,-4.4685,-4.5274,-4.5841,-4.5933,-4.6967,-4.7917,-4.8032,-4.8482,-4.8909,-4.897,-4.9001,-4.9001,-4.9001,-4.9001,-4.9001,-4.9001,-4.9001,-4.9001,-4.9001,-4.9001,-4.9001,-4.9001,-4.9001,-4.9001,-4.9001,-4.9001,-4.9001,-4.9001,-4.9001,-4.9001,-4.9001,-4.9001,-4.9001,-4.9001,-4.9138,-4.929,-4.9518,-4.9619,-4.9813,-5.0011,-5.0011,-5.0011,0.0,0.0,0.0,0.0,0.0,0.0,-2.8399,0.0,-2.7915,0.0,0.0,0.0,0.0,0.0,0.0,0.0,0.0,0.0,0.0,0.0,0.0,0.0,0.0,0.0,0.0,0.0,0.0,0.0,-3.2124,-3.2163,-3.3025,-3.3404,-3.3692,-3.3927,-3.4586,-3.5561,-3.688,-3.7256,-3.8084,-3.9388,-3.9388,-3.9388,-3.9409,-3.9517,-3.9661,-3.9839,-4.0066,-4.0242,-4.0401,-4.047,-4.0489,-4.0489,-4.0489,-4.0674,-4.0951,-4.0951,-4.1586,-4.2479,-4.2879,-4.3448,-4.4086,-4.4486,-4.461,-4.461,-4.461,-4.461,-4.461,-4.461,-4.461,-4.461,-4.461,-4.5142,-4.5697,-4.5697,-4.6182,-4.6864,-4.7721,-4.7803,-4.7983,-4.8829,-4.9001,-4.9001,-4.9001,-4.9001,-4.9001,-4.9001,-4.9001,-4.9001,-4.9001,-4.9001,-4.9001,-4.9001,-4.9001,-4.9001,-4.9001,-4.9001,-4.9001,-4.9001,-4.9001,-4.9001,-4.9001,-4.9001,-4.9032,-4.9107,-4.9307,-4.9441,-4.9619,-4.9801,-4.9935,-5.0011,-5.0011,-5.0011,-3.1065,0.0,0.0,0.0,0.0,0.0,0.0,0.0,0.0,0.0,0.0,0.0,0.0,0.0,0.0,0.0,0.0,0.0,0.0,0.0,0.0,0.0,0.0,0.0,0.0,0.0,0.0,0.0,0.0,-3.1522,-3.2411,-3.3025,-3.3417,-3.3587,-3.4123,-3.521,-3.688,-3.688,-3.7753,-3.9388,-3.9388,-3.9388,-3.9409,-3.9553,-3.9661,-3.9732,-4.0051,-4.0242,-4.0296,-4.042,-4.0489,-4.0489,-4.0489,-4.0489,-4.0489,-4.0489,-4.0986,-4.1678,-4.2171,-4.2879,-4.3685,-4.4178,-4.4471,-4.461,-4.461,-4.461,-4.461,-4.461,-4.461,-4.461,-4.461,-4.5008,-4.5384,-4.5384,-4.5551,-4.604,-4.7305,-4.7355,-4.7489,-4.8767,-4.9001,-4.9001,-4.9001,-4.9001,-4.9001,-4.9001,-4.9001,-4.9001,-4.9001,-4.9001,-4.9001,-4.9001,-4.9001,-4.9001,-4.9001,-4.9001,-4.9001,-4.9001,-4.9001,-4.9001,-4.9001,-4.9001,-4.9063,-4.9199,-4.9398,-4.9577,-4.9708,-4.9889,-5.0011,-5.0011,-5.0011,-5.0011,0.0,0.0,0.0,-2.9144,0.0,0.0,0.0,0.0,-2.8394,0.0,0.0,0.0,0.0,0.0,0.0,0.0,0.0,0.0,0.0,0.0,0.0,0.0,0.0,0.0,0.0,0.0,0.0,0.0,0.0,0.0,-3.1745,-3.2411,-3.2986,-3.3574,-3.4123,-3.521,-3.688,-3.688,-3.7753,-3.9388,-3.9388,-3.9388,-3.9388,-3.9424,-3.9517,-3.9717,-3.9925,-4.0101,-4.0296,-4.042,-4.0489,-4.0489,-4.0489,-4.0489,-4.0489,-4.0489,-4.0986,-4.1601,-4.1617,-4.2479,-4.3608,-4.3639,-4.4086,-4.461,-4.461,-4.461,-4.461,-4.461,-4.461,-4.461,-4.461,-4.461,-4.4648,-4.4648,-4.5179,-4.5913,-4.6673,-4.7389,-4.8096,-4.8861,-4.9001,-4.9001,-4.9001,-4.9001,-4.9001,-4.9001,-4.9001,-4.9001,-4.9001,-4.9001,-4.9001,-4.9001,-4.9001,-4.9001,-4.9001,-4.9001,-4.9001,-4.9001,-4.9001,-4.9001,-4.9001,-4.9001,-4.9063,-4.9199,-4.9398,-4.9577,-4.9708,-4.9889,-5.0011,-5.0011,-5.0011,-5.0011,0.0,0.0,-3.2777,-3.0634,0.0,0.0,0.0,0.0,0.0,0.0,0.0,0.0,0.0,0.0,0.0,0.0,0.0,0.0,0.0,0.0,0.0,0.0,0.0,0.0,0.0,0.0,0.0,0.0,-2.9706,0.0,0.0,-3.181,-3.2189,-3.2385,-3.3365,-3.4674,-3.6342,-3.6722,-3.7753,-3.9388,-3.9388,-3.9388,-3.9409,-3.9553,-3.9625,-3.9732,-4.0051,-4.0242,-4.0296,-4.042,-4.0489,-4.0489,-4.0489,-4.0489,-4.0489,-4.0489,-4.0643,-4.0955,-4.1432,-4.2463,-4.3608,-4.3608,-4.4055,-4.461,-4.461,-4.461,-4.461,-4.461,-4.461,-4.461,-4.461,-4.461,-4.461,-4.461,-4.4783,-4.5311,-4.6534,-4.6983,-4.7522,-4.8767,-4.9001,-4.9001,-4.9001,-4.9001,-4.9001,-4.9001,-4.9001,-4.9001,-4.9001,-4.9001,-4.9001,-4.9001,-4.9001,-4.9001,-4.9001,-4.9001,-4.9001,-4.9001,-4.9001,-4.9001,-4.9001,-4.9001,-4.9124,-4.9381,-4.9458,-4.9637,-4.9906,-4.9964,-5.0011,-5.0011,-5.0011,-5.0011,-3.2803,-3.313,0.0,-3.1431,-3.0712,0.0,-2.8503,0.0,0.0,0.0,0.0,0.0,0.0,0.0,0.0,0.0,0.0,0.0,0.0,0.0,0.0,0.0,0.0,0.0,0.0,0.0,-2.9157,-3.0346,0.0,0.0,0.0,0.0,-3.1797,-3.1797,-3.2764,-3.4204,-3.6085,-3.6427,-3.7552,-3.9388,-3.9388,-3.9388,-3.9409,-3.9517,-3.9625,-3.9732,-4.0051,-4.0242,-4.0296,-4.042,-4.0489,-4.0489,-4.0489,-4.0489,-4.0489,-4.0489,-4.0489,-4.0566,-4.1063,-4.194,-4.29,-4.29,-4.3516,-4.4255,-4.4255,-4.4425,-4.461,-4.461,-4.461,-4.461,-4.461,-4.461,-4.461,-4.461,-4.4783,-4.5311,-4.6534,-4.7017,-4.7556,-4.8767,-4.9001,-4.9001,-4.9001,-4.9001,-4.9001,-4.9001,-4.9001,-4.9001,-4.9001,-4.9001,-4.9001,-4.9001,-4.9001,-4.9001,-4.9001,-4.9001,-4.9001,-4.9001,-4.9001,-4.9001,-4.9001,-4.9001,-4.9155,-4.9488,-4.9518,-4.9654,-5.0011,-5.0011,-5.0011,-5.0011,-5.0011,-5.0011]},{"header":{"parameterUnit":"m.s-1","parameterCategory":1,"la1":30.6,"la2":29.2853,"lo1":-89.7004,"lo2":-87.6739,"dy":0.0162,"dx":0.0183,"nx":112,"ny":82,"refTime":"2025-03-10T06:00:00:Z","depth":0,"parameterNumber":3,"parameterNumberName":"V-component_of_WINDS"},"data":[0.0,0.0,0.0,0.0,0.0,0.0,0.0,0.0,0.0,0.0,0.0,0.0,0.0,0.0,0.0,0.0,0.0,0.0,0.0,0.0,0.0,0.0,0.0,0.0,0.0,0.0,0.0,0.0,0.0,0.0,0.0,0.0,0.0,0.0,0.0,0.0,0.0,0.0,0.0,0.0,0.0,0.0,0.0,0.0,0.0,0.0,0.0,0.0,0.0,0.0,0.0,0.0,0.0,0.0,0.0,0.0,0.0,0.0,0.0,0.0,0.0,0.0,0.0,0.0,0.0,0.0,0.0,0.0,0.0,0.0,0.0,0.0,0.0,0.0,0.0,0.0,0.0,0.0,0.0,0.0,0.0,0.0,0.0,0.0,0.0,0.0,0.0,0.0,0.0,0.0,-1.4346,-1.4787,-1.5469,-1.5891,-1.5891,-1.5614,-1.5113,-1.4346,0.0,0.0,0.0,0.0,0.0,0.0,0.0,0.0,0.0,0.0,0.0,0.0,0.0,0.0,0.0,0.0,0.0,0.0,0.0,0.0,0.0,0.0,0.0,0.0,0.0,0.0,0.0,0.0,0.0,0.0,0.0,0.0,0.0,0.0,0.0,0.0,0.0,0.0,0.0,0.0,0.0,0.0,0.0,0.0,0.0,0.0,0.0,0.0,0.0,0.0,0.0,0.0,0.0,0.0,0.0,0.0,0.0,0.0,0.0,0.0,0.0,0.0,0.0,0.0,0.0,0.0,0.0,0.0,0.0,0.0,0.0,0.0,0.0,0.0,0.0,0.0,0.0,0.0,0.0,0.0,0.0,0.0,0.0,0.0,0.0,0.0,0.0,0.0,0.0,0.0,0.0,0.0,0.0,0.0,0.0,0.0,0.0,0.0,0.0,0.0,0.0,0.0,0.0,0.0,-1.4081,-1.5252,-1.5686,-1.5891,-1.5891,-1.5445,-1.4914,-1.4334,0.0,0.0,0.0,0.0,0.0,0.0,0.0,0.0,0.0,0.0,0.0,0.0,0.0,0.0,0.0,0.0,0.0,0.0,0.0,0.0,0.0,0.0,0.0,0.0,0.0,0.0,0.0,0.0,0.0,0.0,0.0,0.0,0.0,0.0,0.0,0.0,0.0,0.0,0.0,0.0,0.0,0.0,0.0,0.0,0.0,0.0,0.0,0.0,0.0,0.0,0.0,0.0,0.0,0.0,0.0,0.0,0.0,0.0,0.0,0.0,0.0,0.0,0.0,0.0,0.0,0.0,0.0,0.0,0.0,0.0,0.0,0.0,0.0,0.0,0.0,0.0,0.0,0.0,0.0,0.0,0.0,0.0,0.0,0.0,0.0,0.0,0.0,0.0,0.0,0.0,0.0,0.0,0.0,0.0,0.0,0.0,0.0,0.0,0.0,0.0,0.0,0.0,0.0,-1.4093,-1.4564,-1.5602,-1.5819,-1.5891,-1.5891,-1.5409,-1.4871,-1.4334,-1.3918,0.0,0.0,0.0,0.0,0.0,0.0,0.0,0.0,0.0,0.0,0.0,0.0,0.0,0.0,0.0,0.0,0.0,0.0,0.0,0.0,0.0,0.0,0.0,0.0,0.0,0.0,0.0,0.0,0.0,0.0,0.0,0.0,0.0,0.0,0.0,0.0,0.0,0.0,0.0,0.0,0.0,0.0,0.0,0.0,0.0,0.0,0.0,0.0,0.0,0.0,0.0,0.0,0.0,0.0,0.0,0.0,0.0,0.0,0.0,0.0,0.0,0.0,0.0,0.0,0.0,0.0,0.0,0.0,0.0,0.0,0.0,0.0,0.0,0.0,0.0,0.0,0.0,0.0,0.0,0.0,0.0,0.0,0.0,0.0,0.0,0.0,0.0,0.0,0.0,0.0,0.0,0.0,0.0,0.0,0.0,0.0,0.0,0.0,0.0,0.0,0.0,0.0,-1.4654,-1.5083,-1.5813,-1.5891,-1.5891,-1.5891,-1.5354,-1.4811,-1.4328,-1.3682,0.0,0.0,0.0,0.0,0.0,0.0,0.0,0.0,0.0,0.0,0.0,0.0,0.0,0.0,0.0,0.0,0.0,0.0,0.0,0.0,0.0,0.0,0.0,0.0,0.0,0.0,0.0,0.0,0.0,0.0,0.0,0.0,0.0,0.0,0.0,0.0,0.0,0.0,0.0,0.0,0.0,0.0,0.0,0.0,0.0,0.0,0.0,0.0,0.0,0.0,0.0,0.0,0.0,0.0,0.0,0.0,0.0,0.0,0.0,0.0,0.0,0.0,0.0,0.0,0.0,0.0,0.0,0.0,0.0,0.0,0.0,0.0,0.0,0.0,0.0,0.0,0.0,0.0,0.0,0.0,0.0,0.0,0.0,0.0,0.0,0.0,0.0,0.0,0.0,0.0,0.0,0.0,0.0,0.0,0.0,0.0,0.0,0.0,0.0,0.0,0.0,0.0,-1.4467,-1.5288,-1.5831,-1.5891,-1.5891,-1.5891,-1.5185,-1.4618,-1.4316,-1.3332,0.0,0.0,0.0,0.0,0.0,0.0,0.0,0.0,0.0,0.0,0.0,0.0,0.0,0.0,0.0,0.0,0.0,0.0,0.0,0.0,0.0,0.0,0.0,0.0,0.0,0.0,0.0,0.0,0.0,0.0,0.0,0.0,0.0,0.0,0.0,0.0,0.0,0.0,0.0,0.0,0.0,0.0,0.0,0.0,0.0,0.0,0.0,0.0,0.0,0.0,0.0,0.0,0.0,0.0,0.0,0.0,0.0,0.0,0.0,0.0,0.0,0.0,0.0,0.0,0.0,0.0,0.0,0.0,0.0,0.0,0.0,0.0,0.0,0.0,0.0,0.0,0.0,0.0,0.0,0.0,0.0,0.0,0.0,0.0,0.0,0.0,0.0,0.0,0.0,0.0,0.0,0.0,0.0,0.0,0.0,0.0,0.0,0.0,0.0,0.0,0.0,0.0,-1.4407,-1.5125,0.0,-1.5891,-1.5825,-1.5656,-1.5228,-1.463,-1.3857,0.0,0.0,0.0,0.0,0.0,0.0,0.0,0.0,0.0,0.0,0.0,0.0,0.0,0.0,0.0,0.0,0.0,0.0,0.0,0.0,0.0,0.0,0.0,0.0,0.0,0.0,0.0,0.0,0.0,0.0,0.0,0.0,0.0,0.0,0.0,0.0,0.0,0.0,0.0,0.0,0.0,0.0,0.0,0.0,0.0,0.0,0.0,0.0,0.0,0.0,0.0,0.0,0.0,0.0,0.0,0.0,0.0,0.0,0.0,0.0,0.0,0.0,0.0,0.0,0.0,0.0,0.0,0.0,0.0,0.0,0.0,0.0,0.0,0.0,0.0,0.0,0.0,0.0,0.0,0.0,0.0,0.0,0.0,0.0,0.0,0.0,0.0,0.0,0.0,0.0,0.0,0.0,0.0,0.0,0.0,0.0,0.0,0.0,0.0,0.0,0.0,0.0,-1.3664,-1.4401,-1.5113,0.0,-1.5891,-1.5783,-1.5523,-1.5185,-1.4564,-1.3574,0.0,0.0,0.0,0.0,0.0,0.0,0.0,0.0,0.0,0.0,0.0,0.0,0.0,0.0,0.0,0.0,0.0,0.0,0.0,0.0,0.0,0.0,0.0,0.0,0.0,0.0,0.0,0.0,0.0,0.0,0.0,0.0,0.0,0.0,0.0,0.0,0.0,0.0,0.0,0.0,0.0,0.0,0.0,0.0,0.0,0.0,0.0,0.0,0.0,0.0,0.0,0.0,0.0,0.0,0.0,0.0,0.0,0.0,0.0,0.0,0.0,0.0,0.0,0.0,0.0,0.0,0.0,0.0,0.0,0.0,0.0,0.0,0.0,0.0,0.0,0.0,0.0,0.0,0.0,0.0,0.0,0.0,0.0,0.0,0.0,0.0,0.0,0.0,0.0,0.0,0.0,0.0,0.0,0.0,0.0,0.0,0.0,0.0,0.0,0.0,0.0,0.0,-1.3441,-1.4449,-1.5312,-1.5831,-1.5891,-1.5783,-1.5517,-1.5022,-1.437,0.0,0.0,0.0,0.0,0.0,0.0,0.0,0.0,0.0,0.0,0.0,0.0,0.0,0.0,0.0,0.0,0.0,0.0,0.0,0.0,0.0,0.0,0.0,0.0,0.0,0.0,0.0,0.0,0.0,0.0,0.0,0.0,0.0,0.0,0.0,0.0,0.0,0.0,0.0,0.0,0.0,0.0,0.0,0.0,0.0,0.0,0.0,0.0,0.0,0.0,0.0,0.0,0.0,0.0,0.0,0.0,0.0,0.0,0.0,0.0,0.0,0.0,0.0,0.0,0.0,0.0,0.0,0.0,0.0,0.0,0.0,0.0,0.0,0.0,0.0,0.0,0.0,0.0,0.0,0.0,0.0,0.0,0.0,0.0,0.0,0.0,0.0,0.0,0.0,0.0,0.0,0.0,0.0,0.0,0.0,0.0,0.0,0.0,0.0,0.0,0.0,0.0,0.0,-1.3423,-1.4449,-1.5312,-1.5831,-1.5891,-1.5704,-1.5264,-1.5083,-1.4407,-1.3031,0.0,0.0,0.0,0.0,0.0,0.0,0.0,0.0,0.0,0.0,0.0,0.0,0.0,0.0,0.0,0.0,0.0,0.0,0.0,0.0,0.0,0.0,0.0,0.0,0.0,0.0,0.0,0.0,0.0,0.0,0.0,0.0,0.0,0.0,0.0,0.0,0.0,0.0,0.0,0.0,0.0,0.0,0.0,0.0,0.0,0.0,0.0,0.0,0.0,0.0,0.0,0.0,0.0,0.0,0.0,0.0,0.0,0.0,0.0,0.0,0.0,0.0,0.0,0.0,0.0,0.0,0.0,0.0,0.0,0.0,0.0,0.0,0.0,0.0,0.0,0.0,0.0,0.0,0.0,0.0,0.0,0.0,0.0,0.0,0.0,0.0,0.0,0.0,0.0,0.0,0.0,0.0,0.0,0.0,0.0,0.0,0.0,0.0,0.0,0.0,0.0,0.0,-1.3411,-1.4449,-1.5312,-1.5831,-1.5891,-1.568,-1.5155,-1.5107,-1.4419,-1.2807,0.0,0.0,0.0,0.0,0.0,0.0,0.0,0.0,0.0,0.0,0.0,0.0,0.0,0.0,0.0,0.0,0.0,0.0,0.0,0.0,0.0,0.0,0.0,0.0,0.0,0.0,0.0,0.0,0.0,0.0,0.0,0.0,0.0,0.0,0.0,0.0,0.0,0.0,0.0,0.0,0.0,0.0,0.0,0.0,0.0,0.0,0.0,0.0,0.0,0.0,0.0,0.0,0.0,0.0,0.0,0.0,0.0,0.0,0.0,0.0,0.0,0.0,0.0,0.0,0.0,0.0,0.0,0.0,0.0,0.0,0.0,0.0,0.0,0.0,0.0,0.0,0.0,0.0,0.0,0.0,0.0,0.0,0.0,0.0,0.0,0.0,0.0,0.0,0.0,0.0,0.0,0.0,0.0,0.0,0.0,0.0,0.0,0.0,0.0,0.0,0.0,0.0,-1.3405,-1.4449,-1.5312,-1.5831,-1.5891,-1.568,-1.5155,-1.5107,-1.4431,-1.2843,0.0,0.0,0.0,0.0,0.0,0.0,0.0,0.0,0.0,0.0,0.0,0.0,0.0,0.0,0.0,0.0,0.0,0.0,0.0,0.0,0.0,0.0,0.0,0.0,0.0,0.0,0.0,0.0,0.0,0.0,0.0,0.0,0.0,0.0,0.0,0.0,0.0,0.0,0.0,0.0,0.0,0.0,0.0,0.0,0.0,0.0,0.0,0.0,0.0,0.0,0.0,0.0,0.0,0.0,0.0,0.0,0.0,0.0,0.0,0.0,-1.3489,0.0,0.0,0.0,0.0,0.0,0.0,0.0,0.0,0.0,0.0,0.0,0.0,0.0,0.0,0.0,0.0,0.0,0.0,0.0,0.0,0.0,0.0,0.0,0.0,0.0,0.0,0.0,0.0,0.0,0.0,0.0,0.0,0.0,0.0,0.0,0.0,0.0,0.0,0.0,0.0,0.0,-1.3387,-1.4449,-1.5312,-1.5831,-1.5891,-1.568,-1.5155,-1.5107,-1.4515,-1.3121,-1.2578,0.0,0.0,0.0,0.0,0.0,0.0,0.0,0.0,0.0,0.0,0.0,0.0,0.0,0.0,0.0,0.0,0.0,0.0,0.0,0.0,0.0,0.0,0.0,0.0,0.0,0.0,0.0,0.0,0.0,0.0,0.0,0.0,0.0,0.0,0.0,0.0,0.0,0.0,0.0,0.0,0.0,0.0,0.0,0.0,0.0,0.0,0.0,0.0,0.0,0.0,0.0,0.0,0.0,0.0,0.0,0.0,0.0,0.0,0.0,0.0,-1.3966,0.0,0.0,0.0,0.0,0.0,0.0,0.0,0.0,0.0,0.0,0.0,0.0,0.0,0.0,0.0,0.0,0.0,0.0,0.0,0.0,0.0,0.0,0.0,0.0,0.0,0.0,0.0,0.0,0.0,0.0,0.0,0.0,0.0,0.0,0.0,0.0,0.0,0.0,0.0,0.0,-1.3381,-1.4449,-1.5312,-1.5831,-1.5891,-1.568,-1.5155,-1.5107,-1.4594,-1.3387,-1.2801,0.0,0.0,0.0,0.0,0.0,0.0,0.0,0.0,0.0,0.0,0.0,0.0,0.0,0.0,0.0,0.0,0.0,0.0,0.0,0.0,0.0,0.0,0.0,0.0,0.0,0.0,0.0,0.0,0.0,0.0,0.0,0.0,0.0,0.0,0.0,0.0,0.0,0.0,0.0,0.0,0.0,0.0,0.0,0.0,0.0,0.0,0.0,0.0,0.0,0.0,0.0,0.0,0.0,-1.5125,-1.5276,-1.5071,-1.5288,-1.5505,-1.5686,-1.5252,-1.4986,-1.4829,-1.4503,0.0,0.0,0.0,0.0,0.0,0.0,0.0,0.0,0.0,0.0,0.0,0.0,0.0,0.0,0.0,0.0,0.0,0.0,0.0,0.0,0.0,0.0,0.0,0.0,-1.39,-1.4069,0.0,0.0,0.0,0.0,0.0,0.0,0.0,0.0,0.0,0.0,0.0,0.0,-1.3447,-1.4473,-1.5312,-1.5831,-1.5849,-1.5626,-1.5149,-1.5065,-1.4624,-1.3646,-1.3121,-1.2391,0.0,0.0,0.0,0.0,0.0,0.0,0.0,0.0,0.0,0.0,0.0,0.0,0.0,0.0,0.0,0.0,0.0,0.0,0.0,0.0,0.0,0.0,0.0,0.0,0.0,0.0,0.0,0.0,0.0,0.0,0.0,0.0,-1.5389,-1.411,0.0,0.0,0.0,0.0,0.0,0.0,0.0,0.0,0.0,0.0,0.0,0.0,0.0,-1.3512,-1.466,-1.424,-1.4607,-1.5686,-1.6229,-1.6471,-1.6441,-1.6477,-1.6507,-1.6537,-1.6471,0.0,-1.536,-1.4865,0.0,0.0,0.0,0.0,0.0,0.0,0.0,0.0,0.0,0.0,0.0,0.0,0.0,0.0,0.0,0.0,0.0,0.0,0.0,0.0,0.0,0.0,-1.5113,-1.4624,-1.4588,-1.4612,0.0,-1.3477,-1.2487,-1.1926,-1.1467,0.0,0.0,0.0,0.0,0.0,0.0,0.0,-1.3719,-1.4588,-1.5312,-1.5831,-1.5686,-1.5433,-1.5137,-1.4902,-1.4503,-1.3894,-1.3574,-1.3031,-1.2192,-1.1413,0.0,0.0,0.0,0.0,0.0,0.0,0.0,0.0,0.0,0.0,0.0,0.0,0.0,0.0,0.0,0.0,0.0,0.0,0.0,0.0,0.0,0.0,0.0,0.0,0.0,0.0,0.0,0.0,0.0,-1.5752,-1.513,-1.4289,-1.3798,-1.326,0.0,0.0,0.0,0.0,0.0,0.0,0.0,0.0,0.0,-1.2149,-1.2314,-1.3182,-1.4731,-1.4565,-1.506,-1.635,-1.6736,-1.6917,-1.6917,-1.6917,-1.7002,-1.7123,-1.6827,-1.6585,-1.6344,-1.5656,-1.5131,-1.4727,0.0,0.0,0.0,0.0,-1.4159,-1.4189,-1.4642,-1.4702,0.0,-1.4407,0.0,0.0,0.0,0.0,0.0,0.0,0.0,0.0,0.0,0.0,-1.5258,-1.5179,-1.527,-1.5336,-1.5191,-1.4576,-1.3809,0.0,-1.2506,-1.2017,-1.126,0.0,0.0,0.0,0.0,-1.2916,-1.399,-1.4702,-1.5252,-1.5626,-1.5565,-1.533,-1.492,-1.4781,-1.4552,-1.4153,-1.3882,-1.3507,-1.3006,-1.2216,-1.1486,0.0,0.0,0.0,0.0,0.0,0.0,0.0,0.0,0.0,0.0,0.0,0.0,0.0,0.0,0.0,0.0,0.0,0.0,0.0,0.0,0.0,0.0,0.0,0.0,0.0,0.0,0.0,0.0,-1.5736,-1.5025,-1.4513,-1.4129,-1.3555,0.0,0.0,0.0,0.0,0.0,0.0,-1.0602,-1.0892,-1.1186,-1.163,-1.1775,-1.2688,-1.4427,-1.45,-1.5167,-1.6439,-1.692,-1.7195,-1.7195,-1.7195,-1.7298,-1.7461,-1.7068,-1.7008,-1.7129,-1.632,-1.5759,-1.5384,-1.5119,-1.4847,-1.4636,-1.4914,-1.4883,-1.4799,-1.5469,-1.5529,-1.5288,-1.5161,0.0,-1.431,-1.397,0.0,0.0,0.0,0.0,-1.496,-1.509,-1.5265,-1.5463,-1.5658,-1.5799,-1.5837,-1.5644,-1.539,-1.4932,0.0,-1.3541,-1.297,-1.2255,0.0,0.0,0.0,0.0,-1.3344,-1.4286,-1.4817,-1.5209,-1.5469,-1.5378,-1.5143,-1.4751,-1.4654,-1.4521,-1.431,-1.4117,-1.3888,-1.3628,-1.2976,-1.2337,-1.1706,0.0,0.0,0.0,0.0,0.0,0.0,0.0,0.0,0.0,0.0,0.0,0.0,0.0,0.0,0.0,0.0,0.0,0.0,0.0,0.0,0.0,0.0,0.0,0.0,0.0,0.0,0.0,0.0,0.0,-1.4369,-1.4503,0.0,0.0,0.0,0.0,-1.0947,-1.0415,-1.0138,-1.0146,-1.0751,-1.1102,-1.1118,-1.1284,-1.2026,-1.3343,-1.3656,-1.4411,-1.5655,-1.6921,-1.7461,-1.7461,-1.7461,-1.7473,-1.7485,-1.7455,-1.7449,-1.74,-1.6592,-1.6241,-1.6193,-1.5934,-1.5674,-1.5469,-1.5734,-1.5819,-1.5849,-1.6139,-1.6066,-1.5891,-1.6127,-1.5517,-1.4733,-1.4944,-1.468,0.0,0.0,-1.5494,-1.5985,-1.6157,-1.6233,-1.6234,-1.6252,-1.6099,-1.5885,-1.5873,-1.5662,-1.5415,0.0,-1.4209,-1.3522,-1.3719,0.0,-1.2735,-1.2963,-1.3501,-1.4051,-1.4624,-1.4938,-1.5209,-1.5469,-1.5052,-1.4745,-1.4721,-1.4473,-1.431,-1.4298,-1.4286,-1.4159,-1.3894,-1.361,-1.3085,-1.2288,-1.1479,0.0,0.0,0.0,0.0,0.0,0.0,0.0,0.0,0.0,0.0,0.0,0.0,0.0,0.0,0.0,0.0,0.0,0.0,0.0,0.0,0.0,0.0,0.0,0.0,0.0,0.0,0.0,0.0,-1.5099,-1.5306,0.0,-1.3402,-1.2785,-1.1921,-1.0554,-0.9875,-0.9531,-0.9634,-0.9961,-1.0108,-1.0108,-1.0256,-1.0936,-1.2252,-1.3209,-1.4321,-1.5634,-1.6885,-1.7485,-1.7485,-1.7485,-1.7485,-1.7485,-1.7485,-1.7485,-1.7461,-1.7171,-1.6954,-1.6779,-1.6513,-1.6356,-1.6284,-1.6374,-1.641,-1.6423,-1.6519,-1.6368,-1.6103,-1.5855,-1.5523,-1.5203,-1.5131,-1.5079,-1.5125,-1.5314,-1.5667,-1.5999,-1.6256,-1.6302,-1.6324,-1.653,-1.6471,-1.6418,-1.6418,-1.6337,-1.6317,-1.6445,-1.5277,-1.4232,-1.4186,-1.3904,-1.3761,-1.3863,-1.4189,-1.4618,-1.5149,-1.5155,-1.5143,-1.524,-1.4932,-1.4642,-1.4461,-1.4503,-1.4544,-1.4544,-1.4742,-1.4617,-1.4157,-1.3887,-1.3395,-1.2578,-1.2117,-1.1384,0.0,0.0,0.0,0.0,0.0,0.0,0.0,0.0,0.0,0.0,0.0,0.0,0.0,0.0,0.0,0.0,0.0,0.0,0.0,0.0,0.0,0.0,0.0,0.0,0.0,0.0,-1.5437,-1.5478,-1.5429,-1.4812,-1.3414,-1.2452,-1.1411,-1.0077,-0.956,-0.9351,-0.9452,-0.9598,-0.968,-0.968,-0.9892,-1.0365,-1.1209,-1.2946,-1.4262,-1.5095,-1.6703,-1.7485,-1.7485,-1.7485,-1.7485,-1.7485,-1.7608,-1.7667,-1.7667,-1.7778,-1.7726,-1.7496,-1.7146,-1.6911,-1.6845,-1.693,-1.6911,-1.6821,-1.673,-1.6568,-1.6374,-1.5936,-1.5842,-1.5857,-1.5679,-1.5857,-1.6051,-1.6051,-1.628,-1.6524,-1.669,-1.6696,-1.6643,-1.6849,-1.6783,-1.6677,-1.6677,-1.6677,-1.6789,-1.7008,-1.6067,-1.522,-1.5134,-1.4973,-1.4863,-1.4863,-1.5097,-1.5354,-1.571,-1.5526,-1.536,-1.536,-1.5041,-1.4746,-1.446,-1.456,-1.4599,-1.4456,-1.4659,-1.4583,-1.4025,-1.3839,-1.3435,-1.2795,-1.2429,-1.1859,-1.0983,0.0,0.0,0.0,0.0,0.0,0.0,0.0,0.0,0.0,0.0,0.0,0.0,0.0,0.0,0.0,0.0,0.0,0.0,0.0,0.0,0.0,0.0,0.0,-1.5285,-1.5144,-1.5215,-1.5499,-1.4894,-1.3966,-1.2762,-1.1697,-1.0659,-0.9511,-0.9534,-0.9615,-0.9615,-0.9744,-0.9822,-0.9822,-1.0122,-1.0304,-1.0365,-1.2882,-1.4143,-1.4202,-1.6467,-1.7543,-1.7543,-1.7543,-1.7543,-1.7543,-1.7849,-1.8025,-1.8025,-1.8305,-1.8421,-1.8363,-1.7772,-1.7386,-1.7192,-1.7447,-1.7374,-1.7114,-1.6847,-1.6741,-1.6683,-1.6417,-1.6477,-1.6677,-1.6677,-1.6955,-1.7173,-1.7173,-1.7378,-1.7582,-1.7582,-1.7378,-1.7179,-1.7226,-1.6955,-1.673,-1.673,-1.673,-1.673,-1.673,-1.6514,-1.6439,-1.6762,-1.6381,-1.6042,-1.6042,-1.6164,0.0,-1.6329,-1.6094,-1.5916,-1.591,-1.542,-1.4994,-1.4742,-1.4634,-1.4418,-1.394,-1.411,-1.3976,-1.3429,-1.3448,-1.3323,-1.2915,-1.245,-1.2101,-1.1843,0.0,0.0,0.0,0.0,0.0,0.0,0.0,0.0,0.0,0.0,0.0,0.0,0.0,0.0,0.0,0.0,0.0,0.0,0.0,0.0,0.0,-1.6452,-1.6779,-1.6162,-1.5501,-1.5421,-1.6272,-1.5361,-1.4323,-1.3494,-1.2285,-1.1009,-0.976,-0.9737,-0.9764,-0.9764,-0.998,-1.0061,-0.9822,-1.0365,-1.0963,-1.1679,-1.3531,-1.4906,-1.586,-1.7408,-1.8123,-1.8123,-1.8123,-1.8123,-1.8188,-1.8246,-1.8305,-1.8305,-1.8363,-1.8421,-1.8363,-1.8246,-1.8079,-1.8023,-1.8156,-1.7954,-1.7685,-1.7466,-1.7189,-1.6961,-1.6672,-1.663,-1.6677,-1.6677,-1.6736,-1.6842,-1.6842,-1.6895,-1.7001,-1.7279,-1.7279,-1.7232,-1.743,-1.7424,-1.7371,-1.7371,-1.7371,-1.7371,-1.7371,-1.7305,-1.7147,-1.678,-1.6611,-1.6507,-1.6507,-1.6571,0.0,-1.6563,-1.638,-1.6132,-1.5929,-1.5592,-1.5299,-1.5,-1.491,-1.4746,-1.4449,-1.4397,-1.4161,-1.3654,-1.3641,-1.3606,-1.3494,-1.2985,-1.2661,0.0,0.0,0.0,0.0,0.0,0.0,0.0,0.0,0.0,0.0,0.0,0.0,0.0,0.0,0.0,0.0,0.0,0.0,0.0,0.0,0.0,0.0,-1.7171,-1.7408,-1.633,-1.5731,-1.5747,-1.6598,-1.509,-1.3946,-1.3741,-1.1985,-1.0604,-0.9883,-0.9822,-0.9822,-0.9822,-1.0126,-1.0183,-1.0004,-1.1205,-1.2045,-1.2637,-1.4604,-1.5978,-1.675,-1.7883,-1.8421,-1.8421,-1.8421,-1.8421,0.0,-1.8532,-1.859,-1.8648,-1.8771,-1.8829,0.0,0.0,0.0,0.0,0.0,-1.8072,-1.7792,-1.7518,-1.7287,-1.7133,-1.6953,-1.7001,-1.71,-1.71,-1.71,-1.71,-1.71,-1.71,-1.7107,-1.7325,-1.7384,-1.7437,-1.7582,-1.7582,-1.7582,-1.7582,-1.7582,-1.7582,-1.7582,-1.7582,0.0,-1.7153,-1.71,-1.71,-1.71,-1.71,-1.71,-1.71,-1.6853,-1.6619,-1.6457,-1.608,-1.5719,-1.5454,-1.5256,0.0,0.0,0.0,-1.42,-1.3574,-1.3526,0.0,0.0,0.0,0.0,0.0,0.0,0.0,0.0,-1.2646,-1.2631,0.0,0.0,0.0,0.0,0.0,0.0,0.0,0.0,0.0,0.0,0.0,0.0,0.0,0.0,0.0,0.0,-1.7913,-1.7649,-1.6174,-1.5934,-1.6121,-1.664,-1.4489,-1.3167,-1.3627,-1.1325,-0.9822,-0.9883,-0.9822,-0.9819,-0.9883,0.0,0.0,0.0,0.0,-1.3361,-1.3655,-1.5919,-1.7114,-1.7291,-1.8123,-1.8538,-1.8538,-1.8538,-1.8538,-1.8538,-1.8823,-1.8939,-1.8997,-1.9301,-1.9424,-1.9366,-1.8777,-1.8538,-1.8506,-1.8224,-1.7949,-1.7668,-1.7325,0.0,0.0,-1.7232,-1.7437,-1.7582,-1.7582,-1.7582,-1.7582,-1.7582,-1.7582,-1.7582,-1.7582,-1.7582,-1.7582,-1.7582,-1.7582,-1.7582,-1.7582,-1.7582,-1.7582,-1.7582,-1.7582,-1.7582,-1.7582,-1.7582,-1.7582,-1.7582,-1.7582,-1.7582,-1.7582,-1.7414,-1.7239,-1.7206,0.0,0.0,-1.6019,-1.5684,-1.5127,-1.4379,-1.4432,-1.4203,-1.3472,-1.3405,-1.3446,-1.3498,-1.3971,-1.4315,-1.4569,-1.4836,-1.5028,-1.5022,-1.3353,-1.3173,0.0,0.0,0.0,0.0,0.0,0.0,0.0,0.0,0.0,0.0,0.0,0.0,0.0,0.0,0.0,-1.8196,-1.8345,-1.8014,-1.647,-1.6211,-1.6326,-1.6664,-1.4635,-1.3337,-1.3641,-1.1325,-0.9943,-1.0183,-0.994,-1.0061,-1.0607,-1.0668,-1.1148,-1.2217,-1.3122,-1.449,-1.6256,-1.7038,-1.7935,-1.8952,0.0,0.0,-1.9191,-1.9191,-1.9191,-1.9191,-1.9307,-1.9307,-1.9307,-1.9366,-1.9424,-1.9366,-1.9249,-1.9191,-1.9152,-1.886,-1.8569,-1.8278,-1.7932,-1.7682,-1.7536,-1.7536,-1.7582,-1.7582,-1.7582,-1.7582,0.0,-1.7582,-1.7582,-1.7582,-1.7582,-1.7582,-1.7582,-1.7582,-1.7582,-1.7582,-1.7582,-1.7582,-1.7582,-1.7582,-1.7582,-1.7582,-1.7582,-1.7582,-1.7582,-1.7582,-1.7582,-1.7582,-1.7582,-1.7528,-1.746,-1.7226,-1.7099,-1.6881,-1.659,-1.6031,-1.5571,-1.5186,-1.4765,-1.4426,-1.4269,-1.4529,-1.4649,-1.4665,-1.4763,-1.4867,-1.4877,-1.4981,-1.5129,-1.5297,-1.4716,-1.462,0.0,0.0,0.0,0.0,0.0,0.0,0.0,0.0,0.0,0.0,0.0,-2.0359,-2.0529,0.0,-1.975,-1.8801,-1.8457,-1.788,-1.6472,-1.6519,-1.6736,-1.6881,-1.5328,-1.4084,-1.3765,-1.2045,-1.0785,-1.0365,-1.0304,-1.0725,-1.1683,-1.1924,-1.2582,-1.3834,-1.5025,-1.6149,-1.7267,-1.8046,-1.8771,-1.9424,-1.9424,-1.9424,-1.9424,-1.9424,-1.9424,-1.9424,-1.9424,-1.9424,-1.9424,-1.9424,-1.9424,-1.9424,-1.9424,-1.9424,-1.9312,-1.8871,-1.8617,-1.8424,-1.7969,-1.7709,-1.7582,-1.7582,-1.7582,-1.7582,-1.7582,-1.7582,-1.7582,-1.7582,-1.7582,-1.7582,-1.7582,-1.7582,-1.7582,-1.7582,-1.7582,-1.7582,-1.7582,-1.7582,-1.7582,-1.7582,-1.7582,-1.7582,-1.7582,-1.7582,-1.7582,-1.7582,-1.7582,-1.7582,-1.7582,-1.7582,-1.7528,-1.7434,-1.7286,-1.7139,-1.6941,-1.6393,-1.5992,-1.5845,-1.5418,-1.5132,-1.5132,-1.5317,-1.5398,-1.5398,-1.5591,-1.5665,-1.5665,-1.5765,-1.5912,-1.6046,-1.5905,-1.5758,0.0,0.0,0.0,0.0,0.0,0.0,0.0,0.0,-2.2533,-2.2889,-2.2076,-2.1372,-2.1609,-2.0988,-2.015,-1.9376,-1.8748,-1.7887,-1.6643,-1.6815,-1.7168,-1.728,-1.6113,-1.4896,-1.3889,-1.2831,-1.1752,-1.0607,-1.0668,-1.1386,-1.2817,-1.3062,-1.3954,-1.5505,-1.6803,-1.763,-1.787,-1.8887,-1.9424,-1.9424,-1.9424,-1.9424,-1.9424,-1.9424,-1.9424,-1.9424,-1.9424,-1.9424,-1.9424,-1.9424,-1.9424,-1.9424,-1.9424,-1.939,-1.9219,-1.8691,-1.849,-1.8404,-1.7796,-1.7582,-1.7582,-1.7582,-1.7582,-1.7582,-1.7582,-1.7582,-1.7582,-1.7582,-1.7582,-1.7582,-1.7582,-1.7582,-1.7582,-1.7582,-1.7582,-1.7582,-1.7582,-1.7582,-1.7582,-1.7582,-1.7582,-1.7582,-1.7582,-1.7582,-1.7582,-1.7582,-1.7582,-1.7582,-1.7582,-1.7582,-1.7582,-1.7582,-1.7427,-1.7266,-1.7206,-1.6764,-1.6469,-1.6359,-1.6132,-1.5951,-1.5951,-1.5951,-1.5951,-1.5951,-1.6233,-1.6359,-1.6359,-1.6587,-1.6707,-1.6707,-1.6767,-1.6633,-2.8156,-2.5973,-2.4553,-2.52,-2.5138,-2.5256,0.0,0.0,-2.4982,-2.4689,-2.4117,-2.3439,-2.2639,-2.2565,-2.1971,-1.9903,-1.9469,-1.8883,-1.7213,-1.705,-1.7298,-1.7833,-1.6492,-1.5187,-1.4143,-1.2951,-1.1933,-1.1212,-1.097,-1.1627,-1.3485,-1.3361,-1.4431,-1.7155,-1.7396,-1.8052,-1.9185,-1.9307,-1.9424,-1.9424,-1.9424,-1.9424,-1.9424,-1.9424,-1.9424,-1.9424,-1.9424,-1.9424,-1.9424,-1.9424,-1.9424,-1.9424,-1.9424,-1.9205,-1.8938,-1.8611,-1.849,-1.8404,-1.7796,-1.7582,-1.7582,-1.7582,-1.7582,-1.7582,-1.7582,-1.7582,-1.7582,-1.7582,-1.7582,-1.7582,-1.7582,-1.7582,-1.7582,-1.7582,-1.7582,-1.7582,-1.7582,-1.7582,-1.7582,-1.7582,-1.7582,-1.7582,-1.7582,-1.7582,-1.7582,-1.7582,-1.7582,-1.7582,-1.7582,-1.7582,-1.7582,-1.7582,-1.7555,-1.7481,-1.7226,-1.7146,-1.6991,-1.6673,-1.6627,-1.6607,-1.6607,-1.6607,-1.6607,-1.6607,-1.664,-1.666,-1.666,-1.6693,-1.6707,-1.6714,-1.7025,-1.6991,-2.8987,-2.7567,-2.6591,0.0,-2.6697,-2.7035,-2.7878,-2.7139,-2.6218,-2.6044,-2.5119,-2.4016,-2.3046,-2.2375,-2.156,0.0,-1.9581,-1.894,-1.7774,-1.7745,-1.7946,-1.8181,-1.7649,-1.6455,-1.4609,-1.343,-1.2359,-1.1394,-1.2049,-1.3186,-1.4738,-1.5381,-1.6562,-1.8532,-1.859,-1.8887,-1.9366,-1.9424,-1.9424,-1.9424,-1.9424,-1.9424,-1.9424,-1.9424,-1.9424,-1.9424,-1.9424,-1.9424,-1.9424,-1.9424,-1.9424,-1.9424,-1.9424,-1.9185,-1.8885,-1.8597,-1.8384,-1.817,-1.7736,-1.7582,-1.7582,-1.7582,-1.7582,-1.7582,-1.7582,-1.7582,-1.7582,-1.7582,-1.7582,-1.7582,-1.7582,-1.7582,-1.7582,-1.7582,-1.7582,-1.7582,-1.7582,-1.7582,-1.7582,-1.7582,-1.7582,-1.7582,-1.7582,-1.7582,-1.7582,-1.7582,-1.7582,-1.7582,-1.7582,-1.7582,-1.7582,-1.7582,-1.7582,-1.7528,-1.7467,-1.7454,-1.7348,-1.7221,-1.7215,-1.7215,-1.7215,-1.7215,-1.7215,-1.7215,-1.7215,-1.7215,-1.7215,-1.7215,-1.7215,-1.7215,-1.7393,-1.7335,-2.9221,0.0,0.0,-2.7527,-2.7816,-2.8268,-2.8619,-2.8121,-2.7353,-2.6761,-2.579,-2.4639,-2.3338,-2.2526,-2.1747,-2.093,-2.0187,-1.9444,-1.8737,-1.8519,-1.8421,-1.8532,-1.824,-1.7343,-1.5553,-1.4679,-1.3729,-1.259,-1.3545,-1.4798,-1.6042,-1.6985,-1.8052,-1.9366,-1.9424,-1.9424,-1.9424,-1.9424,-1.9424,-1.9424,-1.9424,-1.9424,-1.9424,-1.9424,-1.9424,-1.9424,-1.9424,-1.9424,-1.9424,-1.9424,-1.9424,-1.9417,-1.9279,-1.9065,-1.8764,-1.8477,-1.823,-1.7949,-1.7689,-1.7582,-1.7582,-1.7582,-1.7582,-1.7582,-1.7582,-1.7582,-1.7582,-1.7582,-1.7582,-1.7582,-1.7582,-1.7582,-1.7582,-1.7582,-1.7582,-1.7582,-1.7582,-1.7582,-1.7582,-1.7582,-1.7582,-1.7582,-1.7582,-1.7582,-1.7582,-1.7582,-1.7582,-1.7582,-1.7582,-1.7582,-1.7582,-1.7582,-1.7582,-1.7582,-1.7582,-1.7582,-1.7582,-1.7582,-1.7582,-1.7582,-1.7582,-1.7582,-1.7582,-1.7582,-1.7582,-1.7582,-1.7582,-1.7582,-1.7582,-1.7582,-1.7582,-1.7582,0.0,0.0,-2.7498,-2.7864,-2.8322,-2.8685,-2.8701,-2.9048,-2.8784,-2.657,-2.6302,-2.5819,-2.3786,-2.3546,-2.3485,-2.2756,-2.1595,-2.0688,-2.0187,-1.9152,-1.8532,-1.8881,-1.7818,-1.7167,0.0,-1.7109,-1.652,-1.551,-1.551,-1.6101,-1.7396,-1.7455,-1.8052,-1.9366,-1.9424,-1.9424,-1.9424,-1.9424,-1.9424,-1.9424,-1.9424,-1.9424,-1.9424,-1.9424,-1.9424,-1.9424,-1.9424,-1.9424,-1.9424,-1.9424,-1.9424,-1.9397,-1.9052,-1.8758,-1.847,-1.8115,-1.8002,-1.7949,-1.7689,-1.7582,-1.7582,-1.7582,-1.7582,-1.7582,-1.7582,-1.7582,-1.7582,-1.7582,-1.7582,-1.7582,-1.7582,-1.7582,-1.7582,-1.7582,-1.7582,-1.7582,-1.7582,-1.7582,-1.7582,-1.7582,-1.7582,-1.7582,-1.7582,-1.7582,-1.7582,-1.7582,-1.7582,-1.7582,-1.7582,-1.7582,-1.7582,-1.7582,-1.7582,-1.7582,-1.7582,-1.7582,-1.7582,-1.7582,-1.7582,-1.7582,-1.7582,-1.7582,-1.7582,-1.7582,-1.7582,-1.7582,-1.7582,-1.7582,-1.7582,-1.7582,-1.7582,-1.7582,-2.9128,0.0,-2.8467,-2.9247,-2.9584,-2.9712,-2.9704,-2.9818,-2.9566,-2.8096,-2.7237,-2.6282,-2.4894,-2.4183,-2.3646,-2.3098,-2.2843,-2.228,-2.1015,-2.0479,-1.9975,-1.9301,-1.8829,0.0,0.0,0.0,0.0,-1.5628,-1.6397,-1.7044,-1.7455,-1.8292,-1.8946,-1.9366,-1.9424,-1.9424,-1.9424,-1.9424,-1.9424,-1.9424,-1.9424,-1.9424,-1.9424,-1.9424,-1.9424,-1.9424,-1.9424,-1.9424,-1.9424,-1.9424,-1.9252,-1.9065,-1.8965,-1.8624,-1.8129,-1.8029,-1.7916,-1.7722,-1.7615,-1.7582,-1.7582,-1.7582,-1.7582,-1.7582,-1.7582,-1.7582,-1.7582,-1.7582,-1.7582,-1.7582,-1.7582,-1.7582,-1.7582,-1.7582,-1.7582,-1.7582,-1.7582,-1.7582,-1.7582,-1.7582,-1.7582,-1.7582,-1.7582,-1.7582,-1.7582,-1.7582,-1.7582,-1.7582,-1.7582,-1.7582,-1.7582,-1.7582,-1.7582,-1.7582,-1.7582,-1.7582,-1.7582,-1.7582,-1.7582,-1.7582,-1.7582,-1.7582,-1.7582,-1.7582,-1.7582,-1.7582,-1.7582,-1.7582,-1.7582,-1.7582,-1.7582,-1.7582,-2.9464,-2.9349,-2.9213,-3.0008,-3.0216,-3.0216,-3.0216,-3.0216,-2.9886,-2.891,-2.7757,-2.6655,-2.5625,-2.4627,-2.3957,-2.3957,-2.3754,-2.3207,-2.2035,-2.146,-2.0723,-1.954,-1.9424,-1.9424,0.0,0.0,0.0,-1.6938,-1.7701,-1.8169,-1.8169,-1.8946,-1.9424,-1.9424,-1.9424,-1.9424,-1.9424,-1.9424,-1.9424,-1.9424,-1.9424,-1.9424,-1.9424,-1.9424,-1.9424,-1.9424,-1.9424,-1.9305,-1.9205,-1.9205,-1.9038,-1.8758,-1.8651,-1.8322,-1.7975,-1.7869,-1.7756,-1.7582,-1.7582,-1.7582,-1.7582,-1.7582,-1.7582,-1.7582,-1.7582,-1.7582,-1.7582,-1.7582,-1.7582,-1.7582,-1.7582,-1.7582,-1.7582,-1.7582,-1.7582,-1.7582,-1.7582,-1.7582,-1.7582,-1.7582,-1.7582,-1.7582,-1.7582,-1.7582,-1.7582,-1.7582,-1.7582,-1.7582,-1.7582,-1.7582,-1.7582,-1.7582,-1.7582,-1.7582,-1.7582,-1.7582,-1.7582,-1.7582,-1.7582,-1.7582,-1.7582,-1.7582,-1.7582,-1.7582,-1.7582,-1.7582,-1.7582,-1.7582,-1.7582,-1.7582,-1.7582,-1.7582,-2.9511,-2.9626,-2.9726,-3.011,-3.0216,-3.0216,-3.0216,-3.0216,-2.9932,-2.8923,-2.7913,-2.6873,0.0,0.0,-2.444,-2.5258,-2.4438,-2.353,-2.3047,-2.2021,-2.0838,0.0,0.0,0.0,0.0,0.0,0.0,-1.9424,0.0,-1.9424,-1.9424,-1.9424,-1.9424,-1.9424,-1.9424,-1.9424,-1.9424,-1.9424,-1.9424,-1.9424,-1.9424,-1.9424,-1.9424,-1.9424,-1.9424,-1.9424,-1.9352,-1.9185,-1.8925,-1.8911,-1.8731,-1.8437,-1.8102,-1.7982,-1.7935,-1.7689,-1.7582,-1.7582,-1.7582,-1.7582,-1.7582,-1.7582,-1.7582,-1.7582,-1.7582,-1.7582,-1.7582,-1.7582,-1.7582,-1.7582,-1.7582,-1.7582,-1.7582,-1.7582,-1.7582,-1.7582,-1.7582,-1.7582,-1.7635,-1.7687,-1.7733,-1.7733,-1.7635,-1.7635,-1.7687,-1.7635,-1.7582,-1.7582,-1.7582,-1.7582,-1.7582,-1.7582,-1.7582,-1.7582,-1.7582,-1.7582,-1.7582,-1.7582,-1.7582,-1.7582,-1.7582,-1.7582,-1.7582,-1.7582,-1.7582,-1.7582,-1.7582,-1.7582,-1.7582,-1.7582,-1.7582,-1.7582,-2.9714,-2.9843,-3.0074,-3.0147,-3.0216,-3.0216,-3.0216,-3.0216,-3.0022,-2.9432,-2.7961,-2.6532,0.0,0.0,0.0,-2.4794,-2.4963,0.0,-2.3159,-2.2757,0.0,-1.9649,0.0,-1.9424,-1.9424,-1.9424,0.0,0.0,-1.9424,-1.9424,-1.9424,-1.9424,-1.9424,-1.9424,-1.9424,-1.9424,-1.9424,-1.9424,-1.9424,-1.9424,-1.9424,-1.9424,-1.9424,-1.9424,-1.9424,-1.9417,-1.9132,-1.8991,-1.8905,-1.8691,-1.8424,-1.8102,-1.8022,-1.7903,-1.7689,-1.7609,-1.7582,-1.7582,-1.7582,-1.7582,-1.7582,-1.7582,-1.7582,-1.7582,-1.7582,-1.7582,-1.7582,-1.7582,-1.7582,-1.7582,-1.7582,-1.7582,-1.7582,-1.7582,-1.7582,-1.7582,-1.7582,-1.7582,-1.7838,-1.8662,-1.9495,-1.9546,-1.7891,-1.8251,-1.8506,-1.774,-1.7582,-1.7582,-1.7582,-1.7582,-1.7582,-1.7582,-1.7582,-1.7582,-1.7582,-1.7582,-1.7582,-1.7582,-1.7582,-1.7582,-1.7582,-1.7582,-1.7582,-1.7582,-1.7582,-1.7582,-1.7582,-1.7582,-1.7582,-1.7582,-1.7582,-1.7582,-2.9918,-3.0014,-3.0216,-3.0216,-3.0216,-3.0216,-3.0216,-3.0055,-2.9825,-2.955,-2.7783,0.0,-2.5854,-2.4539,0.0,0.0,0.0,0.0,-2.3939,-2.3311,-2.2305,0.0,-1.9707,0.0,-1.9424,-1.9424,-1.9424,0.0,-1.9424,-1.9424,-1.9424,-1.9424,-1.9424,-1.9424,-1.9424,-1.9424,-1.9424,-1.9424,-1.9424,-1.9424,-1.9424,-1.9649,-2.022,-2.022,-2.05,-2.0931,0.0,-1.9619,-1.9473,-1.8631,-1.8381,-1.8469,-1.7996,-1.8047,-1.8251,-1.7786,-1.7582,-1.7582,-1.7582,-1.7582,-1.7582,-1.7582,-1.7582,-1.7582,-1.7582,-1.7582,-1.7582,-1.7582,-1.7582,-1.7582,-1.7582,-1.7582,-1.774,-1.8199,-1.8304,-1.8461,-1.8923,-1.9027,-1.9235,-1.9849,-2.0467,-2.0526,-1.9287,-1.9546,-1.9746,-1.9131,-1.9027,-1.8871,-1.8356,-1.7891,-1.7582,-1.7582,-1.7582,-1.7582,-1.7582,-1.7582,-1.7582,-1.7582,-1.7582,-1.7582,-1.7582,-1.7582,-1.7838,-1.8304,-1.7838,-1.7838,-1.8304,-1.7838,-1.7582,-1.7582,-1.7582,-1.7582,-3.0154,-3.0216,-3.0216,-3.0216,-3.0216,-3.0204,-3.0135,-2.9802,-2.9458,-2.932,0.0,-2.5699,-2.5647,-2.4423,-2.3691,-2.4565,0.0,-2.5278,-2.4841,-2.3768,-2.2531,-2.1345,-2.0162,-1.9424,-1.9424,-1.9424,-1.9424,-1.9424,-1.9424,-1.9424,-1.9424,-1.9424,-1.9424,-1.9424,-1.9424,-1.9424,-1.9424,-1.9424,-1.9482,-1.9649,-1.9649,-2.027,-2.146,-2.146,-2.2021,-2.2902,-2.1499,0.0,-2.0186,-1.8759,-1.8554,-1.9124,-1.8199,-1.8454,-1.928,-1.8199,-1.7786,-1.7793,-1.7635,-1.7582,-1.7582,-1.7582,-1.7582,-1.7582,-1.7582,-1.7582,-1.7582,-1.7582,-1.7582,-1.7582,-1.7582,-1.7582,-1.7838,-1.8767,-1.9072,-1.9487,-2.0467,-2.0885,-2.1089,-2.0936,-2.114,-2.1242,-2.0936,-2.1038,-2.1038,-2.0936,-2.0885,-2.0526,-1.9539,-1.8461,-1.7733,-1.7635,-1.7582,-1.7582,-1.7582,-1.7733,-1.7733,-1.7635,-1.7733,-1.7786,-1.7786,-1.7786,-1.8304,-1.9383,-1.8513,-1.8401,-1.9176,-1.8251,-1.774,-1.7582,-1.7582,-1.7582,-3.0519,-3.0216,-3.0216,-3.0216,-3.0216,-3.0112,-2.9711,-2.9561,0.0,0.0,-2.6693,-2.5194,-2.4788,-2.3757,-2.3279,-2.4183,-2.4937,-2.5278,0.0,0.0,-2.2531,0.0,0.0,0.0,0.0,0.0,0.0,0.0,0.0,-1.9424,-1.9424,-1.9424,-1.9424,-1.9424,-1.9424,-1.9424,-1.9424,-1.9424,-1.988,-2.0895,-2.0895,-2.1517,-2.27,-2.27,-2.2813,-2.2942,-2.2064,0.0,-2.0219,-1.9353,-1.9071,-1.9176,-1.902,-1.9591,-2.0467,-1.9332,-1.8916,-1.8819,-1.7891,-1.7582,-1.7582,-1.7582,-1.7582,-1.7582,-1.7582,-1.7582,-1.7582,-1.7582,-1.7582,-1.7582,-1.7582,-1.7582,-1.7635,-1.7838,-1.8558,-1.9228,-1.9435,-2.0928,-2.1962,-2.1089,-2.2367,-2.3029,-2.1242,-2.1658,-2.1912,-2.1038,-2.0885,-2.0834,-2.0621,-1.9642,-1.8558,-1.7687,-1.7582,-1.7582,-1.7582,-1.8401,-1.8558,-1.7635,-1.8408,-1.8916,-1.8916,-1.8916,-1.9435,-2.057,-2.0416,-1.9952,-1.9176,-1.902,-1.8454,-1.7582,-1.7582,-1.7582,-3.0385,-3.0216,-3.0216,-3.0216,-3.0216,-3.0158,-2.9929,0.0,0.0,0.0,-2.6828,-2.5359,-2.4916,-2.4013,0.0,-2.4085,-2.4532,-2.4933,0.0,0.0,0.0,0.0,0.0,0.0,0.0,0.0,0.0,0.0,0.0,-1.9424,-1.9424,-1.9424,-1.9424,-1.9424,-1.9424,-1.9424,-1.9424,-2.0046,-2.0608,-2.1231,-2.1851,-2.2749,-2.3935,-2.3935,-2.4373,-2.5003,-2.3883,0.0,-2.2261,-2.1092,-2.0726,-2.0877,-2.0313,-2.0775,-2.1599,-2.0467,-1.9694,-1.9228,-1.9287,-1.8923,-1.8513,-1.9131,-1.8565,-1.7582,-1.7582,-1.7582,-1.7582,-1.7582,-1.7582,-1.7733,-1.8304,-1.7996,-1.7891,-1.9027,-2.0158,-2.0928,-2.0928,-2.2207,-2.3238,-2.2719,-2.3488,-2.3845,-2.282,-2.3029,-2.3238,-2.2669,-2.2619,-2.2417,-2.181,-2.1242,-2.0518,-1.9443,-1.9339,-1.9339,-1.9339,-1.9797,-1.9849,-1.9339,-1.9797,-2.0055,-2.0055,-2.0055,-2.0621,-2.17,-2.1191,-2.0936,-2.0928,-2.0364,-1.9539,-1.8408,-1.8408,-1.8146,-3.0261,-3.0296,-3.0354,-3.025,-3.0308,-3.0296,-2.9963,-2.9274,0.0,0.0,-2.6832,-2.5391,-2.5041,0.0,-2.3518,0.0,-2.4146,0.0,0.0,0.0,0.0,0.0,0.0,0.0,0.0,0.0,0.0,0.0,0.0,0.0,-1.9424,-1.9424,-1.9591,-1.9866,-1.9931,-2.0097,-2.0321,-2.1274,-2.19,-2.2127,-2.3079,-2.4206,-2.5331,-2.5331,-2.5999,-2.7025,-2.5783,0.0,0.0,-2.282,-2.2416,-2.2621,-2.1674,-2.2005,-2.2828,-2.1794,-2.0818,-2.0092,-2.0723,-2.0364,-1.9694,-2.0629,-1.9702,-1.8304,-1.8304,-1.8304,-1.8304,-1.8304,-1.8304,-1.8513,-1.9332,-1.8923,-1.8819,-2.0783,-2.1912,-2.2577,-2.2828,-2.3596,-2.4202,-2.4202,-2.4202,-2.4202,-2.4202,-2.4202,-2.4202,-2.4202,-2.4202,-2.3895,-2.2979,-2.2878,-2.2526,-2.17,-2.1191,-2.0885,-2.0885,-2.1089,-2.114,-2.0936,-2.114,-2.1242,-2.1242,-2.1242,-2.1751,-2.2828,-2.2064,-2.1802,-2.2165,-2.1293,-2.0313,-1.9176,-1.8968,-1.8506,-3.0397,-3.0572,-3.0824,-3.0342,-3.0583,-3.0572,-2.916,0.0,0.0,-2.7552,-2.5875,-2.4594,-2.455,-2.3397,0.0,0.0,0.0,0.0,0.0,0.0,0.0,0.0,0.0,0.0,0.0,0.0,0.0,0.0,0.0,0.0,-1.9482,-1.9649,-2.0256,-2.1365,-2.1665,-2.2346,-2.3383,-2.3487,-2.4108,-2.5177,-2.5287,-2.5972,-2.7152,-2.7152,-2.7206,-2.7349,-2.6827,0.0,0.0,-2.386,-2.3374,-2.3364,-2.2924,-2.3352,-2.4223,-2.3402,-2.2885,-2.2433,-2.1582,-2.1038,-2.0783,-2.0885,-2.0783,-2.0577,-2.0577,-2.0577,-2.0577,-2.0577,-2.0577,-2.0629,-2.0731,-2.068,-2.0885,-2.2064,-2.2426,-2.2778,-2.3795,-2.4152,-2.4202,-2.4202,-2.4202,-2.4202,-2.4202,-2.4202,-2.4202,-2.4202,-2.4202,-2.4152,-2.4053,-2.4044,-2.4003,-2.3895,-2.2114,-2.0885,-2.0885,-2.181,-2.1962,-2.0987,-2.181,-2.2367,-2.2367,-2.2367,-2.2878,-2.3994,-2.3954,-2.2979,-2.1038,-2.0936,-2.0313,-1.9176,-1.8199,-1.8199,-3.0652,-3.1077,-3.1421,-3.1203,-3.1077,-3.0767,-2.9825,0.0,-2.8505,-2.7828,-2.6835,-2.5866,-2.5013,-2.4166,-2.3605,0.0,-2.3425,-2.3859,-2.5078,0.0,0.0,0.0,0.0,0.0,0.0,0.0,0.0,0.0,0.0,0.0,-2.2104,-2.2161,-2.2435,-2.2927,-2.3047,-2.3327,-2.3822,-2.4497,-2.5113,-2.5626,-2.6354,-2.6926,-2.7377,-2.7377,-2.753,-2.7682,-2.7519,0.0,0.0,-2.567,-2.5136,-2.4725,-2.4271,-2.4372,-2.4686,-2.4372,-2.38,-2.3194,-2.3411,-2.2953,-2.2433,-2.2902,-2.3061,-2.2811,-2.1336,-2.0885,-2.0885,-2.0885,-2.0885,-2.1038,-2.1709,-2.1861,-2.181,-2.1607,-2.2013,-2.2627,-2.3088,-2.3696,-2.4202,-2.4202,-2.4202,-2.4202,-2.4202,-2.4202,-2.4202,-2.4202,-2.4202,-2.4202,-2.4202,-2.4202,-2.4202,-2.4202,-2.3388,-2.2878,-2.2878,-2.3288,-2.3338,-2.2929,-2.3288,-2.3538,-2.3538,-2.3538,-2.3746,-2.4202,-2.3546,-2.2728,-2.1861,-2.1191,-2.0313,-1.9176,-1.8767,-1.8461,-3.0836,-3.1387,-3.1813,-3.1813,-3.1502,-3.1008,0.0,-2.9332,-2.8517,-2.7885,-2.7254,-2.6379,-2.5162,-2.4446,-2.3929,0.0,-2.3134,-2.3382,-2.4803,-2.4919,0.0,0.0,0.0,0.0,0.0,0.0,0.0,0.0,0.0,0.0,-2.4608,-2.4939,-2.4939,-2.4488,-2.4552,-2.4774,-2.5105,-2.5945,-2.64,-2.64,-2.7251,-2.7647,-2.7647,-2.7647,-2.7799,-2.8014,-2.8014,0.0,0.0,-2.6827,-2.6241,-2.5679,-2.5201,-2.503,-2.5039,-2.5088,-2.4618,-2.4007,-2.4775,-2.447,-2.385,-2.443,-2.4637,-2.4282,-2.2501,-2.1895,-2.1853,-2.1853,-2.1853,-2.2055,-2.2828,-2.2979,-2.2828,-2.2064,-2.2467,-2.2979,-2.2979,-2.3646,-2.4202,-2.4202,-2.4202,-2.4202,-2.4202,-2.4202,-2.4202,-2.4202,-2.4202,-2.4202,-2.4202,-2.4202,-2.4202,-2.4202,-2.4202,-2.4202,-2.4202,-2.4202,-2.4202,-2.4202,-2.4202,-2.4202,-2.4202,-2.4202,-2.4202,-2.4202,-2.3088,-2.2325,-2.2013,-2.0936,-2.0004,-1.9176,-1.8864,-1.8304,-3.0744,-3.1387,-3.1813,-3.1813,-3.1743,-3.1294,-2.9848,-2.9091,-2.8425,-2.7396,-2.6487,-2.5537,-2.4669,-2.3757,-2.3158,-2.3261,-2.3083,-2.3516,-2.5267,-2.5286,0.0,0.0,0.0,0.0,0.0,0.0,0.0,0.0,0.0,0.0,-2.6472,-2.7574,-2.7565,-2.61,-2.6345,-2.7025,-2.8237,-2.8291,-2.8291,-2.8291,-2.8291,-2.8291,-2.8291,-2.8291,-2.8291,0.0,0.0,0.0,0.0,-2.6879,-2.6352,-2.5939,-2.5506,-2.5284,-2.5342,-2.5586,-2.5538,-2.5284,-2.5284,-2.5137,-2.4883,-2.4883,-2.4883,-2.4833,-2.4529,-2.4341,-2.4152,-2.4152,-2.4152,-2.4152,-2.4202,-2.4202,-2.4202,-2.4152,-2.4152,-2.4202,-2.4202,-2.4202,-2.4202,-2.4202,-2.4202,-2.4202,-2.4202,-2.4202,-2.4202,-2.4202,-2.4202,-2.4202,-2.4202,-2.4202,-2.4202,-2.4202,-2.4202,-2.4202,-2.4202,-2.4202,-2.4202,-2.4202,-2.4202,-2.4202,-2.4202,-2.4202,-2.4202,-2.4202,-2.3088,-2.1962,-2.0936,-1.9797,-1.9228,-1.9176,-1.8101,-1.7635,-2.9984,-3.0732,-3.1391,-3.0847,-3.0698,-3.0388,-2.9217,-2.8827,-2.8413,-2.7396,-2.7074,-2.6464,-2.4787,-2.452,-2.4392,-2.3862,0.0,0.0,0.0,0.0,0.0,0.0,0.0,0.0,0.0,0.0,0.0,0.0,0.0,0.0,-2.7745,-2.8067,-2.8067,-2.7618,-2.7682,-2.7906,-2.8291,-2.8291,-2.8291,-2.8291,-2.8291,-2.8291,-2.8291,-2.8291,-2.8291,0.0,0.0,0.0,0.0,-2.7085,-2.6666,-2.6238,-2.5761,-2.5586,-2.5586,-2.5693,-2.5645,-2.5586,-2.5586,-2.5538,-2.544,-2.5235,-2.5186,-2.5137,-2.4833,-2.4587,-2.439,-2.4251,-2.4202,-2.4202,-2.4202,-2.4202,-2.4202,-2.4202,-2.4202,-2.4202,-2.4202,-2.4202,-2.4202,-2.4202,-2.4202,-2.4202,-2.4202,-2.4202,-2.4202,-2.4202,-2.4202,-2.4202,-2.4202,-2.4202,-2.4202,-2.4202,-2.4202,-2.4202,-2.4202,-2.4202,-2.4202,-2.4202,-2.4202,-2.4202,-2.4202,-2.4202,-2.4202,-2.4202,-2.2367,-2.1242,-2.0885,-1.9027,-1.8101,-1.8094,-1.7733,-1.7582,0.0,-3.0266,-3.0706,-3.0443,-3.0213,-2.9844,-2.9014,-2.8691,-2.8334,-2.7597,-2.729,-2.664,-2.5084,-2.4691,-2.4461,-2.3858,-2.3919,0.0,0.0,0.0,0.0,0.0,0.0,0.0,0.0,0.0,0.0,0.0,0.0,0.0,-2.8291,-2.8291,-2.8291,-2.8291,-2.8291,-2.8291,-2.8291,-2.8291,-2.8291,-2.8291,-2.8291,-2.8291,-2.8291,-2.8291,-2.8291,0.0,0.0,0.0,0.0,-2.7129,-2.667,-2.6113,-2.5791,-2.5693,-2.5693,-2.5693,-2.5693,-2.5693,-2.5693,-2.5693,-2.5684,-2.5489,-2.5382,-2.5284,-2.5088,-2.4784,-2.4489,-2.4341,-2.4251,-2.4202,-2.4202,-2.4202,-2.4202,-2.4202,-2.4202,-2.4202,-2.4202,-2.4202,-2.4202,-2.4202,-2.4202,-2.4202,-2.4202,-2.4202,-2.4202,-2.4202,-2.4202,-2.4202,-2.4202,-2.4202,-2.4202,-2.4202,-2.4202,-2.4202,-2.4202,-2.4202,-2.4202,-2.4202,-2.4202,-2.4202,-2.4202,-2.4202,-2.4202,-2.4202,-2.2417,-2.1293,-2.0885,-1.867,-1.7582,-1.7589,-1.7702,-1.7756,0.0,-2.9858,-2.9855,-3.0287,-3.0055,-2.9578,-2.9056,-2.8626,0.0,-2.7958,-2.7156,-2.6268,-2.5411,-2.4498,-2.3753,-2.3509,0.0,0.0,0.0,0.0,0.0,0.0,0.0,0.0,0.0,0.0,0.0,0.0,0.0,0.0,-2.8291,-2.8291,-2.8291,-2.8291,-2.8291,-2.8291,-2.8291,-2.8291,-2.8291,-2.8291,-2.8291,-2.8291,-2.8291,-2.8291,-2.8291,0.0,0.0,0.0,0.0,-2.6982,-2.6484,-2.5693,-2.5693,-2.5693,-2.5693,-2.5693,-2.5693,-2.5693,-2.5693,-2.5693,-2.5693,-2.5693,-2.5538,-2.5342,-2.5342,-2.4932,-2.4538,-2.4538,-2.439,-2.4202,-2.4202,-2.4202,-2.4202,-2.4202,-2.4202,-2.4202,-2.4202,-2.4202,-2.4202,-2.4202,-2.4202,-2.4202,-2.4202,-2.4202,-2.4202,-2.4202,-2.4202,-2.4202,-2.4202,-2.4202,-2.4202,-2.4202,-2.4202,-2.4202,-2.4202,-2.4202,-2.4202,-2.4202,-2.4202,-2.4202,-2.4202,-2.4202,-2.4202,-2.4202,-2.3038,-2.1861,-2.0783,-1.8617,-1.7595,-1.7622,-1.7856,-1.8002,-2.8789,0.0,-2.9094,-2.8639,-2.8714,-2.8761,0.0,-2.8363,-2.841,0.0,0.0,0.0,-2.5776,-2.4931,0.0,0.0,0.0,0.0,0.0,0.0,0.0,0.0,0.0,0.0,0.0,0.0,0.0,0.0,0.0,-2.8633,-2.831,-2.8291,-2.8291,-2.8291,-2.8291,-2.8291,-2.8291,-2.8291,-2.8291,-2.8291,-2.8291,-2.8291,-2.8291,-2.8291,-2.8291,0.0,0.0,0.0,-2.6992,-2.667,-2.6221,-2.5693,-2.5693,-2.5693,-2.5693,-2.5693,-2.5693,-2.5693,-2.5693,-2.5693,-2.5693,-2.5693,-2.5635,-2.5586,-2.5586,-2.5235,-2.4784,-2.4784,-2.4637,-2.444,-2.444,-2.4341,-2.4202,-2.4202,-2.4202,-2.4202,-2.4202,-2.4202,-2.4202,-2.4202,-2.4202,-2.4202,-2.4202,-2.4202,-2.4202,-2.4202,-2.4202,-2.4202,-2.4202,-2.4202,-2.4202,-2.4202,-2.4202,-2.4202,-2.4202,-2.4202,-2.4202,-2.4202,-2.4202,-2.4202,-2.4202,-2.4202,-2.4202,-2.4202,-2.2266,-2.0723,-1.9591,-1.8251,-1.7702,-1.7889,-1.7955,-1.8115,-2.8471,-2.8722,-2.8892,-2.8497,-2.8586,-2.8716,-2.8444,0.0,0.0,0.0,0.0,0.0,0.0,0.0,0.0,0.0,0.0,0.0,0.0,0.0,0.0,0.0,0.0,0.0,0.0,0.0,0.0,0.0,0.0,-2.874,-2.831,-2.8291,-2.8291,-2.8291,-2.8291,-2.8291,-2.8291,-2.8291,-2.8291,-2.8291,-2.8291,-2.8291,-2.8291,-2.8291,-2.8291,0.0,0.0,0.0,-2.6982,-2.6562,-2.6133,-2.5693,-2.5693,-2.5693,-2.5693,-2.5693,-2.5693,-2.5693,-2.5693,-2.5693,-2.5693,-2.5693,-2.5693,-2.5693,-2.5693,-2.5489,-2.5235,-2.5137,-2.4883,-2.4686,-2.4686,-2.4489,-2.4341,-2.4341,-2.4251,-2.4202,-2.4202,-2.4202,-2.4202,-2.4202,-2.4202,-2.4202,-2.4202,-2.4202,-2.4202,-2.4202,-2.4202,-2.4202,-2.4202,-2.4202,-2.4202,-2.4202,-2.4202,-2.4202,-2.4202,-2.4202,-2.4202,-2.4202,-2.4202,-2.4202,-2.4202,-2.4202,-2.4202,-2.4202,-2.2518,-2.1344,-2.0723,-1.9124,-1.8464,-1.8784,-1.8394,-1.841,-2.8607,-2.8894,-2.9117,-2.8962,-2.8974,-2.901,-2.8939,0.0,0.0,0.0,0.0,0.0,0.0,0.0,0.0,0.0,0.0,0.0,0.0,0.0,0.0,0.0,0.0,0.0,0.0,0.0,0.0,0.0,0.0,-2.8809,-2.832,-2.8291,-2.8291,-2.8291,-2.8291,-2.8291,-2.8291,-2.8291,-2.8291,-2.8291,-2.8291,-2.8291,-2.8291,-2.8291,-2.8262,-2.8174,0.0,0.0,-2.6885,-2.6465,-2.6074,-2.5693,-2.5693,-2.5693,-2.5693,-2.5693,-2.5693,-2.5693,-2.5693,-2.5693,-2.5693,-2.5693,-2.5693,-2.5693,-2.5693,-2.5693,-2.5635,-2.544,-2.5186,-2.4981,-2.4981,-2.4784,-2.4529,-2.4538,-2.439,-2.4251,-2.4202,-2.4202,-2.4202,-2.4202,-2.4202,-2.4202,-2.4202,-2.4202,-2.4202,-2.4202,-2.4202,-2.4202,-2.4202,-2.4202,-2.4202,-2.4202,-2.4202,-2.4202,-2.4202,-2.4202,-2.4202,-2.4202,-2.4202,-2.4202,-2.4202,-2.4202,-2.4202,-2.4202,-2.3088,-2.2476,-2.2476,-2.0514,-1.9724,-2.0005,-1.9221,-1.8984,-2.9051,-2.9569,-2.9707,-2.8807,-2.8927,-2.9143,-2.8687,0.0,0.0,0.0,0.0,0.0,0.0,0.0,0.0,0.0,0.0,0.0,0.0,0.0,0.0,0.0,0.0,0.0,0.0,0.0,0.0,0.0,0.0,-2.9131,-2.833,-2.8291,-2.8291,-2.8291,-2.8291,-2.8291,-2.8291,-2.8291,-2.8291,-2.8291,-2.8291,-2.8291,-2.8291,-2.8291,-2.8096,-2.7796,0.0,-2.6875,-2.6455,-2.6016,-2.5742,-2.5693,-2.5693,-2.5693,-2.5693,-2.5693,-2.5693,-2.5693,-2.5693,-2.5693,-2.5693,-2.5693,-2.5693,-2.5693,-2.5693,-2.5693,-2.5684,-2.5635,-2.544,-2.5235,-2.5235,-2.5039,-2.4784,-2.4529,-2.4489,-2.439,-2.4251,-2.4202,-2.4202,-2.4202,-2.4202,-2.4202,-2.4202,-2.4202,-2.4202,-2.4202,-2.4202,-2.4202,-2.4202,-2.4202,-2.4202,-2.4202,-2.4202,-2.4202,-2.4202,-2.4202,-2.4202,-2.4202,-2.4202,-2.4202,-2.4202,-2.4202,-2.4202,-2.4202,-2.3088,-2.2476,-2.2476,-2.1585,-2.1278,-2.1563,-2.0733,-2.0513,-2.8811,-2.9256,-2.9544,-2.9051,-2.9761,-3.0446,-2.9905,0.0,0.0,0.0,0.0,0.0,0.0,0.0,0.0,0.0,0.0,0.0,0.0,0.0,0.0,0.0,0.0,0.0,0.0,0.0,0.0,0.0,0.0,0.0,-2.834,-2.8291,-2.8291,-2.8291,-2.8291,-2.8291,-2.8291,-2.8291,-2.8291,-2.8291,-2.8291,-2.8291,-2.8291,-2.8291,-2.8066,-2.7689,0.0,-2.6777,-2.6357,-2.5869,-2.5693,-2.5693,-2.5693,-2.5693,-2.5693,-2.5693,-2.5693,-2.5693,-2.5693,-2.5693,-2.5693,-2.5693,-2.5693,-2.5693,-2.5693,-2.5693,-2.5693,-2.5693,-2.5586,-2.5538,-2.5538,-2.5333,-2.5088,-2.4981,-2.4833,-2.4637,-2.439,-2.4341,-2.4341,-2.4202,-2.4202,-2.4202,-2.4202,-2.4202,-2.4202,-2.4202,-2.4202,-2.4202,-2.4202,-2.4202,-2.4202,-2.4202,-2.4202,-2.4202,-2.4202,-2.4202,-2.4202,-2.4202,-2.4202,-2.4202,-2.4202,-2.4202,-2.4202,-2.4202,-2.3696,-2.3554,-2.3717,-2.2843,-2.2307,-2.2141,-2.1166,-2.0528,-2.8847,-2.9088,-2.9328,-2.9448,0.0,-3.1151,-3.1115,0.0,0.0,0.0,0.0,0.0,0.0,0.0,0.0,0.0,0.0,0.0,0.0,0.0,0.0,0.0,0.0,0.0,0.0,0.0,0.0,0.0,0.0,0.0,-2.833,-2.8291,-2.8291,-2.8291,-2.8291,-2.8291,-2.8291,-2.8291,-2.8291,-2.8291,-2.8291,-2.8291,-2.8291,-2.8291,-2.8008,-2.75,-2.7168,-2.6719,-2.6211,-2.583,-2.5693,-2.5693,-2.5693,-2.5693,-2.5693,-2.5693,-2.5693,-2.5693,-2.5693,-2.5693,-2.5693,-2.5693,-2.5693,-2.5693,-2.5693,-2.5693,-2.5693,-2.5693,-2.5693,-2.5693,-2.5693,-2.5538,-2.5382,-2.5333,-2.5137,-2.4932,-2.4627,-2.4529,-2.443,-2.4291,-2.4251,-2.4202,-2.4202,-2.4202,-2.4202,-2.4202,-2.4202,-2.4202,-2.4202,-2.4202,-2.4202,-2.4202,-2.4202,-2.4202,-2.4202,-2.4202,-2.4202,-2.4202,-2.4202,-2.4202,-2.4202,-2.4202,-2.4202,-2.4202,-2.4303,-2.4505,-2.4785,-2.3842,-2.3305,-2.3209,-2.1865,-2.0876,-2.9845,-2.9641,-2.9412,-2.9905,-2.9749,0.0,-3.132,-3.0855,0.0,0.0,0.0,0.0,0.0,0.0,0.0,0.0,0.0,0.0,0.0,0.0,0.0,0.0,0.0,0.0,0.0,0.0,0.0,0.0,0.0,0.0,-2.831,-2.8291,-2.8291,-2.8291,-2.8291,-2.8291,-2.8291,-2.8291,-2.8291,-2.8291,-2.8291,-2.8291,-2.8291,-2.8291,-2.7842,-2.706,-2.7021,-2.6543,-2.5732,-2.5703,-2.5693,-2.5693,-2.5693,-2.5693,-2.5693,-2.5693,-2.5693,-2.5693,-2.5693,-2.5693,-2.5693,-2.5693,-2.5693,-2.5693,-2.5693,-2.5693,-2.5693,-2.5693,-2.5693,-2.5693,-2.5693,-2.5693,-2.5586,-2.5333,-2.5284,-2.5186,-2.4932,-2.4686,-2.448,-2.448,-2.4341,-2.4202,-2.4202,-2.4202,-2.4202,-2.4202,-2.4202,-2.4202,-2.4202,-2.4202,-2.4202,-2.4202,-2.4202,-2.4202,-2.4202,-2.4202,-2.4202,-2.4202,-2.4202,-2.4202,-2.4202,-2.4202,-2.4202,-2.4202,-2.4587,-2.4748,-2.4785,-2.4324,-2.4692,-2.5692,-2.3729,-2.2782,-2.9544,-2.9448,-2.9424,-2.9953,0.0,0.0,0.0,0.0,0.0,0.0,0.0,0.0,0.0,0.0,0.0,0.0,0.0,0.0,0.0,0.0,0.0,0.0,0.0,0.0,0.0,0.0,0.0,0.0,0.0,0.0,-2.8364,-2.89,-2.9313,-2.9313,-2.9313,-2.9628,-3.0349,-3.0349,-2.9984,-2.9313,-2.8601,-2.8291,-2.8281,-2.8027,-2.7578,-2.7002,-2.6738,-2.6289,-2.5693,-2.5693,-2.5693,-2.5713,-2.6035,-2.5977,-2.5723,-2.6045,-2.5967,-2.5693,-2.5693,-2.5693,-2.5693,-2.5693,-2.5693,-2.5693,-2.5693,-2.5693,-2.5693,-2.5693,-2.5693,-2.5693,-2.5693,-2.5693,-2.5684,-2.5586,-2.5538,-2.5489,-2.5186,-2.4932,-2.4686,-2.4529,-2.4553,-2.4546,-2.4546,-2.4799,-2.5015,-2.5168,-2.4937,-2.4904,-2.5367,-2.5019,-2.4863,-2.5141,-2.5066,-2.4964,-2.4964,-2.4964,-2.4854,-2.4615,-2.4349,-2.4202,-2.4202,-2.4202,-2.433,-2.4587,-2.4702,-2.5074,-2.5571,-2.5369,-2.5317,-2.523,-2.4488,-2.332,-2.9304,-2.9184,-2.9184,0.0,0.0,0.0,0.0,0.0,0.0,0.0,0.0,0.0,0.0,0.0,0.0,0.0,0.0,0.0,0.0,0.0,0.0,0.0,0.0,0.0,0.0,0.0,0.0,0.0,0.0,0.0,0.0,-3.0037,-3.0442,-3.0442,-3.0442,-3.0805,-3.1575,-3.1575,-3.1216,-3.0442,-2.9537,-2.8823,-2.8281,-2.8209,-2.7774,-2.6992,-2.6572,-2.6143,-2.5693,-2.5693,-2.5693,-2.5713,-2.6064,-2.6084,-2.5977,-2.6279,-2.6201,-2.5947,-2.5947,-2.5801,-2.5693,-2.5693,-2.5693,-2.5693,-2.5693,-2.5693,-2.5693,-2.5693,-2.5693,-2.5693,-2.5693,-2.5693,-2.5693,-2.5693,-2.5791,-2.5888,-2.5692,-2.5542,-2.5379,-2.522,-2.511,-2.5066,-2.5247,-2.5284,-2.5474,-2.5863,-2.5577,-2.5544,-2.6134,-2.5661,-2.541,-2.5655,-2.5528,-2.5424,-2.5424,-2.5424,-2.5304,-2.4986,-2.4744,-2.4532,-2.4404,-2.4523,-2.4725,-2.4959,-2.5087,-2.547,-2.6012,-2.5756,-2.5522,-2.5348,-2.5008,-2.3935,-2.9304,-2.8919,0.0,0.0,0.0,0.0,0.0,0.0,0.0,0.0,0.0,0.0,0.0,0.0,0.0,0.0,0.0,0.0,0.0,0.0,0.0,0.0,0.0,0.0,0.0,0.0,0.0,0.0,0.0,0.0,0.0,-3.1626,-3.1626,-3.1626,-3.1626,-3.1626,-3.1626,-3.1626,-3.1626,-3.1615,-3.1083,-2.9949,-2.8325,-2.9002,-2.8452,-2.6982,-2.6613,-2.6133,-2.5684,-2.5693,-2.5693,-2.5693,-2.5693,-2.6006,-2.6387,-2.6396,-2.6387,-2.6387,-2.6387,-2.6103,-2.5693,-2.5693,-2.5693,-2.5693,-2.5693,-2.5693,-2.5693,-2.5693,-2.5703,-2.5703,-2.5703,-2.5703,-2.5703,-2.5693,-2.6074,-2.6387,-2.6396,-2.6517,-2.6593,-2.6593,-2.6053,-2.5759,-2.6167,-2.5628,-2.5385,-2.6115,-2.5994,-2.5891,-2.6182,-2.5994,-2.5702,-2.5433,-2.5433,-2.5433,-2.5433,-2.5433,-2.5433,-2.5433,-2.5433,-2.5207,-2.4803,-2.5212,-2.5424,-2.5433,-2.5819,-2.6012,-2.6021,-2.5202,-2.5459,-2.6582,-2.5348,-2.4778,-2.94,-2.946,0.0,0.0,0.0,0.0,0.0,0.0,0.0,0.0,0.0,0.0,0.0,0.0,0.0,0.0,0.0,0.0,0.0,0.0,0.0,0.0,0.0,0.0,0.0,0.0,0.0,0.0,0.0,0.0,0.0,-3.2336,-3.275,-3.275,-3.275,-3.3101,-3.3857,-3.3506,-3.2929,-3.2169,-3.2432,-3.1705,-3.0039,-2.9533,-2.9046,-2.8606,-2.8169,-2.7562,-2.6686,-2.6014,-2.5693,-2.5713,-2.6074,-2.6084,-2.6006,-2.6611,-2.6445,-2.5977,-2.6279,-2.6103,-2.5693,-2.5693,-2.5693,-2.5693,-2.5693,-2.5947,-2.6191,-2.6191,-2.6406,-2.659,-2.659,-2.659,-2.6562,-2.6269,-2.6299,-2.6465,-2.6768,-2.672,-2.6593,-2.6593,-2.6531,-2.6485,-2.6608,-2.6663,-2.6805,-2.7034,-2.6912,-2.6817,-2.6869,-2.6926,-2.6795,-2.6572,-2.6376,-2.6224,-2.6224,-2.6224,-2.6105,-2.5855,-2.6113,-2.5913,-2.5225,-2.5515,-2.5718,-2.5828,-2.6116,-2.6319,-2.6399,-2.6191,-2.6254,-2.6582,-2.5348,-2.4778,-2.9581,0.0,0.0,0.0,0.0,0.0,0.0,0.0,0.0,0.0,0.0,0.0,0.0,0.0,0.0,0.0,0.0,0.0,0.0,0.0,0.0,0.0,0.0,0.0,0.0,0.0,0.0,0.0,0.0,0.0,0.0,-3.3499,-3.3857,-3.3857,-3.3857,-3.4021,-3.4474,-3.415,-3.3589,-3.2744,-3.2933,-3.2453,-3.1451,-3.0413,-2.9708,-2.9306,-2.8888,-2.8121,-2.7142,-2.6552,-2.6052,-2.5713,-2.6025,-2.6074,-2.6055,-2.6582,-2.6435,-2.6035,-2.6299,-2.6103,-2.5693,-2.5693,-2.5693,-2.5693,-2.5693,-2.6045,-2.6387,-2.6387,-2.6689,-2.7012,-2.7012,-2.7012,-2.6953,-2.6699,-2.6768,-2.6963,-2.7217,-2.7299,-2.7302,-2.7302,-2.7222,-2.719,-2.7352,-2.7342,-2.7393,-2.7726,-2.7694,-2.7574,-2.7468,-2.7529,-2.7476,-2.7206,-2.6999,-2.6845,-2.6791,-2.6736,-2.6635,-2.6278,-2.6444,-2.6416,-2.6079,-2.6219,-2.6277,-2.626,-2.6528,-2.6649,-2.6591,-2.6591,-2.6591,-2.6582,-2.5348,-2.4778,0.0,0.0,0.0,0.0,0.0,0.0,0.0,0.0,0.0,0.0,0.0,0.0,0.0,0.0,0.0,0.0,0.0,0.0,0.0,0.0,0.0,0.0,0.0,0.0,0.0,0.0,0.0,0.0,0.0,0.0,0.0,-3.4775,-3.4775,-3.4775,-3.4727,-3.4474,-3.3994,-3.3898,-3.3669,-3.3212,-3.2671,-3.243,-3.2373,-3.147,-3.051,-2.9467,-2.9064,-2.8308,-2.7463,-2.7369,-2.6733,-2.583,-2.583,-2.6026,-2.6338,-2.6377,-2.6367,-2.6338,-2.6377,-2.6103,-2.5693,-2.5693,-2.5693,-2.5693,-2.5732,-2.6103,-2.6455,-2.6494,-2.6807,-2.7129,-2.7129,-2.7129,-2.7129,-2.7129,-2.7402,-2.7728,-2.7767,-2.8027,-2.8291,-2.8291,-2.7988,-2.7894,-2.8223,-2.7747,-2.7516,-2.8179,-2.8291,-2.8184,-2.796,-2.7906,-2.7799,-2.7485,-2.7431,-2.7314,-2.7043,-2.6989,-2.689,-2.6646,-2.6591,-2.6745,-2.6989,-2.7043,-2.689,-2.6636,-2.689,-2.689,-2.6591,-2.6591,-2.6591,-2.6582,-2.5229,-2.4667,0.0,0.0,0.0,0.0,0.0,0.0,0.0,0.0,0.0,0.0,0.0,0.0,0.0,0.0,0.0,0.0,0.0,0.0,0.0,0.0,0.0,0.0,0.0,0.0,0.0,0.0,0.0,0.0,0.0,0.0,-3.4775,-3.4775,-3.4775,-3.4775,-3.4378,-3.4114,-3.3994,-3.3236,-3.2779,0.0,-3.2106,-3.1886,-3.1841,-3.1651,-3.1416,-3.1135,-3.0261,-2.9749,-2.9464,-2.868,-2.7793,-2.6877,-2.6877,-2.6478,-2.5918,-2.626,-2.6172,-2.5879,-2.6269,-2.6103,-2.5693,-2.5693,-2.5693,-2.5752,-2.6143,-2.6543,-2.6953,-2.7346,-2.7695,-2.8018,-2.8018,-2.8018,-2.8018,-2.8018,-2.7842,-2.7806,-2.8086,-2.8232,-2.8291,-2.8291,-2.8223,-2.8184,-2.8281,-2.816,-2.813,-2.8281,-2.813,-2.8014,-2.8184,-2.8014,-2.7853,-2.7799,-2.7539,-2.7314,-2.7043,-2.6989,-2.689,-2.6646,-2.6591,-2.6745,-2.6989,-2.7206,-2.7215,-2.6944,-2.7161,-2.7053,-2.6591,-2.6591,-2.6591,-2.6527,-2.439,-2.388,0.0,0.0,0.0,0.0,0.0,0.0,0.0,0.0,0.0,0.0,0.0,0.0,0.0,0.0,0.0,0.0,0.0,0.0,0.0,0.0,0.0,0.0,0.0,0.0,0.0,0.0,0.0,0.0,0.0,-3.4775,-3.4775,-3.4546,-3.4402,-3.4402,-3.3945,-3.3561,-3.3262,-3.2767,-3.2415,-3.224,-3.1894,-3.1705,-3.1705,-3.1705,-3.1705,-3.1661,-3.1149,-3.0633,-3.017,-2.9612,-2.8541,-2.7189,-2.7189,-2.66,-2.5713,-2.5986,-2.5937,-2.5713,-2.5996,-2.5879,-2.5693,-2.5693,-2.583,-2.6094,-2.6318,-2.6826,-2.7373,-2.765,-2.7969,-2.8291,-2.8291,-2.8291,-2.8291,-2.8291,-2.8125,-2.8027,-2.8242,-2.8291,-2.8291,-2.8291,-2.8291,-2.8291,-2.8291,-2.8291,-2.8291,-2.8291,-2.8184,-2.813,-2.8291,-2.8184,-2.8067,-2.8067,-2.7916,-2.7647,-2.7206,-2.7206,-2.6999,-2.6646,-2.6745,-2.689,-2.7152,-2.7476,-2.7476,-2.7206,-2.7476,-2.7431,-2.6954,-2.6845,-2.6791,-2.6727,-2.4158,-2.332,0.0,0.0,0.0,0.0,0.0,0.0,0.0,0.0,0.0,0.0,0.0,0.0,0.0,0.0,0.0,0.0,0.0,0.0,0.0,0.0,0.0,0.0,0.0,0.0,0.0,0.0,0.0,0.0,0.0,-3.4607,-3.4571,-3.4102,-3.3862,-3.3862,-3.3416,-3.2981,-3.2548,-3.2452,-3.2309,-3.2081,-3.1849,-3.1761,-3.1761,-3.1705,-3.1705,-3.1705,-3.1705,-3.1238,-3.0453,-3.0453,-2.928,-2.7463,-2.7463,-2.6744,-2.5693,-2.5693,-2.5732,-2.5801,-2.5801,-2.5849,-2.5908,-2.5908,-2.6201,-2.6514,-2.6582,-2.7151,-2.7738,-2.7806,-2.8027,-2.8291,-2.8291,-2.8291,-2.8291,-2.8291,-2.8291,-2.8291,-2.8291,-2.8291,-2.8291,-2.8291,-2.8291,-2.8291,-2.8291,-2.8291,-2.8291,-2.8291,-2.8291,-2.8291,-2.8291,-2.8291,-2.8291,-2.8291,-2.8291,-2.8077,-2.753,-2.7485,-2.7269,-2.6745,-2.6944,-2.7206,-2.7476,-2.7745,-2.7799,-2.7539,-2.7799,-2.7745,-2.7377,-2.7152,-2.7043,-2.6935,-2.4309,-2.303,0.0,0.0,0.0,0.0,0.0,0.0,0.0,0.0,0.0,0.0,0.0,0.0,0.0,0.0,0.0,0.0,0.0,0.0,0.0,0.0,0.0,0.0,0.0,0.0,0.0,0.0,0.0,0.0,-3.4102,-3.391,-3.3513,-3.3428,-3.3392,-3.3392,-3.2875,-3.2653,-3.275,-3.2289,-3.2155,-3.2344,-3.2069,-3.195,-3.1937,-3.1761,-3.1705,-3.1705,-3.1705,-3.1617,-3.1516,-3.1516,-3.0306,-2.8495,-2.8495,-2.7342,-2.5693,-2.5693,-2.5977,-2.6299,-2.6299,-2.6543,-2.6846,-2.6846,-2.6885,-2.7002,-2.7383,-2.763,-2.7796,-2.8105,-2.8252,-2.8291,-2.8291,-2.8291,-2.8291,-2.8291,-2.8291,-2.8291,-2.8291,-2.8291,-2.8291,-2.8291,-2.8291,-2.8291,-2.8291,-2.8291,-2.8291,-2.8291,-2.8291,-2.8291,-2.8291,-2.8291,-2.8291,-2.8291,-2.8291,-2.8184,-2.7853,-2.7853,-2.7691,-2.7323,-2.7323,-2.7476,-2.7799,-2.7906,-2.796,-2.8184,-2.8014,-2.7745,-2.7377,-2.7377,-2.7215,-2.6935,-2.4514,-2.3231,0.0,0.0,0.0,0.0,0.0,0.0,0.0,0.0,0.0,0.0,0.0,0.0,0.0,0.0,0.0,0.0,0.0,0.0,0.0,0.0,0.0,0.0,0.0,0.0,0.0,0.0,0.0,0.0,-3.3859,-3.3687,-3.347,-3.3317,-3.3238,-3.3238,-3.2727,-3.2491,-3.2568,-3.2335,-3.2257,-3.24,-3.2376,-3.2332,-3.2213,-3.1981,-3.1805,-3.1705,-3.1705,-3.1705,-3.1705,-3.1705,-3.0869,-2.9567,-2.9567,-2.8319,-2.6582,-2.6855,-2.6705,-2.6426,-2.666,-2.6865,-2.7012,-2.7012,-2.7178,-2.7412,-2.766,-2.7885,-2.8057,-2.8242,-2.8291,-2.8291,-2.8291,-2.8291,-2.8291,-2.8291,-2.8291,-2.8291,-2.8291,-2.8291,-2.8291,-2.8291,-2.8291,-2.8291,-2.8291,-2.8291,-2.8291,-2.8291,-2.8291,-2.8291,-2.8291,-2.8291,-2.8291,-2.8291,-2.8291,-2.8184,-2.7906,-2.7906,-2.7745,-2.7431,-2.7584,-2.7745,-2.7906,-2.8014,-2.8184,-2.8291,-2.8184,-2.8077,-2.7916,-2.7755,-2.753,-2.7152,-2.5296,-2.3902,0.0,0.0,0.0,0.0,0.0,0.0,0.0,0.0,0.0,0.0,0.0,0.0,0.0,0.0,0.0,0.0,0.0,0.0,0.0,0.0,0.0,0.0,0.0,0.0,0.0,0.0,0.0,0.0,-3.3423,-3.3283,-3.3183,-3.2987,-3.2946,-3.299,-3.2609,-3.2431,-3.2475,-3.2562,-3.2562,-3.2562,-3.268,-3.2636,-3.2475,-3.2169,-3.1937,-3.1749,-3.1705,-3.1705,-3.1705,-3.1705,-3.1104,-3.0215,-3.0215,-2.9035,-2.7417,-2.779,-2.739,-2.6758,-2.707,-2.7246,-2.7344,-2.7344,-2.7559,-2.7822,-2.7822,-2.8047,-2.8291,-2.8291,-2.8291,-2.8291,-2.8291,-2.8291,-2.8291,-2.8291,-2.8291,-2.8291,-2.8291,-2.8291,-2.8291,-2.8291,-2.8291,-2.8291,-2.8291,-2.8291,-2.8291,-2.8291,-2.8291,-2.8291,-2.8291,-2.8291,-2.8291,-2.8291,-2.8291,-2.8237,-2.8014,-2.8014,-2.7906,-2.7638,-2.7853,-2.8014,-2.8014,-2.8184,-2.8291,-2.8291,-2.8291,-2.8291,-2.8291,-2.8121,-2.7799,-2.7377,-2.5963,-2.4633,0.0,0.0,0.0,0.0,0.0,0.0,0.0,0.0,0.0,0.0,0.0,0.0,0.0,0.0,0.0,0.0,0.0,0.0,0.0,0.0,0.0,0.0,0.0,0.0,0.0,0.0,0.0,0.0,-3.2551,-3.24,-3.2103,-3.2086,-3.2162,-3.2437,-3.2412,-3.2475,-3.268,-3.2952,-3.3081,-3.3081,-3.281,-3.2667,-3.268,-3.2201,-3.1981,-3.1994,-3.1793,-3.1705,-3.1705,-3.1705,-3.1104,-3.0215,-3.0215,-2.9267,-2.7883,-2.7914,-2.7784,-2.766,-2.7679,-2.7891,-2.8223,-2.8223,-2.8242,-2.8262,-2.8262,-2.8271,-2.8291,-2.8291,-2.8291,-2.8291,-2.8291,-2.8291,-2.8291,-2.8291,-2.8291,-2.8291,-2.8291,-2.8291,-2.8291,-2.8291,-2.8291,-2.8291,-2.8291,-2.8291,-2.8291,-2.8291,-2.8291,-2.8291,-2.8291,-2.8291,-2.8291,-2.8291,-2.8291,-2.8291,-2.8291,-2.8291,-2.8291,-2.8237,-2.8291,-2.8291,-2.8291,-2.8291,-2.8291,-2.8291,-2.8291,-2.8291,-2.8291,-2.8291,-2.797,-2.7368,-2.6136,-2.525,0.0,0.0,0.0,0.0,0.0,0.0,0.0,0.0,0.0,0.0,0.0,0.0,0.0,0.0,0.0,0.0,0.0,0.0,0.0,0.0,0.0,0.0,0.0,0.0,0.0,0.0,0.0,0.0,0.0,-3.2421,-3.2431,-3.2593,-3.2736,-3.2865,-3.2865,-3.2865,-3.2939,-3.3038,-3.3124,-3.3124,-3.2982,-3.2939,-3.2939,-3.2475,-3.2257,-3.2257,-3.1849,-3.1705,-3.1705,-3.1705,-3.1472,-3.1149,-3.1149,-3.0205,-2.8892,-2.9928,-2.9182,-2.7862,-2.878,-2.878,-2.8291,-2.8291,-2.8291,-2.8291,-2.8291,-2.8291,-2.8291,-2.8291,-2.8291,-2.8291,-2.8291,-2.8291,-2.8291,-2.8291,-2.8291,-2.8291,-2.8291,-2.8291,-2.8291,-2.8291,-2.8291,-2.8291,-2.8291,-2.8291,-2.8291,-2.8291,-2.8291,-2.8291,-2.8291,-2.8291,-2.8291,-2.8291,-2.8291,-2.8291,-2.8291,-2.8291,-2.8291,-2.8291,-2.8291,-2.8291,-2.8291,-2.8291,-2.8291,-2.8291,-2.8291,-2.8291,-2.8291,-2.8291,-2.797,-2.7377,-2.698,-2.6036,-2.8689,0.0,0.0,0.0,0.0,0.0,0.0,0.0,0.0,0.0,0.0,0.0,0.0,0.0,0.0,0.0,0.0,0.0,0.0,0.0,0.0,0.0,0.0,0.0,0.0,0.0,0.0,0.0,0.0,0.0,-3.2667,-3.2853,-3.3025,-3.3124,-3.3124,-3.3124,-3.3124,-3.3124,-3.3124,-3.3124,-3.3124,-3.3038,-3.2939,-3.2562,-3.2356,-3.2257,-3.1837,-3.1705,-3.1705,-3.1705,-3.1705,-3.1705,-3.1705,-3.1018,-3.0186,-3.1238,-3.0499,-2.9135,-3.013,-2.9984,-2.9313,-2.8953,-2.8857,-2.8751,-2.8388,-2.8291,-2.8291,-2.8291,-2.8291,-2.8398,-2.8751,-2.8857,-2.8751,-2.8398,-2.8291,-2.8291,-2.8291,-2.8291,-2.8291,-2.8291,-2.8291,-2.8291,-2.8291,-2.8291,-2.8291,-2.8291,-2.8291,-2.8291,-2.8291,-2.8291,-2.8291,-2.8291,-2.8291,-2.8291,-2.8291,-2.8291,-2.8291,-2.8291,-2.8291,-2.8291,-2.8291,-2.8291,-2.8291,-2.8291,-2.8291,-2.8237,-2.8184,-2.8237,-2.797,-2.7377,-2.7377,-2.6491,0.0,0.0,0.0,0.0,0.0,0.0,0.0,0.0,0.0,0.0,0.0,0.0,0.0,0.0,0.0,0.0,0.0,0.0,0.0,0.0,0.0,0.0,0.0,0.0,0.0,0.0,0.0,0.0,-3.2069,-3.2245,-3.2723,-3.2754,-3.2853,-3.3081,-3.3124,-3.3124,-3.3124,-3.3124,-3.3124,-3.3124,-3.3124,-3.2939,-3.2667,-3.2475,-3.2257,-3.1994,-3.1805,-3.1705,-3.1705,-3.1705,-3.1705,-3.1705,-3.1705,-3.1651,-3.1601,-3.1649,-3.1645,-3.1575,-3.1637,-3.1626,-3.1421,-3.0338,-2.9974,-2.9775,-2.8644,-2.8344,-2.8344,-2.8291,-2.8344,-2.8601,-2.9618,-2.9869,-2.9565,-2.8548,-2.8291,-2.8291,-2.8291,-2.8291,-2.8291,-2.8291,-2.8291,-2.8291,-2.8291,-2.8291,-2.8291,-2.8291,-2.8291,-2.8291,-2.8291,-2.8291,-2.8291,-2.8291,-2.8291,-2.8291,-2.8291,-2.8291,-2.8291,-2.8291,-2.8291,-2.8291,-2.8291,-2.8291,-2.8291,-2.8291,-2.8291,-2.8184,-2.7906,-2.8184,-2.797,-2.7377,-2.7377,-2.6436,-2.9448,0.0,0.0,0.0,0.0,0.0,0.0,0.0,0.0,0.0,0.0,0.0,0.0,0.0,0.0,0.0,0.0,0.0,0.0,0.0,0.0,0.0,0.0,0.0,0.0,0.0,0.0,0.0,-3.3462,-3.3602,-3.3894,-3.3937,-3.3696,-3.3124,-3.3696,-3.3738,-3.3124,-3.3124,-3.3124,-3.3124,-3.3124,-3.2939,-3.2667,-3.2475,-3.2257,-3.1994,-3.1805,-3.1705,-3.1705,-3.1705,-3.1705,-3.1705,-3.1705,-3.1651,-3.1708,-3.2547,-3.2302,-3.1728,-3.2488,-3.2235,-3.1524,-3.1216,-3.1114,-3.0908,-2.9828,-2.946,-2.9313,-2.8495,-2.8857,-2.9513,-2.9817,-2.9313,-2.8654,-2.8398,-2.8291,-2.8291,-2.8291,-2.8291,-2.8291,-2.8291,-2.8291,-2.8291,-2.8291,-2.8291,-2.8291,-2.8291,-2.8291,-2.8291,-2.8291,-2.8291,-2.8291,-2.8291,-2.8291,-2.8291,-2.8291,-2.8291,-2.8291,-2.8291,-2.8291,-2.8291,-2.8291,-2.8291,-2.8291,-2.8291,-2.8291,-2.8184,-2.7906,-2.796,-2.7691,-2.7098,-2.6899,-2.6127,-3.0485,0.0,0.0,0.0,0.0,0.0,0.0,0.0,0.0,0.0,0.0,0.0,0.0,0.0,0.0,0.0,0.0,0.0,0.0,0.0,0.0,0.0,0.0,0.0,0.0,-3.3632,-3.4332,-3.4513,-3.4555,-3.4664,-3.4896,-3.4592,-3.4189,-3.3654,-3.4147,-3.3992,-3.3124,-3.3124,-3.3124,-3.3124,-3.3124,-3.2939,-3.2667,-3.2475,-3.2257,-3.1994,-3.1805,-3.1705,-3.1705,-3.1705,-3.1705,-3.1705,-3.1705,-3.1936,-3.2394,-3.3039,-3.3147,-3.3001,-3.3659,-3.3461,-3.2839,-3.2387,-3.2286,-3.2083,-3.0959,-3.0287,-2.988,-2.9733,-3.0442,-3.1051,-3.013,-2.9775,-2.9428,-2.8495,-2.8291,-2.8291,-2.8291,-2.8291,-2.8291,-2.8291,-2.8291,-2.8291,-2.8291,-2.8291,-2.8291,-2.8291,-2.8291,-2.8291,-2.8291,-2.8291,-2.8291,-2.8291,-2.8291,-2.8291,-2.8291,-2.8291,-2.8291,-2.8291,-2.8291,-2.8291,-2.8291,-2.8291,-2.8291,-2.8291,-2.8291,-2.8077,-2.7691,-2.7853,-2.7584,-2.6989,-2.6745,-2.619,-3.2034,-3.2089,0.0,0.0,0.0,0.0,-3.514,-3.4654,0.0,0.0,0.0,0.0,0.0,0.0,0.0,0.0,0.0,0.0,0.0,0.0,0.0,0.0,0.0,0.0,-3.3956,-3.4692,-3.5264,-3.5467,-3.5467,-3.5494,-3.5615,-3.5019,-3.4634,-3.4551,-3.4509,-3.4105,-3.324,-3.3167,-3.3124,-3.3124,-3.3124,-3.2939,-3.2667,-3.2519,-3.2257,-3.1994,-3.1805,-3.1705,-3.1705,-3.1705,-3.1705,-3.1705,-3.1705,-3.2379,-3.3284,-3.3284,-3.3945,-3.4775,-3.4775,-3.4775,-3.4628,-3.3709,-3.3362,-3.3201,-3.2083,-3.1062,-3.0494,-3.1472,-3.2387,-3.2588,-3.0742,-3.0856,-3.0908,-2.8963,-2.8398,-2.8291,-2.8291,-2.8291,-2.8291,-2.8291,-2.8291,-2.8291,-2.8291,-2.8291,-2.8291,-2.8291,-2.8291,-2.8291,-2.8291,-2.8291,-2.8291,-2.8291,-2.8291,-2.8291,-2.8291,-2.8291,-2.8291,-2.8291,-2.8291,-2.8291,-2.8291,-2.8291,-2.8291,-2.8291,-2.8291,-2.797,-2.7377,-2.7691,-2.753,-2.6935,-2.6691,-2.6591,-3.3021,0.0,0.0,0.0,0.0,0.0,-3.244,-3.2179,0.0,0.0,0.0,0.0,0.0,0.0,0.0,0.0,0.0,0.0,0.0,0.0,0.0,0.0,0.0,0.0,-3.502,-3.5909,-3.657,-3.657,-3.661,-3.632,-3.5628,-3.6122,-3.6082,-3.5386,-3.5386,-3.4965,-3.4147,-3.3454,-3.3124,-3.3124,-3.3124,-3.2939,-3.2711,-3.268,-3.2419,-3.1994,-3.195,-3.1849,-3.1705,-3.1705,-3.1705,-3.1705,-3.1705,-3.2379,-3.3284,-3.3284,-3.3945,-3.4775,-3.4775,-3.4775,-3.4775,-3.458,-3.447,-3.4274,-3.3201,-3.2739,-3.2588,-3.2851,-3.2437,-3.2033,-3.2437,-3.141,-3.013,-2.967,-2.89,-2.8291,-2.8291,-2.8291,-2.8291,-2.8291,-2.8291,-2.8291,-2.8291,-2.8291,-2.8291,-2.8291,-2.8291,-2.8291,-2.8291,-2.8291,-2.8291,-2.8291,-2.8291,-2.8291,-2.8291,-2.8291,-2.8291,-2.8291,-2.8291,-2.8291,-2.8291,-2.8291,-2.8291,-2.8291,-2.8077,-2.7799,-2.7377,-2.726,-2.6999,-2.6691,-2.6636,-2.6591,0.0,0.0,0.0,-3.2991,0.0,0.0,0.0,-3.1727,-3.1888,0.0,0.0,0.0,0.0,0.0,0.0,0.0,0.0,0.0,0.0,0.0,0.0,0.0,0.0,0.0,-3.6162,-3.6961,-3.7567,-3.7567,-3.713,-3.6883,-3.6908,-3.6883,-3.6688,-3.6281,-3.6241,-3.5642,-3.4397,-3.3992,-3.3526,-3.3124,-3.3124,-3.3025,-3.2896,-3.2636,-3.2431,-3.2169,-3.1937,-3.1805,-3.1705,-3.1705,-3.1705,-3.1705,-3.1705,-3.2166,-3.2899,-3.2899,-3.3549,-3.439,-3.439,-3.4558,-3.4775,-3.4775,-3.4775,-3.4677,-3.4164,-3.4017,-3.3869,-3.335,-3.3201,-3.3201,-3.3201,-3.1971,-3.0587,-3.0026,-2.9513,-2.8953,-2.8398,-2.8698,-2.8953,-2.8398,-2.8291,-2.8291,-2.8291,-2.8291,-2.8291,-2.8291,-2.8291,-2.8291,-2.8291,-2.8291,-2.8291,-2.8291,-2.8291,-2.8291,-2.8291,-2.8291,-2.8291,-2.8291,-2.8291,-2.8291,-2.8291,-2.8291,-2.8291,-2.8291,-2.8014,-2.7745,-2.7377,-2.7152,-2.6836,-2.6591,-2.6591,-2.6591,0.0,0.0,0.0,0.0,0.0,-3.206,0.0,0.0,0.0,-3.2748,0.0,0.0,0.0,0.0,0.0,0.0,0.0,0.0,0.0,0.0,0.0,0.0,0.0,0.0,0.0,-3.7523,-3.7839,-3.7839,-3.7058,-3.7025,-3.7976,-3.7358,-3.7017,-3.713,-3.6975,-3.6175,-3.4662,-3.4481,-3.3937,-3.3124,-3.3124,-3.3124,-3.3081,-3.2692,-3.2487,-3.24,-3.1981,-3.1793,-3.1705,-3.1705,-3.1705,-3.1705,-3.1705,-3.2054,-3.2503,-3.2503,-3.3152,-3.3994,-3.3994,-3.4342,-3.4775,-3.4775,-3.4775,-3.4775,-3.4775,-3.4775,-3.4628,-3.3758,-3.4115,-3.458,-3.3709,-3.27,-3.1677,-3.0742,-3.0224,-2.967,-2.8804,-2.9112,-2.9365,-2.8441,-2.8291,-2.8291,-2.8291,-2.8291,-2.8291,-2.8291,-2.8291,-2.8291,-2.8291,-2.8291,-2.8291,-2.8291,-2.8291,-2.8291,-2.8291,-2.8291,-2.8291,-2.8291,-2.8291,-2.8291,-2.8291,-2.8291,-2.8291,-2.8291,-2.8014,-2.7745,-2.7377,-2.7152,-2.6836,-2.6591,-2.6591,-2.6591,0.0,0.0,0.0,0.0,-3.3354,0.0,0.0,0.0,-3.1395,-3.1019,0.0,0.0,0.0,0.0,0.0,0.0,0.0,0.0,0.0,0.0,0.0,0.0,0.0,0.0,0.0,-3.6794,-3.6519,-3.6519,-3.5925,-3.6114,-3.7346,-3.7293,-3.7502,-3.8023,-3.7285,-3.6439,-3.5467,-3.4744,-3.3937,-3.3124,-3.3124,-3.3124,-3.3124,-3.3038,-3.2779,-3.24,-3.2344,-3.2069,-3.1705,-3.1705,-3.1705,-3.1705,-3.1705,-3.2054,-3.2503,-3.2503,-3.3152,-3.3994,-3.3994,-3.4342,-3.4775,-3.4775,-3.4775,-3.4775,-3.4775,-3.4775,-3.4775,-3.4677,-3.4726,-3.4775,-3.4677,-3.3808,-3.3001,-3.2839,-3.1308,-2.9869,-2.9723,-2.9059,-2.8451,-2.8344,-2.8291,-2.8291,-2.8291,-2.8291,-2.8291,-2.8291,-2.8291,-2.8291,-2.8291,-2.8291,-2.8291,-2.8291,-2.8291,-2.8291,-2.8291,-2.8291,-2.8291,-2.8291,-2.8291,-2.8291,-2.8291,-2.8291,-2.8291,-2.8291,-2.8014,-2.7745,-2.7377,-2.7152,-2.6836,-2.6591,-2.6591,-2.6591,0.0,0.0,0.0,0.0,0.0,0.0,-3.154,0.0,-3.1003,0.0,0.0,0.0,0.0,0.0,0.0,0.0,0.0,0.0,0.0,0.0,0.0,0.0,0.0,0.0,0.0,0.0,0.0,0.0,-3.5755,-3.5799,-3.6678,-3.7099,-3.7418,-3.768,-3.7661,-3.6986,-3.5615,-3.5278,-3.4441,-3.3124,-3.3124,-3.3124,-3.3068,-3.2939,-3.2766,-3.255,-3.23,-3.2081,-3.1849,-3.1761,-3.1705,-3.1705,-3.1705,-3.1849,-3.2066,-3.2066,-3.2491,-3.3188,-3.3501,-3.3945,-3.4366,-3.4679,-3.4775,-3.4775,-3.4775,-3.4775,-3.4775,-3.4775,-3.4775,-3.4775,-3.4775,-3.4017,-3.3201,-3.3201,-3.2488,-3.1462,-3.0182,-3.0089,-2.9838,-2.8548,-2.8291,-2.8291,-2.8291,-2.8291,-2.8291,-2.8291,-2.8291,-2.8291,-2.8291,-2.8291,-2.8291,-2.8291,-2.8291,-2.8291,-2.8291,-2.8291,-2.8291,-2.8291,-2.8291,-2.8291,-2.8291,-2.8291,-2.8237,-2.8067,-2.7755,-2.7476,-2.7152,-2.6899,-2.6691,-2.6591,-2.6591,-2.6591,-3.4501,0.0,0.0,0.0,0.0,0.0,0.0,0.0,0.0,0.0,0.0,0.0,0.0,0.0,0.0,0.0,0.0,0.0,0.0,0.0,0.0,0.0,0.0,0.0,0.0,0.0,0.0,0.0,0.0,-3.5009,-3.5996,-3.6678,-3.7114,-3.7302,-3.7897,-3.7347,-3.5615,-3.5615,-3.4746,-3.3124,-3.3124,-3.3124,-3.3068,-3.2896,-3.2766,-3.268,-3.2288,-3.2081,-3.1981,-3.1793,-3.1705,-3.1705,-3.1705,-3.1705,-3.1705,-3.1705,-3.2022,-3.2563,-3.2947,-3.3501,-3.4054,-3.4438,-3.4667,-3.4775,-3.4775,-3.4775,-3.4775,-3.4775,-3.4775,-3.4775,-3.4775,-3.4225,-3.3659,-3.3659,-3.34,-3.2689,-3.0794,-3.0753,-3.0546,-2.8654,-2.8291,-2.8291,-2.8291,-2.8291,-2.8291,-2.8291,-2.8291,-2.8291,-2.8291,-2.8291,-2.8291,-2.8291,-2.8291,-2.8291,-2.8291,-2.8291,-2.8291,-2.8291,-2.8291,-2.8291,-2.8291,-2.8291,-2.8184,-2.7906,-2.7593,-2.7269,-2.6989,-2.6736,-2.6591,-2.6591,-2.6591,-2.6591,0.0,0.0,0.0,-3.2367,0.0,0.0,0.0,0.0,-3.1466,0.0,0.0,0.0,0.0,0.0,0.0,0.0,0.0,0.0,0.0,0.0,0.0,0.0,0.0,0.0,0.0,0.0,0.0,0.0,0.0,0.0,-3.5334,-3.5996,-3.6635,-3.7288,-3.7897,-3.7347,-3.5615,-3.5615,-3.4746,-3.3124,-3.3124,-3.3124,-3.3124,-3.3081,-3.2939,-3.2667,-3.2475,-3.2257,-3.1981,-3.1793,-3.1705,-3.1705,-3.1705,-3.1705,-3.1705,-3.1705,-3.2022,-3.2503,-3.2515,-3.3188,-3.3994,-3.4018,-3.4366,-3.4775,-3.4775,-3.4775,-3.4775,-3.4775,-3.4775,-3.4775,-3.4775,-3.4775,-3.4726,-3.4726,-3.3967,-3.2901,-3.1779,-3.0701,-2.9618,-2.8495,-2.8291,-2.8291,-2.8291,-2.8291,-2.8291,-2.8291,-2.8291,-2.8291,-2.8291,-2.8291,-2.8291,-2.8291,-2.8291,-2.8291,-2.8291,-2.8291,-2.8291,-2.8291,-2.8291,-2.8291,-2.8291,-2.8291,-2.8184,-2.7906,-2.7593,-2.7269,-2.6989,-2.6736,-2.6591,-2.6591,-2.6591,-2.6591,0.0,0.0,-3.6402,-3.4022,0.0,0.0,0.0,0.0,0.0,0.0,0.0,0.0,0.0,0.0,0.0,0.0,0.0,0.0,0.0,0.0,0.0,0.0,0.0,0.0,0.0,0.0,0.0,0.0,-3.2991,0.0,0.0,-3.5328,-3.5828,-3.6046,-3.7056,-3.6779,-3.5019,-3.5385,-3.4746,-3.3124,-3.3124,-3.3124,-3.3068,-3.2896,-3.281,-3.268,-3.2288,-3.2081,-3.1981,-3.1793,-3.1705,-3.1705,-3.1705,-3.1705,-3.1705,-3.1705,-3.1825,-3.1997,-3.237,-3.3176,-3.3994,-3.3994,-3.4342,-3.4775,-3.4775,-3.4775,-3.4775,-3.4775,-3.4775,-3.4775,-3.4775,-3.4775,-3.4775,-3.4775,-3.4519,-3.3758,-3.1982,-3.1319,-3.0494,-2.8654,-2.8291,-2.8291,-2.8291,-2.8291,-2.8291,-2.8291,-2.8291,-2.8291,-2.8291,-2.8291,-2.8291,-2.8291,-2.8291,-2.8291,-2.8291,-2.8291,-2.8291,-2.8291,-2.8291,-2.8291,-2.8291,-2.8291,-2.8077,-2.7584,-2.7485,-2.7161,-2.6745,-2.6636,-2.6591,-2.6591,-2.6591,-2.6591,-3.6431,-3.6794,0.0,-3.4907,-3.4109,0.0,-3.1656,0.0,0.0,0.0,0.0,0.0,0.0,0.0,0.0,0.0,0.0,0.0,0.0,0.0,0.0,0.0,0.0,0.0,0.0,0.0,-3.2382,-3.3703,0.0,0.0,0.0,0.0,-3.5392,-3.5392,-3.6388,-3.6202,-3.4695,-3.51,-3.4561,-3.3124,-3.3124,-3.3124,-3.3068,-3.2939,-3.281,-3.268,-3.2288,-3.2081,-3.1981,-3.1793,-3.1705,-3.1705,-3.1705,-3.1705,-3.1705,-3.1705,-3.1705,-3.1765,-3.2082,-3.2767,-3.3442,-3.3442,-3.3922,-3.4498,-3.4498,-3.4631,-3.4775,-3.4775,-3.4775,-3.4775,-3.4775,-3.4775,-3.4775,-3.4775,-3.4519,-3.3758,-3.1982,-3.1268,-3.0442,-2.8654,-2.8291,-2.8291,-2.8291,-2.8291,-2.8291,-2.8291,-2.8291,-2.8291,-2.8291,-2.8291,-2.8291,-2.8291,-2.8291,-2.8291,-2.8291,-2.8291,-2.8291,-2.8291,-2.8291,-2.8291,-2.8291,-2.8291,-2.8023,-2.7431,-2.7377,-2.7171,-2.6591,-2.6591,-2.6591,-2.6591,-2.6591,-2.6591]}]]